GFSGL_700_spd_000.txt.gz
Wind_Speed
15 18 17 15 16 17 10 13 12 13 8 3 1 4 6 10 17 19 21 24 28 26 28 27 23 19 22 26 13 20 16 14 16 18 18 17 20 10 4 9 7 5 7
11 17 17 15 12 10 11 14 17 11 10 8 2 2 4 6 10 16 18 22 26 26 27 26 27 26 26 26 21 20 18 17 17 18 17 17 11 19 6 12 7 5 6
12 14 15 15 13 9 3 5 8 8 9 10 3 0 4 5 4 11 13 18 21 24 25 25 25 22 25 25 22 20 16 15 15 16 16 14 14 13 10 12 11 12 11
12 12 12 12 12 11 7 4 6 8 8 4 3 3 3 4 6 6 7 17 21 18 28 24 21 23 25 25 17 21 12 16 16 17 21 17 19 9 14 15 15 14 14
11 12 11 12 10 8 7 5 7 6 6 5 5 2 1 2 7 6 4 5 4 12 15 17 16 20 21 20 17 14 18 25 21 17 16 13 11 17 17 16 19 18 18
14 16 13 11 12 10 4 3 4 2 1 3 4 4 3 4 4 8 10 12 13 16 16 12 12 13 16 25 27 22 19 19 18 10 9 14 18 18 17 18 21 19 21
16 15 17 13 14 13 8 5 4 4 2 2 5 5 5 5 5 6 8 9 11 12 12 14 17 19 19 20 17 9 9 10 11 11 12 10 12 13 14 17 19 22 24
19 15 17 17 15 15 10 7 8 5 6 6 8 9 7 5 4 3 4 6 5 6 6 7 8 9 8 8 8 10 12 14 15 16 17 18 18 19 20 21 23 25 28
20 18 17 18 16 13 10 10 9 11 11 9 11 11 10 9 8 8 8 7 8 10 10 12 13 11 14 11 13 14 15 17 19 20 21 21 21 23 24 25 26 29 31
24 21 23 20 15 14 15 14 14 14 13 13 13 12 12 13 11 12 10 10 11 10 10 10 14 13 16 15 16 18 22 23 23 25 27 29 31 34 30 28 29 31 34
18 18 23 22 16 16 15 14 13 13 14 14 18 19 19 17 15 15 16 14 11 13 13 15 17 14 19 22 21 22 24 28 29 30 31 31 34 40 40 34 36 40 40
10 15 18 17 16 21 15 17 18 19 17 18 18 18 14 17 17 16 22 24 22 18 16 16 18 21 28 26 29 27 28 36 39 36 40 45 27 29 33 35 31 31 32
7 8 9 16 16 17 18 18 19 16 12 20 16 12 14 15 22 21 16 21 21 14 15 17 21 26 23 23 25 24 32 32 29 29 28 29 28 32 31 34 32 30 30
5 8 12 14 16 18 16 12 13 14 9 11 12 13 12 12 14 18 14 13 12 13 14 16 18 21 23 22 23 25 26 28 29 28 28 29 31 31 32 30 30 29 26
4 6 8 8 9 8 10 9 11 9 10 10 10 10 10 12 16 14 14 13 11 12 15 17 20 21 22 23 25 26 25 25 26 26 27 28 30 29 29 26 25 24 22
2 2 5 3 4 7 8 4 4 4 5 5 7 10 12 12 12 13 13 13 14 16 18 18 19 20 21 22 24 26 26 23 24 25 26 26 25 25 23 23 21 20 19
1 1 3 4 4 4 3 2 3 4 6 7 8 10 11 12 13 14 14 15 16 17 17 16 17 17 18 18 19 19 20 20 21 20 22 22 21 20 19 19 18 17 16
3 4 4 3 3 3 2 3 4 4 7 9 11 12 13 14 15 15 14 14 14 13 14 14 15 16 18 18 19 20 21 22 22 22 22 22 20 17 16 15 14 14 10
6 5 3 2 3 5 6 7 9 11 11 11 13 14 15 14 14 13 11 11 11 13 14 17 14 16 17 19 20 21 21 21 20 19 19 19 18 17 15 13 12 13 11
2 1 3 2 2 3 5 7 12 13 13 17 14 9 9 10 9 7 7 10 12 14 16 17 21 22 22 20 20 20 21 21 22 20 19 18 16 15 15 13 12 11 10
1 2 3 3 2 6 10 14 14 9 8 13 5 8 7 9 10 10 13 15 16 16 17 17 18 22 22 22 20 19 20 20 23 20 17 16 16 15 14 13 12 12 11
6 5 9 9 11 14 14 10 13 10 9 5 2 4 6 9 12 14 15 16 17 17 17 17 17 19 22 21 19 18 17 18 24 17 15 15 14 13 12 11 12 11 10
4 5 9 16 15 14 14 13 9 4 6 5 7 8 10 12 15 15 16 18 18 19 19 18 17 18 17 17 16 16 16 18 16 13 14 14 13 13 10 10 11 12 9
1 14 10 15 21 19 19 10 9 2 4 7 10 10 12 14 17 17 16 16 15 17 19 17 17 16 14 14 15 16 15 15 16 13 13 11 11 11 10 9 9 7 6
3 14 16 12 17 18 15 7 11 12 7 8 10 14 15 16 15 15 15 14 15 16 18 17 14 13 12 12 13 13 14 13 12 11 10 9 8 8 7 6 5 4 5
9 16 13 10 12 13 9 11 16 15 10 12 15 16 16 17 16 16 14 12 13 15 15 14 14 12 12 10 11 11 11 11 11 10 9 8 7 6 5 4 4 4 4

GFSGL_700_spd_003.txt.gz
Wind_Speed
10 14 18 18 14 15 15 14 11 13 13 6 3 3 2 5 9 13 15 18 21 21 22 22 21 20 21 22 25 21 24 19 17 15 18 16 16 19 13 13 9 8 12
8 12 15 16 15 9 6 10 12 14 10 8 6 7 4 5 8 11 12 12 16 18 24 23 24 22 24 22 21 24 25 22 19 18 16 14 14 15 12 17 12 6 7
8 10 11 12 12 11 8 8 12 12 10 10 9 8 3 5 2 5 9 13 17 18 22 22 22 23 25 26 26 19 22 18 20 16 14 16 22 19 9 8 8 11 11
10 12 11 11 10 10 8 7 8 9 10 9 7 5 5 4 2 1 3 8 10 16 17 18 18 22 24 23 22 24 22 17 18 18 16 18 23 18 11 11 12 15 17
10 12 11 10 8 9 9 6 5 4 4 5 6 6 4 2 3 5 3 1 1 9 16 20 20 18 18 16 16 20 23 19 18 17 22 20 17 18 14 14 14 17 17
14 13 11 11 10 9 9 8 6 6 5 5 6 5 3 2 2 5 9 10 9 7 9 11 13 18 21 19 16 22 20 21 20 14 19 18 9 10 10 16 19 20 20
18 18 13 9 10 9 11 9 5 5 6 6 7 6 6 5 4 3 6 6 7 8 7 9 10 11 12 18 21 22 23 16 14 12 8 8 6 10 10 14 17 17 19
22 21 16 11 13 10 9 8 4 4 7 10 10 10 8 8 7 6 5 3 4 5 7 7 7 8 8 7 7 7 8 11 11 12 11 12 15 17 17 17 18 21 22
21 21 21 17 15 8 8 5 5 7 9 11 11 10 9 7 7 8 6 7 7 8 9 10 12 13 12 6 9 11 10 11 13 15 17 20 21 23 25 26 25 28 28
20 20 22 22 16 12 10 10 10 8 11 11 14 13 14 14 16 14 9 8 9 10 9 10 7 11 11 11 11 17 15 17 19 21 24 25 28 30 29 30 32 35 39
12 14 17 17 19 14 11 11 11 11 11 13 15 14 16 20 21 11 9 8 11 11 13 15 14 14 12 13 14 18 22 24 23 26 29 35 33 34 39 39 40 42 34
6 5 9 16 16 13 15 16 16 14 16 17 16 19 18 16 14 13 9 7 13 16 19 16 12 13 18 20 25 28 27 31 32 34 37 41 45 45 45 46 40 33 29
1 2 8 14 14 18 16 14 12 16 15 11 14 13 11 15 9 8 10 9 12 12 13 14 13 17 20 21 23 24 25 29 29 27 28 30 31 29 30 29 27 26 29
1 3 7 18 13 12 18 17 16 11 12 15 10 8 9 7 8 7 10 9 12 14 16 18 19 18 19 18 20 22 24 25 24 26 26 28 29 28 26 27 28 27 26
0 5 9 12 13 14 15 11 11 10 10 10 9 8 8 8 8 12 10 11 12 13 14 15 16 18 20 22 22 20 20 22 22 23 23 23 25 25 24 25 25 23 21
4 2 5 9 8 5 7 8 6 6 7 6 6 8 10 10 10 11 11 13 14 15 16 17 18 19 19 20 21 17 17 17 18 19 19 19 20 20 19 21 20 20 19
1 3 4 5 7 6 5 5 5 4 4 4 6 7 8 10 11 12 14 15 15 15 14 13 14 14 14 14 15 16 16 16 17 17 18 19 17 16 16 17 19 19 18
2 2 3 3 4 4 4 3 4 4 6 7 8 9 10 11 11 11 11 10 10 10 9 9 10 11 11 12 13 14 17 17 16 17 18 16 16 16 16 15 16 16 15
3 2 3 4 5 4 4 5 5 7 7 8 9 9 9 8 8 8 8 9 9 9 9 9 10 11 13 14 16 17 18 18 16 17 16 15 14 13 14 14 13 15 12
4 1 4 5 5 7 10 13 16 13 9 6 6 7 6 6 6 4 5 9 11 14 16 19 19 18 17 16 17 19 20 20 19 16 14 14 13 13 12 12 11 11 12
6 4 3 5 9 12 15 14 11 14 13 9 5 5 6 7 7 10 12 13 15 15 15 18 21 21 19 16 15 16 18 20 19 18 15 13 12 13 12 9 7 7 11
6 5 6 8 12 13 14 13 10 12 7 2 3 3 6 9 11 12 14 14 14 14 14 14 15 18 21 19 17 15 16 18 17 13 14 13 12 12 9 9 5 9 11
5 9 10 16 15 11 12 15 10 8 2 3 1 4 8 10 13 14 15 14 15 15 14 14 15 16 16 16 16 15 14 17 17 13 13 13 12 9 7 8 9 10 9
3 9 13 16 17 17 14 14 7 4 3 3 5 9 12 14 16 16 16 14 15 15 14 12 10 12 11 12 12 13 13 13 13 12 11 10 9 8 7 8 8 7 6
11 9 11 18 19 21 17 15 10 4 6 10 11 13 14 14 15 15 13 12 13 14 12 12 11 10 10 11 11 11 11 11 11 11 10 9 7 6 5 5 5 4 4
13 18 18 19 21 16 13 15 17 15 15 13 15 16 16 16 16 14 11 10 13 13 12 12 11 7 10 10 10 9 9 11 11 9 9 8 6 5 4 3 3 3 4

GFSGL_700_spd_006.txt.gz
Wind_Speed
5 9 13 13 12 9 12 14 13 11 11 2 3 3 3 8 9 12 17 18 21 22 22 24 25 23 21 21 24 21 25 23 21 20 23 20 16 17 18 20 23 12 16
4 8 9 12 12 11 10 11 13 11 11 7 9 4 4 5 7 9 13 14 18 20 18 20 21 21 24 19 17 25 26 25 26 22 22 18 19 20 19 12 14 16 19
6 8 8 8 10 10 10 9 10 10 9 7 4 5 8 6 6 7 8 9 12 16 16 19 18 21 21 20 19 22 21 26 28 26 26 22 20 19 21 22 19 13 16
9 9 9 8 7 7 9 9 8 7 8 7 5 3 2 3 5 5 4 4 9 16 15 17 18 18 19 21 22 26 23 19 19 23 24 28 24 25 25 25 18 16 13
10 11 9 9 7 7 8 8 7 7 7 8 8 6 4 1 2 3 1 4 3 6 10 13 16 18 20 20 25 16 16 18 15 20 24 22 22 23 22 21 16 17 17
16 14 13 11 9 7 6 7 5 4 4 6 7 8 7 6 5 4 5 7 6 4 7 10 17 17 16 14 18 14 22 26 19 17 19 20 20 22 23 21 16 18 20
19 19 20 18 12 7 4 5 3 2 4 5 6 7 6 5 6 4 3 4 6 6 8 7 9 10 15 15 15 17 20 20 20 24 22 13 10 12 11 16 18 19 20
24 24 24 22 13 11 3 2 1 1 3 6 7 7 6 6 4 6 7 5 5 6 7 7 6 8 6 7 7 8 8 7 7 8 9 8 12 11 11 14 16 15 20
27 25 24 21 14 12 6 3 5 5 6 6 8 9 7 6 5 10 10 7 6 7 8 8 9 10 12 11 8 10 11 11 10 11 14 14 17 18 20 21 23 26 28
25 24 22 20 14 14 9 7 9 9 9 9 10 11 11 8 11 12 9 8 7 9 10 12 12 11 10 9 10 10 12 17 15 16 19 18 21 23 23 24 30 32 33
21 18 18 17 12 13 10 11 13 11 10 11 13 15 15 14 17 14 10 10 8 7 11 13 13 15 14 13 11 12 15 19 20 23 23 23 24 28 26 28 31 38 44
13 12 12 22 18 16 17 19 20 12 10 12 13 17 17 16 12 6 7 8 5 6 11 16 21 16 16 15 16 19 22 25 26 27 31 34 33 33 37 35 32 33 34
9 8 5 7 16 31 14 18 20 10 13 16 13 15 14 9 10 14 7 11 8 10 11 10 13 15 19 19 23 21 22 23 25 30 29 30 29 30 31 32 31 31 32
4 10 11 14 20 15 21 20 16 13 12 13 14 12 8 9 7 9 8 13 16 13 11 15 17 19 19 18 20 21 22 23 24 25 26 27 27 27 27 27 27 26 26
4 7 8 6 10 10 11 9 13 14 14 14 10 9 6 9 7 12 15 11 10 12 12 14 15 17 17 19 20 20 22 22 21 21 22 23 23 22 23 23 23 22 22
4 4 7 11 12 10 10 11 10 9 9 9 11 10 10 11 11 11 11 10 11 12 14 15 17 17 16 15 16 15 15 15 16 16 18 18 19 20 21 22 20 19 20
2 3 5 8 8 8 7 8 7 7 7 8 8 8 9 10 11 11 11 12 12 12 11 10 10 10 11 12 12 14 14 15 17 18 18 18 18 20 19 19 18 17 18
2 2 1 2 3 4 5 6 8 9 8 9 9 10 11 11 11 10 8 6 4 3 4 5 7 9 11 12 14 14 14 16 17 18 18 17 17 17 17 17 17 15 16
2 2 3 2 3 4 5 5 5 7 7 9 8 8 7 6 4 0 2 2 2 4 6 7 9 10 12 13 15 16 16 16 15 16 18 18 17 16 14 14 15 16 14
2 4 3 4 5 5 6 6 5 4 3 5 4 2 1 3 3 2 3 4 6 7 9 11 11 11 12 14 16 17 15 14 12 14 17 16 14 12 11 10 12 13 12
4 3 3 3 5 8 10 11 8 7 6 4 1 4 4 3 1 3 6 8 11 13 15 14 13 12 11 12 15 16 14 13 13 15 16 13 12 11 9 9 9 7 12
6 5 6 8 12 12 15 16 14 8 3 1 3 2 1 3 5 8 9 11 12 13 13 14 15 15 14 11 10 11 12 12 14 14 14 13 12 9 7 7 7 9 8
6 7 6 8 9 10 12 16 12 7 3 2 1 2 5 8 10 11 11 11 11 9 9 10 12 12 11 11 11 11 11 12 12 13 12 11 10 8 8 7 6 8 8
12 10 10 9 10 14 16 15 12 6 3 4 5 6 7 9 11 12 12 13 11 8 6 8 10 10 10 10 10 11 10 9 10 11 11 10 9 6 5 5 6 6 5
14 13 13 14 15 18 20 19 15 8 7 10 9 10 11 13 13 13 12 14 12 8 6 7 7 8 7 8 10 10 9 9 10 10 9 8 7 5 4 4 5 4 4
18 16 16 19 20 19 20 18 19 19 18 16 14 16 15 15 15 14 11 11 12 9 6 7 8 7 9 8 9 9 9 8 9 8 7 6 5 4 4 4 4 2 1

GFSGL_700_spd_009.txt.gz
Wind_Speed
7 11 13 14 15 15 13 14 14 15 12 1 1 3 6 8 9 10 13 17 20 23 24 24 25 24 22 23 24 24 22 23 24 28 27 25 23 16 18 20 23 24 23
7 10 12 13 13 13 13 12 14 15 11 7 7 2 3 2 6 9 9 13 14 17 19 21 22 23 22 22 21 20 20 20 19 28 26 30 31 22 21 23 22 15 20
9 12 14 13 12 12 12 12 11 12 12 10 9 6 7 5 2 3 4 8 11 11 15 19 16 17 18 18 19 16 19 20 21 20 24 30 27 26 25 23 22 21 25
10 12 15 16 15 11 10 11 10 8 8 10 9 5 4 3 2 2 3 7 11 11 12 11 12 16 17 20 18 18 21 19 21 25 24 24 24 27 25 28 30 33 27
12 14 15 15 15 13 8 7 6 5 5 6 8 8 6 4 2 2 2 2 1 1 3 9 11 15 15 14 16 17 18 20 15 19 19 15 23 21 28 26 26 23 21
17 19 18 16 15 13 9 5 5 4 2 5 7 7 6 5 3 2 2 4 4 2 6 7 9 10 11 12 14 15 15 15 18 21 26 25 17 17 23 26 27 26 25
20 22 23 22 18 14 8 5 5 3 1 4 7 7 7 6 5 6 7 6 5 5 7 8 7 11 13 16 18 17 16 18 20 19 17 21 23 20 17 11 13 15 22
23 24 26 24 20 15 9 7 5 5 4 4 5 5 5 5 3 6 9 7 6 6 6 7 11 8 7 8 8 9 10 11 9 8 4 5 7 14 14 15 14 16 15
28 29 29 25 21 14 12 8 8 7 7 6 8 7 6 5 6 9 11 7 7 8 9 10 9 11 12 14 14 14 12 9 9 11 9 13 14 14 16 17 18 20 21
30 32 29 25 17 13 15 11 10 11 9 8 10 9 11 12 11 12 13 11 8 10 10 9 9 12 9 10 13 15 13 11 10 11 14 17 15 15 22 23 23 28 26
30 30 26 19 14 19 17 16 12 13 11 10 10 10 14 16 16 16 15 12 8 11 11 10 12 14 15 17 16 14 11 14 17 19 22 24 26 27 30 30 31 34 37
26 20 18 14 16 17 15 17 14 16 19 14 12 13 14 18 14 12 11 7 9 10 11 10 15 17 20 18 20 17 15 20 24 22 22 23 24 27 31 32 32 33 34
22 15 11 10 18 24 25 27 16 17 18 12 14 12 12 12 7 10 11 9 11 12 12 13 13 12 14 16 21 25 23 19 20 22 24 26 28 30 30 30 31 32 32
13 8 8 14 13 12 21 23 18 14 10 13 13 10 11 10 8 8 12 12 14 19 16 13 16 16 19 18 19 20 21 22 22 23 23 24 24 24 24 24 25 25 25
6 10 11 8 11 19 15 10 11 12 16 13 11 9 10 10 9 9 13 15 15 11 12 14 15 17 18 19 20 21 21 20 20 19 19 19 20 21 22 21 21 21 21
1 5 9 10 10 9 10 13 14 13 10 8 10 9 9 10 11 13 13 13 13 13 14 15 15 16 15 14 13 13 14 15 16 17 18 19 21 22 23 23 22 22 21
2 4 6 8 11 10 10 10 8 7 7 9 9 9 10 11 12 13 13 13 14 14 13 11 9 9 9 10 12 14 16 17 18 18 19 20 21 21 21 21 19 18 19
4 4 4 3 4 5 5 6 7 8 10 11 12 13 13 13 13 13 12 10 8 7 7 7 9 10 12 13 14 15 16 15 16 17 18 20 20 20 20 19 18 17 17
2 2 2 2 2 3 5 8 9 10 12 13 14 13 12 10 8 7 5 5 6 7 8 10 11 13 13 13 13 13 14 15 16 18 19 20 21 20 18 16 17 16 15
1 2 3 3 4 5 6 8 9 10 11 11 10 8 5 4 4 4 4 6 8 9 10 10 11 11 11 12 13 13 14 14 15 16 17 17 15 14 14 14 12 11 11
2 2 3 2 3 3 3 5 6 6 6 5 4 4 4 4 4 5 7 9 10 9 9 9 8 9 10 11 11 11 11 11 13 15 16 15 13 13 13 11 9 6 10
3 2 3 5 6 7 9 9 11 7 5 2 4 6 5 5 6 8 10 12 11 9 8 8 8 8 9 9 8 9 10 10 11 12 13 13 11 10 10 9 8 8 9
4 8 7 9 10 11 10 11 13 11 5 3 4 7 8 8 9 10 12 13 11 9 9 9 9 8 7 6 7 8 8 8 10 11 12 11 10 8 8 7 7 9 8
9 10 10 10 12 14 14 15 15 12 9 7 8 10 10 10 12 12 13 12 9 8 10 10 10 10 9 7 6 7 8 8 9 10 10 9 9 8 6 6 7 6 4
13 14 15 13 14 16 17 19 21 15 11 10 11 12 12 12 13 13 13 14 10 9 9 11 10 11 11 9 8 8 8 8 8 8 8 8 7 6 5 5 5 4 3
15 18 19 17 19 20 22 22 22 21 20 18 16 15 16 15 14 14 14 13 13 12 11 12 12 10 12 11 11 10 10 10 11 9 7 7 7 6 7 7 5 5 6

GFSGL_700_spd_012.txt.gz
Wind_Speed
4 7 11 11 13 14 15 15 16 13 12 10 6 4 4 7 8 8 8 12 16 19 21 23 25 27 28 26 25 25 24 24 27 24 21 24 24 27 31 22 20 22 22
3 8 12 14 13 12 12 14 12 11 10 10 8 5 5 3 3 6 8 11 13 14 17 19 21 23 24 24 24 21 21 24 23 25 20 20 28 33 36 30 26 22 22
6 11 14 16 15 13 11 11 11 9 9 8 7 6 7 7 5 2 2 7 9 11 15 18 20 20 23 27 23 21 22 19 18 19 20 22 22 24 28 33 29 21 20
7 10 14 16 16 15 11 10 9 9 8 8 7 6 6 5 4 2 0 3 6 9 10 10 9 8 12 16 15 16 16 16 17 19 20 18 23 24 25 23 22 23 22
9 12 14 15 17 18 12 10 9 8 6 6 7 7 6 5 4 4 3 2 3 5 3 1 9 10 11 12 12 12 14 13 14 15 14 15 14 15 17 20 26 30 24
12 15 17 17 19 18 16 10 7 6 5 6 7 7 6 6 5 4 4 5 6 6 5 3 4 5 7 7 4 8 12 10 10 10 15 15 18 21 20 19 21 23 26
15 17 19 20 23 21 14 12 6 4 4 6 7 8 8 7 5 4 6 7 5 5 6 7 8 8 10 8 6 12 16 17 16 15 14 13 18 17 18 21 13 11 9
19 20 22 23 25 23 13 11 10 6 4 6 6 7 7 6 6 7 9 9 6 6 5 5 6 8 10 10 11 11 11 10 11 9 8 5 6 8 14 13 10 14 15
19 21 24 26 25 24 17 11 10 10 7 7 7 8 7 7 8 10 12 11 10 7 7 7 8 7 9 11 12 13 15 14 12 10 9 10 13 14 14 17 17 17 17
22 23 25 27 26 23 14 13 12 12 12 10 10 10 11 11 12 12 14 14 11 9 8 7 5 8 9 8 10 11 13 14 12 12 14 15 17 18 20 22 24 26 26
24 26 26 26 21 17 13 12 20 15 12 15 13 11 12 16 16 18 14 11 10 10 10 9 9 11 13 14 16 15 15 15 12 14 17 21 22 23 26 27 26 28 30
27 28 27 23 18 12 13 20 14 17 16 16 19 14 13 19 18 13 10 10 9 8 11 11 15 16 19 18 15 14 17 21 22 24 22 19 20 22 25 28 29 30 30
29 28 23 17 12 10 11 22 16 22 22 20 15 12 16 14 10 7 10 9 9 10 14 13 17 20 10 13 16 19 22 21 20 21 22 23 23 25 26 26 26 26 27
25 25 17 9 11 12 17 14 18 25 18 8 12 15 16 15 11 10 12 10 15 19 20 22 13 11 14 16 18 19 19 19 19 18 18 18 18 18 19 20 20 21 21
21 16 13 10 13 14 14 13 17 13 8 15 14 9 12 14 11 11 10 11 16 16 15 14 14 14 16 17 17 15 14 14 14 16 18 20 21 22 22 22 22 22 22
13 11 6 6 8 5 11 12 9 11 14 12 10 12 11 9 9 10 13 16 15 15 16 15 15 14 12 12 12 13 14 15 17 19 21 21 21 21 21 20 20 20 20
8 7 5 8 10 13 16 16 13 11 10 10 10 10 9 10 11 13 14 15 16 16 15 12 10 9 11 12 13 14 16 18 18 18 18 18 19 20 21 21 19 18 16
8 7 5 5 5 6 7 8 9 9 10 11 11 11 12 12 13 14 15 15 14 12 9 8 9 11 12 14 15 14 14 15 15 16 17 18 20 20 20 19 17 15 14
5 3 2 2 3 4 6 7 9 10 12 13 13 13 12 12 12 12 11 10 8 8 10 11 12 13 14 14 13 13 12 13 14 14 15 17 18 18 17 17 15 13 11
4 3 3 4 6 6 8 9 10 10 11 11 11 10 9 9 7 6 6 8 10 11 13 15 15 14 12 12 11 11 11 12 12 12 14 16 16 16 15 13 11 10 8
3 3 3 3 4 5 5 5 5 5 6 7 6 6 5 5 6 7 9 10 12 13 15 16 15 12 11 10 9 8 9 10 10 11 13 14 14 13 12 11 10 7 9
3 2 1 1 1 3 6 8 10 9 6 2 4 6 6 6 7 9 11 14 15 16 16 15 13 11 10 9 8 8 9 9 10 11 12 12 11 9 10 7 7 8 9
2 2 2 4 6 8 8 10 11 11 9 5 5 7 8 9 10 12 14 16 16 15 15 14 12 11 10 9 8 9 10 10 10 11 11 10 9 8 7 4 5 8 6
4 7 8 7 9 10 12 12 13 13 11 9 7 9 11 12 14 15 17 18 17 15 15 14 12 11 9 9 10 10 10 10 10 10 10 10 8 7 6 5 7 7 5
9 9 11 12 14 15 16 17 17 19 15 12 11 13 14 15 16 17 18 18 18 16 15 14 13 11 10 10 11 12 12 11 10 11 11 11 9 8 7 6 6 6 5
9 13 14 16 18 18 19 20 21 21 19 18 17 18 18 17 17 17 16 15 16 16 16 16 15 14 13 13 12 13 14 14 13 12 12 12 11 9 9 8 7 7 7

GFSGL_700_spd_015.txt.gz
Wind_Speed
2 6 9 12 13 14 14 16 16 15 14 13 8 5 3 4 6 6 7 8 11 14 19 21 23 25 26 25 25 26 27 29 31 32 32 28 31 30 28 24 21 23 23
3 7 11 12 11 11 12 14 14 13 14 11 9 7 6 4 1 3 5 6 9 12 15 18 21 23 25 26 27 27 28 29 28 28 24 22 24 23 23 27 30 33 32
3 5 9 11 13 13 10 12 12 11 11 12 8 7 6 6 6 4 1 3 5 7 12 15 17 19 22 20 24 29 27 24 18 22 20 16 19 25 24 22 19 22 22
5 7 9 13 14 18 12 9 11 9 9 7 9 7 6 5 5 4 4 2 4 5 9 8 8 8 7 13 9 11 12 16 17 15 17 17 17 7 13 19 17 25 23
9 9 11 12 14 17 16 11 9 8 6 5 6 7 8 7 6 4 3 3 5 6 6 4 6 11 12 10 12 12 6 9 13 13 11 12 18 23 21 24 24 21 18
10 11 13 13 15 17 18 12 7 7 5 4 5 6 6 6 5 4 5 5 5 4 4 5 6 5 6 8 6 2 5 9 9 10 10 13 14 14 18 18 15 19 19
12 13 14 15 16 18 17 12 8 6 5 4 5 6 6 5 3 5 6 8 7 6 5 5 7 7 7 5 4 8 8 8 8 8 11 10 9 10 11 11 11 9 4
13 14 14 16 16 19 17 13 9 8 7 7 6 5 5 5 5 6 7 8 8 8 6 5 4 4 5 7 8 9 10 10 12 11 9 8 6 6 10 10 8 13 15
15 15 16 16 18 20 17 13 12 10 9 9 8 7 6 6 8 11 13 13 11 9 8 6 6 4 5 7 7 7 8 10 12 13 11 12 10 12 12 11 14 14 16
18 18 17 18 19 19 18 12 14 13 12 11 11 10 9 9 10 12 16 17 11 8 7 6 5 5 9 9 9 8 11 11 14 10 10 10 12 15 17 18 20 22 23
21 19 20 21 20 18 15 15 13 15 16 13 14 15 14 16 16 17 17 9 8 6 7 8 8 8 12 14 14 12 11 12 13 15 16 18 20 19 20 20 21 24 26
20 21 22 20 18 15 13 16 16 15 13 13 17 16 15 15 14 19 17 10 9 6 8 9 13 13 19 19 8 9 12 17 19 19 18 18 19 20 21 21 22 23 23
21 22 20 17 14 14 14 18 15 15 17 13 18 21 12 13 15 16 11 11 10 7 8 11 15 20 24 17 14 14 17 18 18 18 18 17 16 16 16 17 18 20 20
21 18 16 13 8 12 13 18 21 19 15 19 8 4 10 14 16 14 13 13 12 13 15 17 13 11 11 11 13 15 16 16 14 13 13 15 16 17 19 19 20 19 20
18 14 11 9 9 11 10 16 15 17 14 11 12 12 12 15 13 13 14 12 12 15 16 15 15 14 14 14 13 11 11 11 12 14 15 17 17 18 18 18 19 19 19
12 8 8 8 8 8 11 15 9 7 9 12 15 13 13 12 14 14 13 13 16 17 16 16 15 14 11 10 9 10 11 13 15 15 15 15 15 16 16 17 17 17 17
8 7 8 8 8 8 10 12 13 14 15 14 11 10 9 11 13 15 16 16 17 16 15 14 11 8 8 10 11 13 14 14 14 14 13 13 13 14 15 16 15 13 12
8 8 8 8 7 7 7 7 8 9 10 10 11 12 13 14 16 17 18 18 16 13 11 9 9 10 11 13 14 15 14 13 12 12 12 12 13 15 16 16 16 13 11
6 7 6 6 5 5 6 7 8 10 11 13 13 14 15 16 16 16 15 13 10 8 8 11 13 14 15 14 14 13 12 11 10 9 10 12 14 15 15 15 14 10 9
6 6 6 6 7 8 8 9 10 11 11 13 13 14 13 13 12 10 8 6 7 9 11 14 16 16 15 14 13 12 11 9 8 8 9 11 13 13 14 12 10 7 7
4 5 6 6 6 6 6 7 8 8 8 8 8 9 9 8 6 7 7 8 11 13 13 15 16 15 14 14 13 12 10 8 7 7 8 10 11 9 12 9 5 5 7
2 3 4 4 4 5 6 8 9 9 8 7 6 6 7 7 8 10 11 11 14 15 15 16 16 15 14 14 14 12 11 10 9 8 8 9 9 9 8 4 4 6 6
2 1 2 4 5 5 7 9 11 12 11 9 7 8 9 11 12 13 15 17 17 17 17 17 17 16 15 14 14 14 12 11 10 9 9 9 9 8 7 5 4 5 5
3 3 5 7 8 8 9 12 12 13 14 13 11 10 12 13 15 16 18 19 19 19 20 19 19 17 16 15 15 15 14 13 12 11 10 10 10 10 9 8 10 9 7
6 4 6 9 10 11 13 14 15 16 17 17 15 15 16 16 17 19 20 21 21 21 21 19 19 18 17 17 16 15 15 15 14 14 13 12 11 12 12 12 11 10 9
7 8 10 14 14 15 17 17 18 20 20 20 19 19 20 20 22 23 25 25 23 21 21 20 19 19 19 19 18 17 17 17 17 17 16 15 14 14 14 14 14 13 12

GFSGL_700_spd_018.txt.gz
Wind_Speed
2 3 8 11 13 14 13 14 13 13 14 13 12 10 7 4 4 5 6 8 9 12 13 15 19 21 22 23 24 25 25 27 28 28 29 32 33 35 33 32 34 30 23
1 3 7 10 14 16 15 14 13 13 13 13 10 8 10 8 3 4 4 5 6 7 8 12 17 19 20 23 25 26 27 28 30 31 31 29 26 24 28 25 23 25 21
2 4 9 12 13 16 16 13 12 10 11 11 11 8 8 7 7 6 4 4 7 4 6 9 13 16 19 22 25 24 26 32 29 27 26 27 28 22 17 21 27 29 26
3 7 11 12 13 15 17 15 11 9 8 9 9 9 9 8 7 6 6 5 5 4 6 6 6 9 9 13 10 15 16 14 10 15 20 12 15 12 12 16 22 21 19
7 11 13 12 12 14 16 17 11 7 6 6 8 8 8 8 6 5 5 5 6 7 7 6 5 9 12 11 9 11 10 7 11 12 11 9 12 21 18 20 17 13 13
9 11 12 13 13 14 15 16 12 8 5 4 5 7 8 8 7 7 7 8 8 7 6 6 6 7 6 6 6 4 3 6 8 8 9 12 15 14 14 17 17 16 19
10 13 14 14 13 14 16 17 14 9 8 5 3 5 7 6 5 6 7 8 9 7 6 6 6 6 6 4 3 5 7 6 7 7 8 10 9 10 9 8 8 8 8
13 16 15 15 14 15 17 18 16 12 9 9 7 6 6 6 6 7 9 11 11 11 10 7 4 4 4 4 6 7 8 8 8 8 9 9 8 7 9 11 13 13 15
18 16 14 15 16 16 19 18 18 14 12 10 9 9 9 10 11 11 14 15 15 12 10 8 7 6 4 5 7 7 7 6 7 9 10 10 10 10 12 13 14 15 15
17 16 16 16 16 18 20 18 21 15 16 13 11 10 11 11 13 15 16 18 16 11 12 10 8 8 8 9 10 10 11 11 9 8 8 8 9 12 16 17 17 20 21
18 17 16 17 19 21 21 18 16 19 15 16 14 14 14 13 15 15 15 16 13 13 9 11 9 8 10 13 18 15 11 9 12 13 13 13 15 15 15 16 18 19 21
19 18 18 20 20 19 16 22 17 13 17 18 17 16 17 18 18 19 17 16 11 8 9 10 11 12 15 14 19 12 9 12 16 16 17 16 16 15 13 13 14 14 15
19 19 18 18 17 16 13 21 19 18 18 21 18 19 21 13 11 14 17 17 13 12 14 10 13 16 16 17 14 12 13 14 15 15 12 11 12 13 15 16 16 17 17
18 17 17 15 12 9 13 21 17 20 15 14 16 12 10 8 14 10 18 14 14 15 14 16 17 15 14 14 13 12 12 11 9 10 12 13 14 15 15 15 16 17 19
16 15 13 11 10 8 10 17 15 15 22 16 19 17 15 15 14 18 15 15 15 15 13 17 19 17 16 15 13 10 8 9 10 11 12 12 12 12 13 14 15 16 16
12 10 8 8 9 9 9 15 14 14 18 14 16 15 19 17 17 19 16 17 13 15 17 17 17 17 15 12 9 9 10 10 11 11 11 11 11 12 12 11 12 14 15
9 8 8 9 9 9 9 9 9 11 14 18 18 18 17 16 16 15 15 15 15 16 17 17 16 13 9 9 11 12 12 11 11 10 10 10 10 9 10 12 13 15 14
9 9 8 9 8 7 7 7 9 11 13 14 15 16 16 17 17 17 17 16 17 17 16 14 11 9 10 12 13 13 12 11 10 9 9 9 9 10 11 12 14 13 10
7 7 8 7 6 7 7 8 9 11 13 15 16 17 17 17 18 17 17 16 15 12 10 10 11 13 14 13 14 14 12 11 10 9 9 9 9 10 9 11 11 9 7
6 6 5 6 6 7 7 8 10 11 13 14 14 16 15 15 14 13 12 9 8 10 12 13 14 15 15 15 14 13 12 11 9 9 10 9 9 10 8 9 8 6 6
4 4 4 5 6 6 6 8 9 11 12 12 11 11 11 9 8 8 7 8 10 12 14 15 17 18 17 16 15 13 13 11 11 11 11 10 10 9 7 7 4 4 5
3 3 4 5 6 6 6 6 8 10 12 13 12 10 8 7 7 9 11 13 14 14 17 17 17 18 18 16 15 14 13 13 13 13 13 13 12 10 8 6 4 3 3
4 4 4 5 6 8 10 11 11 11 11 12 13 13 11 10 11 13 15 17 18 19 20 20 19 19 19 18 17 16 16 16 16 16 15 15 14 12 11 10 10 10 8
6 6 6 6 7 8 10 12 13 13 14 16 16 15 14 15 14 15 16 18 19 20 20 21 20 20 21 19 19 19 19 19 18 18 17 17 16 15 14 13 13 14 15
9 8 5 5 6 9 11 13 15 15 13 15 15 17 18 20 20 20 23 25 23 24 25 25 23 22 21 21 20 21 22 20 20 20 20 20 19 18 16 16 16 16 15
10 10 10 13 12 13 14 18 18 18 18 16 16 19 20 20 21 24 25 28 30 29 31 29 27 26 25 24 22 21 22 22 22 22 23 23 22 21 20 18 18 18 18

GFSGL_700_spd_021.txt.gz
Wind_Speed
4 4 5 9 12 16 16 15 14 13 13 13 12 12 13 9 4 5 7 6 7 8 10 12 14 16 17 18 20 20 23 25 25 23 24 25 26 26 29 37 39 41 36
4 4 5 9 12 15 17 17 15 13 12 11 12 12 11 11 10 6 5 4 4 5 5 6 7 10 13 16 19 22 23 24 26 25 27 28 28 27 31 28 23 18 20
6 6 7 11 12 15 16 17 16 13 12 10 9 10 11 10 9 8 6 4 6 5 4 4 4 10 13 14 17 20 24 24 24 26 33 35 26 22 24 17 21 14 18
9 8 9 13 15 15 17 17 15 13 11 9 8 9 9 9 9 8 8 8 8 6 6 6 7 7 7 9 10 11 17 18 16 15 13 15 18 14 15 15 19 16 21
7 5 10 13 14 15 16 18 16 13 11 10 8 7 8 8 6 6 7 8 10 10 9 7 7 5 8 9 9 11 13 11 9 13 13 9 9 13 21 21 21 19 19
2 5 9 13 17 16 16 18 19 15 12 10 9 9 9 8 7 8 8 10 11 12 12 11 8 7 7 5 5 6 4 4 8 10 10 12 12 14 15 14 14 14 13
5 8 12 16 17 16 19 19 19 18 14 11 9 8 8 8 7 7 9 11 12 13 13 12 11 9 7 6 7 6 7 7 7 9 10 10 11 10 10 9 9 10 11
10 14 17 18 19 18 19 19 18 19 14 13 12 9 8 8 8 9 9 12 15 16 12 11 10 9 9 8 8 9 9 10 9 9 9 10 10 9 9 11 14 14 14
13 16 19 18 19 18 20 21 21 18 17 14 13 12 11 11 11 12 13 15 16 16 12 10 9 9 9 7 8 11 11 10 8 9 8 9 10 10 11 12 13 16 18
17 19 19 20 20 21 22 23 22 19 18 16 16 14 13 15 16 15 18 19 19 16 13 14 12 10 10 11 12 12 17 14 11 9 10 12 13 14 16 16 16 17 18
20 21 21 20 21 22 23 25 22 18 17 17 15 13 14 18 15 16 16 19 21 17 13 11 11 12 11 13 16 17 15 10 11 12 14 14 14 13 14 15 16 16 17
22 22 22 22 22 23 22 21 18 24 13 14 15 17 16 17 18 21 21 16 17 16 13 12 12 11 14 17 16 18 17 14 15 16 16 14 13 10 9 11 12 13 14
22 23 23 21 19 19 18 17 13 19 17 19 19 19 22 23 18 12 10 13 13 18 16 13 16 14 17 15 13 12 13 14 14 14 12 10 10 12 12 11 11 12 13
22 21 19 19 17 14 13 14 14 19 21 22 20 17 19 17 17 15 16 18 19 16 15 15 16 17 18 17 15 15 14 12 10 9 10 11 13 12 11 13 14 15 16
18 18 16 13 12 11 11 11 14 18 21 23 18 19 21 18 14 20 19 20 17 18 15 16 17 21 21 18 16 13 9 8 9 11 12 12 12 12 12 12 12 12 12
14 13 11 10 10 11 12 12 13 15 15 17 18 18 17 16 21 19 20 20 16 19 16 19 20 20 19 18 13 9 9 10 11 12 12 11 11 11 11 11 11 12 13
11 10 10 10 11 11 12 13 11 11 12 13 14 18 21 21 19 18 18 18 17 17 17 19 18 17 15 12 11 12 13 13 14 13 12 11 11 11 11 12 12 12 13
11 10 9 10 10 10 10 10 10 11 12 14 16 17 17 17 18 18 18 18 18 18 18 17 14 12 11 13 14 14 16 15 14 13 12 11 11 10 11 12 12 11 10
10 9 9 8 8 8 9 10 12 13 15 15 16 17 17 18 18 18 17 16 16 13 12 11 10 12 14 15 16 18 17 17 15 12 13 12 10 9 11 11 12 10 7
8 8 7 8 8 8 9 10 10 11 12 14 15 15 12 13 13 13 12 10 8 7 10 12 15 14 17 18 18 18 17 16 15 14 14 12 10 9 11 11 11 10 7
7 6 6 5 6 7 8 8 9 9 11 13 12 12 13 12 10 10 10 9 9 11 13 14 17 19 17 19 17 17 17 16 17 15 15 14 12 12 12 12 11 10 8
5 5 1 2 7 5 7 8 9 10 11 11 13 12 12 10 9 8 11 12 14 15 16 17 18 19 20 22 21 18 18 18 17 18 17 16 16 15 14 14 13 13 10
3 2 4 4 6 10 13 13 10 10 10 10 10 12 14 11 9 10 12 14 17 17 17 19 18 18 19 20 20 20 19 19 19 20 19 19 18 17 17 16 16 17 15
4 4 6 4 7 5 6 7 11 12 13 12 11 12 13 13 14 14 17 17 17 20 20 20 20 19 19 19 20 20 19 20 20 21 22 22 21 21 20 20 19 19 19
7 7 7 10 8 10 9 10 11 11 11 16 16 14 14 13 14 15 17 22 26 30 31 31 28 25 24 22 18 19 23 22 22 23 23 24 24 24 23 23 22 21 21
11 9 8 14 10 11 13 15 14 13 10 11 14 22 22 20 17 18 20 27 26 24 23 29 25 28 30 29 31 25 20 21 23 23 25 25 26 26 26 26 26 24 24

GFSGL_700_spd_024.txt.gz
Wind_Speed
3 0 4 7 10 14 16 17 16 13 11 13 12 11 11 11 7 5 6 5 4 5 6 7 8 10 13 16 18 17 17 17 19 21 25 23 22 23 23 24 27 26 30
3 0 4 9 12 14 16 18 18 15 11 11 11 11 11 10 9 9 8 7 7 5 4 3 4 5 8 11 13 14 16 18 20 21 24 25 27 28 27 24 31 29 24
2 2 5 11 12 13 16 18 19 16 13 10 10 11 10 9 8 8 8 8 9 7 6 5 3 7 8 9 12 14 15 19 22 21 21 19 20 22 26 25 18 20 14
3 5 6 10 10 13 14 16 20 18 14 11 9 9 10 10 8 8 9 10 10 10 10 9 7 7 6 8 11 12 13 13 14 16 15 13 15 13 12 14 13 14 17
5 7 8 9 11 13 15 16 18 18 16 12 10 10 10 10 8 8 9 10 12 12 11 10 8 7 4 5 5 8 11 12 14 11 9 11 13 10 12 15 16 15 17
1 7 9 11 14 14 16 17 17 18 17 14 10 10 9 9 9 9 9 11 12 15 14 12 10 8 7 6 7 7 8 6 7 10 10 11 14 14 13 14 13 11 10
5 8 12 13 15 17 18 18 18 19 19 15 11 9 10 9 9 9 10 11 15 17 17 14 12 10 8 7 7 7 7 8 8 9 10 11 12 13 13 11 9 11 10
7 10 13 16 18 18 21 21 20 21 22 16 12 10 10 9 10 11 12 14 17 18 17 13 11 11 12 10 8 8 10 11 10 10 9 10 11 11 10 10 12 15 15
10 11 14 17 18 19 22 22 22 23 23 20 14 11 11 12 13 14 15 15 16 17 16 13 12 10 9 8 10 12 13 14 14 12 11 11 10 11 11 12 14 16 16
15 15 17 19 19 20 22 22 23 24 23 17 14 13 11 11 14 15 13 18 20 23 19 13 13 10 10 12 12 14 17 17 13 13 11 13 13 13 14 15 17 17 18
16 18 20 20 20 21 23 24 25 23 18 12 11 12 12 13 17 16 19 20 21 19 15 13 11 11 11 12 15 17 17 16 14 12 14 15 14 12 13 13 13 12 15
17 20 20 21 22 21 21 23 23 22 18 17 13 13 15 17 16 20 21 22 15 15 14 13 13 14 13 14 16 16 16 17 15 16 16 14 14 8 9 10 11 12 13
18 20 22 21 20 19 19 19 20 16 16 14 15 20 13 15 15 16 15 17 15 17 19 16 17 15 15 17 16 17 17 16 16 18 15 11 10 11 10 9 9 10 11
21 22 20 18 18 17 15 14 15 13 15 16 14 18 17 19 19 15 17 16 20 18 16 20 17 17 16 18 19 18 18 17 16 13 11 12 11 10 10 10 9 10 10
19 18 16 13 13 13 13 13 13 13 15 19 19 17 17 16 19 15 15 19 19 18 18 20 14 17 21 22 18 17 14 13 12 12 13 13 12 10 8 9 9 11 12
17 15 13 13 14 14 14 15 15 15 14 14 16 14 13 15 14 18 22 18 18 19 16 18 19 19 18 19 18 15 11 12 12 14 14 13 12 11 11 9 10 11 13
14 13 13 13 14 14 13 14 13 12 12 12 12 14 17 19 19 18 16 16 16 17 18 20 20 20 18 16 13 13 16 13 15 15 14 14 12 11 11 11 12 12 13
12 13 12 12 13 13 12 12 11 9 8 11 12 14 15 16 16 17 17 16 16 17 17 18 18 16 12 12 13 15 17 17 18 16 15 14 14 13 12 12 12 12 12
11 11 11 11 11 11 11 11 13 14 14 11 12 12 11 12 13 14 14 13 13 11 12 14 10 11 13 15 15 16 18 19 19 17 15 15 15 14 14 12 12 12 12
10 10 10 9 9 8 9 11 10 9 10 13 14 9 11 11 11 9 8 7 8 6 9 11 14 14 14 16 16 18 17 17 18 18 17 17 17 15 15 14 12 13 11
8 8 7 6 6 6 8 8 8 8 10 11 10 12 14 13 13 11 13 10 9 10 13 14 14 18 22 20 17 16 16 17 18 17 16 17 18 18 16 16 14 13 13
6 5 1 6 6 4 9 9 13 16 15 17 20 18 18 18 15 14 9 12 14 16 15 14 15 16 17 19 22 20 17 16 18 18 18 18 19 20 19 19 17 15 15
2 1 3 5 3 0 5 9 4 6 9 8 13 20 21 24 23 22 19 18 19 21 21 18 19 18 18 17 17 17 18 18 17 18 20 22 21 20 21 21 20 19 17
6 7 9 9 9 6 5 4 13 13 15 14 14 19 16 16 12 14 18 21 25 29 28 32 31 23 21 20 20 20 18 17 15 14 16 18 20 22 23 25 23 22 20
14 13 9 11 14 11 14 14 14 15 13 15 13 13 15 20 22 21 24 26 30 30 21 19 28 31 27 29 29 26 24 16 19 19 19 19 19 22 23 24 26 26 23
8 10 15 13 13 18 15 13 11 12 15 10 10 10 10 12 13 15 18 24 23 21 25 28 31 30 33 21 27 29 28 32 25 22 23 22 21 21 22 23 25 26 27

GFSGL_700_spd_027.txt.gz
Wind_Speed
6 5 2 5 11 13 14 16 16 13 12 11 12 12 11 11 10 7 6 6 5 4 3 2 4 5 8 10 13 17 17 17 13 15 15 15 16 18 19 22 21 20 20
6 4 4 9 12 11 12 16 16 14 12 11 11 10 11 10 9 8 7 8 9 8 6 4 2 2 4 7 9 12 12 10 12 16 17 19 20 20 20 18 20 18 19
2 2 4 8 9 10 12 13 17 17 14 12 10 10 11 10 8 8 8 9 10 10 8 6 4 6 4 5 8 9 10 12 14 18 19 18 17 16 14 13 12 12 10
2 1 5 8 8 11 12 14 16 18 17 13 11 9 10 10 9 8 8 10 11 12 11 10 8 7 4 7 6 7 9 10 9 9 11 14 13 10 8 9 11 13 13
3 3 6 7 9 11 13 15 17 17 18 17 12 9 8 8 8 7 8 10 12 13 14 11 9 8 6 8 5 6 7 9 10 10 10 8 11 11 13 15 14 14 14
2 5 7 9 13 14 14 14 17 18 18 18 15 11 9 8 7 8 9 11 12 15 14 10 9 6 6 6 6 7 8 9 9 10 11 13 13 12 14 14 13 9 6
2 4 7 10 13 15 16 16 17 18 18 18 16 12 9 8 7 8 9 11 14 16 16 12 10 7 6 5 6 7 8 9 9 10 12 13 13 12 13 12 12 11 11
5 6 8 11 14 16 18 18 18 18 18 18 15 12 10 9 9 9 10 11 15 18 18 16 13 9 8 7 6 6 8 10 12 13 13 12 12 12 12 13 13 13 13
6 7 10 12 15 17 18 19 19 19 18 18 12 10 10 11 9 11 11 10 15 18 19 15 12 10 8 8 8 11 12 15 16 16 15 13 13 13 15 13 12 13 15
10 11 11 14 17 17 18 19 18 18 18 18 10 10 9 9 10 14 11 11 13 16 16 14 12 10 9 9 9 11 15 18 17 16 13 12 13 14 15 15 16 14 14
12 12 15 16 16 18 18 17 17 18 15 9 9 9 9 10 13 14 15 17 13 12 14 16 14 12 12 13 13 14 15 16 16 16 15 13 13 18 17 15 15 13 12
13 14 16 19 20 19 16 15 16 15 15 10 5 14 13 13 14 17 16 14 15 13 17 18 20 14 14 15 15 16 17 19 18 18 16 14 12 12 11 12 13 14 14
14 15 18 20 17 17 15 14 13 14 12 9 7 13 15 16 17 17 12 13 17 15 18 19 18 16 14 15 16 18 19 21 21 20 17 14 13 11 11 13 13 13 13
13 17 17 15 15 14 14 13 13 13 14 11 9 12 14 15 15 14 15 14 17 18 18 16 20 19 16 17 18 20 22 21 20 18 15 13 12 12 13 12 12 12 12
17 17 16 13 12 12 14 13 14 14 14 14 15 16 14 13 15 17 15 17 18 21 17 20 17 18 16 18 19 18 18 18 15 13 14 14 14 13 12 13 12 11 11
18 16 14 12 13 14 15 14 14 14 13 13 12 11 10 11 14 14 17 21 18 16 17 17 18 18 18 18 18 17 14 11 12 14 14 15 16 14 14 11 12 12 12
16 15 13 13 14 15 14 13 12 11 11 10 10 11 11 12 13 13 15 15 16 17 16 18 18 18 16 14 13 13 13 14 14 15 15 15 15 14 14 14 12 13 13
14 13 13 13 12 12 13 11 7 9 10 10 10 11 12 12 13 14 14 14 14 14 15 17 14 11 10 11 12 15 15 16 16 17 16 16 16 14 14 14 15 14 13
12 11 12 12 12 13 12 12 9 8 9 9 9 10 9 10 11 11 11 10 10 11 13 12 9 10 11 12 13 14 16 18 19 18 16 16 17 14 16 15 16 16 14
10 9 9 9 9 9 8 9 11 8 6 5 6 6 7 9 11 13 12 8 7 8 12 12 13 15 16 16 17 18 18 17 17 17 17 17 17 17 17 18 18 16 15
9 8 9 9 6 6 6 6 6 9 9 5 5 7 11 14 12 11 12 12 11 11 12 14 15 17 19 21 18 16 15 17 18 18 15 15 17 18 18 19 19 18 19
7 8 8 4 4 4 3 3 8 11 16 18 17 18 18 18 20 19 18 15 14 15 16 15 16 17 19 20 21 21 19 17 17 18 17 17 16 16 17 19 19 20 20
8 6 6 7 5 2 4 4 2 4 8 16 18 20 22 21 21 24 22 19 17 21 23 26 26 24 17 16 20 20 19 18 17 16 16 15 14 16 17 17 18 19 21
9 9 11 8 8 7 10 9 11 11 12 16 21 22 21 20 20 18 18 17 18 20 17 25 27 23 27 27 30 26 24 21 17 16 15 14 14 15 17 19 21 21 21
16 14 14 12 9 13 17 18 18 19 20 20 17 18 17 17 17 17 14 14 21 22 26 29 29 34 31 28 31 32 32 30 25 26 24 23 24 25 23 22 20 20 21
13 11 10 16 15 18 21 20 19 19 20 18 20 18 21 23 23 23 24 25 28 34 34 34 36 33 31 29 35 35 32 29 32 32 35 29 29 33 32 31 30 27 22

GFSGL_700_spd_030.txt.gz
Wind_Speed
9 5 2 3 4 8 11 14 13 11 9 8 9 10 10 10 9 8 8 8 8 4 3 2 3 4 6 9 11 12 13 12 16 15 14 14 15 15 17 19 21 20 21
13 7 2 1 4 8 12 14 16 14 11 9 8 9 10 9 8 9 9 9 9 9 7 5 2 2 4 7 10 11 13 16 17 14 13 14 16 17 19 20 18 14 17
12 7 2 1 3 7 11 13 13 16 14 11 9 9 9 8 7 7 8 9 10 10 8 6 4 4 4 4 6 7 8 11 14 14 15 16 15 13 13 13 11 11 12
9 5 3 3 4 9 10 11 13 14 14 14 10 7 8 7 6 6 7 8 9 10 9 7 5 2 0 3 3 4 7 9 11 12 12 11 12 14 10 10 10 12 17
8 5 3 1 6 7 8 12 12 12 12 13 12 7 5 5 5 4 5 6 9 11 11 8 6 5 4 4 2 3 4 5 8 9 11 12 10 11 11 13 17 18 17
8 6 3 2 5 7 8 12 14 14 11 11 13 9 3 2 3 4 5 7 10 11 12 11 9 7 5 5 5 5 6 6 6 7 8 10 12 13 14 17 18 18 11
5 2 2 5 5 7 10 13 15 15 12 10 11 9 5 2 3 5 6 7 8 11 13 9 9 8 6 6 6 6 6 6 7 9 11 12 13 14 14 15 14 13 12
4 7 6 8 10 11 13 16 17 17 14 11 11 8 6 4 4 6 7 6 8 10 12 11 9 9 9 7 7 7 8 9 11 13 13 13 13 12 12 12 12 13 14
9 8 10 12 15 16 15 16 17 17 16 12 12 7 6 5 3 5 8 7 8 9 11 11 11 11 10 10 10 11 12 13 15 15 14 13 12 13 12 13 14 15 16
12 12 11 13 15 17 17 17 18 15 15 12 10 7 6 5 5 7 6 10 14 12 11 12 13 12 11 11 12 13 13 15 16 15 15 14 12 15 15 16 16 17 17
15 14 14 14 16 17 18 16 14 17 14 10 7 9 8 10 8 10 7 14 11 10 12 13 16 17 16 11 12 13 15 14 16 18 15 14 15 18 19 18 17 15 15
15 13 14 15 17 17 15 13 12 11 11 9 6 5 10 10 14 12 13 14 10 11 13 15 16 19 21 14 16 17 20 19 18 20 20 17 17 16 15 14 14 15 16
13 14 13 15 16 15 13 10 9 10 10 8 9 8 7 13 14 15 15 14 15 14 15 17 19 21 20 16 16 22 20 19 21 22 21 18 16 14 15 15 16 16 15
16 12 13 17 16 14 12 11 11 11 11 10 9 11 11 13 17 18 14 16 13 18 18 19 22 21 18 16 16 17 19 22 21 19 17 15 14 13 15 16 15 15 16
14 12 14 15 14 13 13 13 12 11 11 10 12 12 13 13 14 15 18 16 16 17 23 22 19 17 16 17 17 18 18 18 17 16 16 16 16 17 16 16 16 14 14
14 15 15 13 12 12 13 13 11 11 11 11 11 11 10 11 11 13 14 17 21 23 19 18 17 17 17 17 16 14 13 10 10 13 15 16 18 18 17 16 16 16 16
17 16 13 12 13 13 12 12 11 10 10 10 10 11 12 11 11 13 15 14 15 16 18 16 15 16 16 14 12 12 14 15 16 16 16 17 18 18 17 18 16 17 16
16 15 13 14 14 12 11 11 11 9 9 10 9 9 9 9 9 10 11 12 13 13 13 13 13 12 11 12 14 16 17 18 18 19 20 19 21 20 18 17 17 17 17
14 12 13 13 13 11 9 8 7 8 9 8 7 7 7 7 6 6 7 9 10 10 9 10 10 11 11 13 15 16 17 19 21 21 19 19 19 20 19 18 19 19 19
15 14 13 13 10 9 7 8 6 5 5 4 5 5 5 7 9 9 10 9 8 8 9 9 11 13 15 16 17 17 17 18 19 21 20 21 20 19 18 17 19 21 20
13 13 13 9 8 8 7 6 5 4 2 2 4 6 6 8 10 11 11 11 10 9 8 11 15 18 20 22 23 20 18 18 20 22 20 18 18 18 18 17 17 18 20
11 11 10 10 9 7 9 9 11 9 7 5 10 12 15 14 16 17 17 14 13 13 14 15 15 19 19 18 20 20 23 24 22 21 20 19 17 16 17 17 17 18 18
11 10 8 17 12 9 10 11 13 12 10 11 15 18 21 21 20 19 19 17 16 16 17 18 21 23 24 23 27 22 21 23 21 23 23 19 18 17 15 15 17 19 20
13 12 12 11 10 13 13 15 16 16 17 18 19 21 22 23 23 23 22 22 23 24 21 23 23 28 26 28 26 27 28 29 27 27 25 23 22 22 23 23 21 21 23
16 13 10 10 9 11 13 16 23 23 20 20 24 24 23 23 22 21 21 22 20 26 26 29 32 33 34 32 31 28 30 31 34 36 33 29 30 33 36 29 28 29 32
13 11 12 11 13 20 15 17 21 24 24 25 27 25 23 19 20 22 23 26 28 29 31 32 34 35 36 36 36 38 38 39 39 38 36 34 31 31 27 29 30 35 31

GFSGL_700_spd_033.txt.gz
Wind_Speed
13 11 5 1 5 6 9 13 15 14 11 8 7 7 8 8 7 6 7 7 8 7 4 3 1 2 5 8 10 12 13 14 13 12 13 15 17 17 19 19 19 20 20
17 13 7 1 2 4 8 11 12 14 13 9 7 6 6 7 7 7 8 8 8 7 6 4 2 1 2 5 8 11 12 14 16 17 15 16 17 18 19 20 19 17 14
15 10 5 3 0 3 7 8 10 11 12 11 9 7 7 7 7 7 8 9 10 9 7 5 3 2 3 4 5 7 8 10 12 14 14 16 17 17 14 13 12 12 14
11 9 6 4 1 5 6 8 9 11 10 11 10 6 5 5 5 4 5 7 10 11 10 9 7 5 3 5 5 5 6 8 9 10 12 13 13 13 13 11 15 14 17
8 8 6 3 1 6 9 11 11 11 10 9 10 6 3 3 3 4 5 7 8 8 9 8 7 6 5 5 5 6 6 7 8 9 11 11 10 11 13 14 16 21 22
8 8 6 5 1 6 11 14 14 14 9 8 7 6 3 2 3 4 5 7 8 10 11 9 8 7 6 6 6 7 8 8 8 8 9 10 11 14 15 16 18 20 20
7 5 4 6 4 8 11 15 16 15 12 8 7 6 3 4 4 5 6 7 7 9 11 11 9 9 9 10 10 9 8 8 8 10 11 12 14 14 14 15 16 17 15
5 6 8 5 7 10 13 16 17 16 13 12 8 6 3 4 4 4 6 6 7 10 10 11 11 11 12 12 11 11 11 12 13 14 15 15 15 15 14 14 15 15 15
13 16 13 12 11 13 15 16 16 16 13 15 11 8 5 5 5 4 5 4 6 10 11 11 11 12 13 13 12 12 12 12 13 13 14 14 14 14 15 16 17 18 19
26 17 12 15 14 16 17 18 16 15 11 18 14 10 6 6 5 6 9 10 10 13 11 12 12 13 14 18 15 13 12 13 13 14 15 16 15 16 17 17 19 20 21
15 13 11 13 17 16 17 18 15 10 15 17 15 9 10 8 7 10 11 10 12 14 11 13 14 16 17 20 14 14 15 15 17 17 17 17 17 17 19 19 19 19 18
12 12 13 15 13 14 16 15 15 12 15 13 11 7 6 10 8 15 10 12 14 14 14 16 16 17 19 20 16 13 14 19 19 17 18 20 19 18 17 16 14 14 16
14 14 14 14 11 14 14 14 12 12 13 13 9 10 10 9 13 11 14 16 15 14 13 17 19 21 21 20 17 16 16 16 19 20 20 20 19 18 16 15 16 16 15
17 16 15 12 14 15 14 13 13 13 14 13 10 10 14 11 15 13 15 15 14 13 18 17 19 22 22 17 18 19 20 21 20 20 20 18 16 15 15 16 16 16 16
18 14 11 14 15 14 13 12 13 14 13 12 12 12 13 13 14 15 11 14 17 15 17 19 23 20 16 18 20 20 19 18 17 16 15 16 17 18 18 18 17 17 16
13 12 13 15 15 14 13 13 13 12 11 11 10 10 9 10 11 12 14 16 16 18 18 17 15 16 17 18 18 16 14 13 13 15 16 18 19 21 21 21 20 18 17
15 14 15 15 15 14 13 12 10 10 9 9 9 10 10 10 11 11 11 13 13 14 13 13 13 14 14 14 14 14 15 16 17 18 19 19 20 20 20 20 20 18 19
15 15 15 16 16 14 12 11 10 10 9 9 8 7 7 8 8 9 9 10 10 9 8 9 10 10 12 14 16 17 19 20 20 20 20 20 20 21 19 19 20 19 18
16 16 15 16 15 12 11 10 9 8 8 7 6 6 5 4 4 5 5 6 5 6 7 8 9 10 11 13 15 16 17 19 20 21 21 20 20 19 19 18 19 19 19
16 16 16 13 10 10 10 11 10 8 6 5 5 4 3 4 5 6 7 7 7 8 8 7 9 11 13 16 17 18 18 18 19 20 21 22 22 21 19 17 18 19 19
16 14 12 12 9 7 8 7 7 7 9 8 5 4 3 5 8 9 10 9 7 7 8 11 13 10 14 17 14 17 20 20 23 24 22 20 20 21 21 20 19 18 19
15 17 10 9 7 8 7 6 4 6 8 8 7 9 10 12 14 16 16 16 14 15 12 11 13 13 15 19 18 19 19 21 23 25 22 21 21 21 21 19 17 17 17
13 8 9 13 12 8 6 9 9 7 7 9 11 13 15 18 21 20 18 17 16 17 15 17 18 19 21 24 26 25 26 25 24 24 25 25 25 23 23 24 25 25 24
8 10 15 14 6 6 8 9 11 9 13 18 16 17 18 19 18 18 16 15 15 18 17 21 21 23 26 29 30 30 30 30 30 31 31 33 33 30 27 28 30 29 34
16 14 11 8 6 9 11 14 17 16 14 14 18 18 23 22 21 16 17 18 18 19 22 23 25 27 30 32 33 34 34 35 36 36 36 37 36 34 33 29 27 29 29
16 13 12 11 11 13 16 20 18 21 18 20 25 26 27 17 20 16 17 19 22 24 25 27 29 31 32 34 34 34 35 35 35 35 35 35 35 34 33 32 33 33 32

GFSGL_700_spd_036.txt.gz
Wind_Speed
16 11 5 1 2 4 9 11 13 13 12 9 8 7 7 7 7 8 9 8 7 6 5 4 3 2 2 3 4 6 9 10 13 12 13 13 14 16 17 18 19 19 20
15 10 4 2 2 6 8 11 13 13 13 11 9 8 7 6 6 7 8 9 10 9 7 6 4 3 2 3 6 9 10 9 9 12 12 12 13 16 18 19 21 19 15
21 9 5 3 2 5 9 10 12 13 12 11 9 7 6 5 5 5 6 7 9 10 9 7 6 5 5 4 5 6 7 7 10 13 16 16 15 17 18 17 17 14 14
10 8 7 4 1 5 8 11 13 13 13 11 9 7 5 5 4 5 6 7 9 11 11 9 8 6 4 5 5 4 4 5 7 10 12 13 14 14 15 15 14 13 12
9 8 6 4 1 6 8 10 13 15 15 10 8 7 4 3 3 4 5 7 8 10 10 9 8 7 7 6 6 6 6 7 8 9 10 12 12 14 13 12 15 17 23
10 8 7 5 2 6 10 12 13 16 15 9 7 6 6 4 5 5 5 6 7 9 10 11 9 7 6 6 6 6 7 7 8 8 9 10 13 13 14 19 20 20 23
9 10 9 7 5 7 14 13 16 18 16 11 7 7 7 5 6 7 7 8 7 9 9 10 11 11 10 10 9 8 7 7 8 9 10 12 13 15 16 17 17 18 19
10 12 9 5 7 9 12 11 15 20 17 13 10 10 7 8 7 6 6 8 8 8 10 11 12 12 13 13 13 12 11 11 11 11 12 13 14 15 15 15 16 17 19
15 16 11 8 11 12 12 13 15 20 16 11 9 12 8 8 7 7 7 6 8 10 12 13 12 12 13 13 16 14 13 13 13 14 14 15 16 15 15 16 16 18 20
14 17 12 14 15 13 12 15 15 16 12 10 17 16 9 8 9 8 8 9 11 11 12 13 14 16 18 16 17 17 14 15 15 16 17 18 18 18 19 19 19 20 21
8 24 23 17 16 14 13 15 17 13 10 14 17 17 9 10 10 9 13 14 12 13 12 12 13 18 16 18 19 21 17 16 15 17 17 17 18 20 20 21 20 19 19
10 14 18 14 15 14 14 15 15 12 12 15 17 14 10 9 8 10 12 14 14 17 15 15 14 16 20 19 21 22 17 17 18 18 19 20 21 20 20 19 17 16 16
12 10 10 11 14 15 14 14 13 14 12 15 14 14 12 9 12 12 13 13 18 17 14 15 15 23 18 17 23 18 17 18 19 20 20 21 20 19 17 17 17 16 16
14 15 14 16 14 12 13 13 13 12 13 14 13 12 11 13 15 15 18 15 18 15 13 18 19 21 23 24 18 18 19 19 19 18 17 16 16 16 16 16 17 18 18
17 15 16 15 11 11 14 13 12 13 13 13 12 11 11 13 13 13 13 9 11 14 16 12 20 22 22 18 18 18 17 15 15 16 17 18 19 19 19 19 19 18 18
16 16 15 13 11 13 13 13 12 13 12 12 11 10 11 11 12 12 12 13 15 14 13 16 13 15 15 16 15 14 14 14 14 15 16 17 18 19 21 21 20 20 18
16 15 14 12 13 14 13 12 12 11 11 11 11 11 11 11 11 11 10 11 10 10 10 11 11 12 12 12 13 14 15 14 15 16 17 18 18 19 20 20 20 20 19
15 14 13 14 14 13 11 10 9 10 10 10 10 10 9 9 9 8 8 7 7 8 8 8 9 10 10 11 13 13 15 15 15 16 17 18 18 18 19 20 20 19 19
15 15 15 15 13 10 8 7 8 8 8 7 7 7 7 6 5 5 5 6 6 6 6 7 8 9 10 12 12 12 13 15 16 17 18 20 20 19 18 18 18 18 18
14 15 15 12 8 6 7 7 4 5 5 5 5 5 5 5 5 5 5 6 7 7 7 8 9 10 8 9 12 13 16 18 18 18 20 20 19 19 19 19 19 18 18
15 14 13 9 7 4 5 6 3 3 4 5 4 4 5 4 5 7 8 7 7 8 10 10 10 11 10 12 14 15 17 19 21 21 21 22 22 22 21 20 20 19 19
15 14 11 9 9 6 5 4 4 5 5 5 5 6 8 9 11 13 12 8 7 8 8 9 10 12 14 14 17 18 19 20 21 21 22 21 22 24 25 23 22 24 25
15 14 12 9 7 6 8 8 4 3 2 4 9 10 10 11 12 15 13 13 11 12 14 15 15 18 18 19 20 23 24 25 26 26 26 26 27 27 28 27 26 25 27
15 14 13 10 10 8 9 5 3 4 7 10 10 10 14 14 17 13 18 15 14 14 17 18 20 21 20 23 25 27 28 28 28 30 30 30 29 30 30 31 31 29 29
19 16 12 11 9 10 7 6 7 12 12 11 13 14 16 20 18 18 20 19 17 18 20 22 22 23 25 26 28 28 29 29 29 30 31 31 31 31 31 31 30 29 30
18 17 12 12 11 10 8 10 13 18 17 21 19 18 23 26 28 22 18 21 22 22 23 24 25 26 27 28 28 28 28 29 30 30 31 31 31 31 31 31 31 30 29

GFSGL_700_spd_039.txt.gz
Wind_Speed
13 9 7 3 1 4 7 10 12 13 10 8 7 5 5 6 6 7 9 11 11 9 8 7 5 4 3 2 1 4 5 7 9 12 12 12 13 14 14 16 19 20 20
23 11 7 4 2 3 7 10 12 13 12 11 7 7 7 6 6 7 9 10 11 11 9 7 5 5 4 4 4 5 7 9 9 7 13 17 14 16 16 17 19 20 20
18 7 4 3 1 3 6 10 12 12 12 11 9 6 6 5 4 5 6 8 10 12 11 9 7 5 3 3 4 4 4 6 7 10 13 14 14 15 17 18 17 18 16
15 8 7 3 1 4 7 10 12 14 14 11 8 6 4 3 3 4 5 6 7 9 9 9 8 7 5 4 3 3 3 4 5 7 10 12 14 15 18 18 17 15 14
12 11 8 6 3 3 9 11 12 15 16 14 8 6 4 4 3 4 4 6 7 8 9 8 8 7 7 6 5 4 4 4 5 7 8 11 12 15 17 16 17 15 17
12 10 8 8 4 2 7 13 14 14 16 12 8 7 6 5 5 5 5 6 6 6 7 7 7 7 6 6 6 6 7 7 7 7 8 10 11 14 15 16 18 23 22
12 9 8 7 6 4 6 11 15 16 17 15 8 6 7 7 6 6 5 5 5 5 6 8 8 8 8 8 8 7 7 7 9 10 11 12 14 15 16 18 19 19 19
15 13 13 7 9 9 8 11 14 18 18 14 13 9 7 7 7 6 5 6 4 6 8 9 9 9 9 10 11 12 11 10 9 9 10 11 12 13 14 14 15 16 18
14 14 17 14 10 10 11 11 14 16 18 15 10 13 11 9 8 7 6 6 8 10 10 9 9 10 12 13 13 14 15 13 13 13 13 14 16 16 16 16 16 17 19
15 25 25 18 10 10 14 15 17 16 16 16 10 16 15 8 10 9 8 9 10 11 9 13 11 10 14 15 16 18 19 18 16 16 16 17 16 17 18 19 18 18 19
10 11 16 17 12 11 14 18 19 17 18 14 11 14 17 13 11 11 10 13 14 15 14 16 13 14 15 17 22 19 20 20 17 18 19 18 19 20 20 20 20 18 17
11 11 10 11 15 12 15 19 18 16 17 12 13 13 14 12 12 11 13 11 12 12 14 20 13 16 17 19 20 17 20 17 18 19 20 20 20 19 19 17 17 16 16
15 16 13 13 15 15 19 18 16 15 15 14 14 14 14 12 11 12 14 14 12 14 21 17 16 18 21 22 22 20 16 17 18 18 18 17 16 16 15 16 16 15 16
17 17 19 16 16 15 15 14 14 14 14 13 14 15 14 13 12 14 14 19 18 17 17 17 20 22 20 24 19 17 16 15 15 14 14 15 15 16 16 17 17 18 18
14 17 19 18 16 14 14 14 13 13 13 14 14 13 13 12 13 12 12 12 11 10 15 20 21 19 22 17 15 14 13 13 14 15 15 16 16 17 17 17 18 18 17
15 14 15 16 16 16 15 15 13 13 14 13 13 13 12 11 11 11 11 11 11 13 16 16 15 14 14 14 13 13 14 15 15 15 16 16 17 17 17 18 17 18 18
14 15 16 16 16 17 16 14 13 12 12 12 12 12 12 12 12 12 11 12 12 12 13 14 13 12 11 11 13 14 14 15 16 16 16 16 17 17 17 18 17 17 17
14 14 15 15 16 15 14 12 11 11 11 11 11 11 10 11 11 11 11 11 11 11 11 11 10 10 11 12 14 15 15 15 14 14 14 14 15 16 16 17 18 17 17
17 16 14 14 14 13 12 11 11 11 10 9 9 8 9 9 8 8 8 8 7 8 8 9 9 10 11 13 14 14 14 15 15 15 15 16 17 17 18 19 19 19 18
20 18 16 15 13 13 12 11 10 9 9 8 7 8 7 6 5 6 6 6 7 7 8 8 9 10 12 13 14 15 16 16 17 18 19 18 19 20 20 21 21 21 20
19 19 18 16 14 12 11 10 10 9 8 8 8 8 7 7 7 6 5 6 7 8 8 8 9 9 10 12 14 16 17 18 18 19 19 20 21 21 22 23 23 23 24
18 18 17 15 14 14 12 10 9 7 7 7 7 7 7 8 7 8 8 8 9 9 10 10 11 13 15 15 17 20 19 18 21 22 23 21 27 24 25 25 26 26 25
20 18 17 16 15 13 9 8 7 7 8 8 7 8 8 5 9 12 12 13 14 14 13 14 17 18 17 19 20 21 22 23 25 25 26 24 25 26 27 28 28 28 28
20 17 19 16 15 13 12 11 11 10 8 9 10 11 12 12 12 14 17 16 15 19 19 18 20 20 22 23 23 23 24 25 26 26 26 26 26 27 27 28 28 28 29
19 21 24 22 19 12 14 16 15 15 13 12 12 12 15 18 16 18 23 21 24 21 21 22 23 24 24 24 24 24 25 25 26 27 27 27 28 28 28 29 28 28 28
23 26 26 29 20 20 17 12 9 12 15 15 16 19 20 21 18 24 23 24 18 20 23 24 25 25 25 25 24 25 25 26 27 28 29 29 29 29 29 28 28 28 28

GFSGL_700_spd_042.txt.gz
Wind_Speed
18 16 11 6 3 5 7 9 9 8 8 5 4 3 2 3 5 6 8 9 9 8 7 6 5 2 1 1 1 3 5 6 7 7 10 10 10 11 12 13 16 17 18
12 17 11 7 5 4 6 7 8 10 10 8 5 2 3 4 4 6 7 8 8 8 8 7 5 3 2 1 1 3 4 6 7 7 5 8 12 13 14 15 18 19 19
24 15 11 7 3 3 3 5 9 11 11 8 6 3 2 2 2 3 4 4 5 7 7 7 6 5 3 2 2 2 2 4 5 5 6 9 10 13 14 15 17 18 20
19 12 10 8 5 3 1 5 8 11 12 9 5 3 1 1 1 2 3 4 6 7 6 5 5 5 4 4 4 4 3 4 5 5 7 9 9 12 12 18 18 18 16
17 11 9 9 6 5 3 5 8 11 13 11 6 4 2 1 1 2 2 3 5 6 6 6 6 6 5 5 5 5 5 5 6 7 9 10 12 13 15 14 20 17 16
13 12 10 10 10 6 4 7 10 13 14 13 8 6 4 3 3 3 3 4 4 4 5 6 6 6 6 6 6 7 8 8 8 8 9 10 12 13 15 17 18 19 21
15 15 12 13 12 9 7 9 10 13 16 18 12 7 6 5 4 4 3 3 3 3 4 5 5 6 6 6 6 7 8 9 10 11 12 13 14 15 16 16 18 18 19
14 17 16 16 12 7 9 10 10 12 15 16 15 7 7 6 7 5 4 3 2 2 5 6 6 8 9 10 10 9 9 9 10 11 12 13 14 15 16 17 17 16 17
17 16 17 16 8 10 12 12 13 13 15 15 14 10 8 11 7 8 7 7 7 6 6 6 8 10 11 11 12 12 13 14 13 12 12 12 13 14 13 14 14 15 16
12 7 17 22 18 16 15 14 13 16 17 16 14 13 12 11 9 8 7 7 8 12 10 10 10 14 14 13 16 17 18 16 16 14 13 13 14 14 15 15 15 14 14
14 13 12 16 25 19 20 16 15 15 16 17 16 12 14 13 11 9 10 9 12 14 12 14 13 21 11 14 16 20 17 16 15 14 15 16 17 18 17 17 15 14 12
19 15 14 10 18 27 28 24 17 16 15 16 15 13 13 14 13 11 11 10 10 11 13 14 17 18 15 15 18 18 19 15 14 15 15 16 15 15 16 14 14 14 14
13 10 15 15 13 14 18 19 19 18 17 17 15 15 15 14 14 12 11 12 13 14 16 18 20 19 17 18 18 20 15 15 14 14 13 14 14 15 16 16 16 14 16
14 16 17 17 17 15 16 23 23 18 18 17 14 18 16 14 14 13 13 13 15 18 20 17 17 18 21 19 19 15 14 12 11 11 13 14 15 15 16 16 16 17 16
11 14 15 17 19 19 20 21 19 17 17 15 15 15 15 14 15 13 13 13 14 14 13 14 17 18 18 16 14 12 11 12 12 13 13 15 16 16 17 17 17 17 17
18 19 17 16 15 15 16 18 18 16 16 15 15 15 14 14 14 13 13 14 14 12 13 14 13 13 13 13 12 12 12 12 13 14 15 15 15 15 15 15 15 15 15
17 17 16 16 15 15 15 16 18 17 16 16 15 14 15 15 14 14 14 15 14 13 12 12 12 12 11 10 10 11 13 14 14 14 14 14 13 14 14 13 13 13 13
16 16 16 16 16 16 16 17 16 16 15 15 15 15 15 15 14 15 15 15 14 12 11 12 12 11 11 11 11 12 12 12 12 13 12 13 13 13 13 13 13 13 13
20 18 18 18 17 17 17 17 17 16 17 16 15 15 16 15 15 14 13 12 12 11 11 12 11 11 12 12 13 12 12 12 13 13 13 14 14 14 14 12 12 18 19
27 25 21 21 20 20 19 19 18 18 17 16 16 15 15 14 13 12 12 11 11 12 12 12 12 12 14 13 13 13 14 14 13 12 12 14 14 14 13 14 14 15 15
26 24 23 23 22 20 19 19 18 16 16 16 15 15 14 12 11 12 12 11 11 13 13 12 12 13 13 14 14 15 13 11 13 14 15 17 20 21 17 16 17 17 18
22 23 22 21 21 20 19 19 17 16 16 15 15 14 13 12 12 12 12 12 13 13 15 15 14 12 12 15 17 18 18 20 21 22 22 23 24 24 23 22 21 18 19
19 22 23 23 21 20 18 19 19 16 15 14 13 13 12 11 12 12 14 13 15 14 13 14 17 18 18 19 18 19 21 23 24 25 25 25 25 26 26 25 26 25 25
21 22 24 21 21 20 21 21 18 17 14 11 12 12 14 14 15 17 15 18 15 20 20 17 21 23 21 22 22 23 24 26 26 27 25 25 25 27 27 27 27 28 28
19 19 23 25 26 24 26 24 21 16 14 16 16 16 18 18 16 18 23 21 23 21 23 27 23 23 23 24 25 26 26 26 26 25 26 26 27 27 28 28 29 28 29
18 21 23 28 26 28 31 22 20 21 17 20 19 19 21 19 19 21 22 25 23 23 21 20 21 23 25 26 26 26 26 26 26 26 26 27 27 28 28 28 29 28 29

GFSGL_700_spd_045.txt.gz
Wind_Speed
10 14 17 7 4 1 4 6 7 7 7 5 3 2 2 1 2 2 4 5 6 6 5 3 2 1 0 1 1 2 4 6 5 6 6 7 10 8 6 9 13 14 16
9 12 14 9 7 3 1 4 7 8 9 7 4 1 1 2 1 1 2 3 6 6 5 3 2 1 1 1 2 3 4 5 5 6 6 6 8 8 10 13 15 16 17
11 18 14 11 7 5 1 5 8 10 9 6 4 3 1 1 2 2 2 3 4 6 6 5 4 3 2 1 2 2 3 5 6 5 4 5 5 8 12 14 12 16 16
25 15 12 10 7 3 2 5 7 9 10 9 5 4 3 3 2 2 3 3 5 5 5 5 4 3 3 3 3 3 3 4 5 6 6 7 7 10 11 13 15 16 17
13 14 13 10 8 4 2 3 6 10 12 13 7 4 4 3 3 4 4 4 4 4 4 4 5 5 5 6 6 6 6 7 7 7 7 8 9 10 12 13 16 17 18
16 12 11 9 10 7 6 4 7 9 11 12 8 4 4 5 5 5 5 4 3 3 2 3 5 5 7 8 8 8 9 9 9 9 10 11 12 13 14 15 16 17 18
21 19 13 12 15 11 9 7 8 10 12 13 13 6 5 5 6 6 5 5 4 3 3 5 6 7 8 9 9 9 10 10 10 11 12 12 13 14 15 15 17 18 19
26 21 18 13 14 13 10 9 9 10 11 14 13 9 6 7 6 8 7 6 4 5 6 7 5 7 10 10 9 9 10 11 11 12 12 13 14 15 15 15 15 16 16
30 23 14 17 17 15 13 14 13 11 12 13 14 13 10 8 9 7 9 9 9 9 8 8 8 10 10 14 12 12 12 15 12 11 11 11 11 12 13 14 15 14 11
22 17 13 13 17 19 11 16 14 14 15 14 15 14 12 10 11 9 8 10 10 10 14 12 11 11 14 15 11 14 16 16 13 12 11 11 12 13 13 12 12 12 10
13 11 14 15 15 23 20 22 18 17 17 19 15 14 12 11 12 11 10 11 10 14 16 13 14 11 16 14 14 15 16 15 13 11 12 12 12 12 9 9 9 9 10
1 11 16 13 9 11 16 23 24 25 23 21 17 14 12 13 13 14 13 12 12 13 13 13 15 17 16 14 13 15 14 12 11 10 9 12 11 12 14 13 12 12 12
11 11 9 19 18 17 22 23 22 20 20 22 18 16 14 12 14 14 13 12 12 14 15 17 18 20 14 14 15 13 11 11 8 8 9 11 12 12 13 14 15 13 14
12 12 16 20 21 23 22 21 17 20 20 22 19 18 17 15 14 14 14 14 14 15 14 14 15 13 15 15 13 10 9 8 8 9 10 12 14 15 15 15 15 14 13
17 17 18 21 20 24 23 22 23 23 22 20 20 18 16 17 14 15 15 14 15 15 16 12 13 14 15 12 11 10 10 9 9 10 11 12 13 13 13 14 13 12 11
16 17 18 19 20 19 18 19 21 22 21 21 18 18 17 17 16 17 15 16 16 15 13 12 12 8 8 11 11 12 10 10 11 11 12 11 11 11 11 12 12 11 10
17 17 18 19 16 16 17 17 19 19 20 21 21 20 18 19 17 17 17 17 16 15 12 11 8 11 11 10 10 9 12 13 12 11 11 11 10 11 11 10 11 9 9
20 19 19 19 19 18 18 18 19 20 22 22 21 20 19 19 19 19 19 18 16 14 12 8 11 13 12 12 11 11 12 14 12 11 12 11 12 11 9 10 8 12 15
24 24 23 21 20 20 20 20 21 22 23 23 21 21 20 20 21 20 18 16 15 14 12 10 15 14 13 13 13 13 12 12 13 14 12 11 10 10 10 10 12 17 20
27 26 25 26 27 25 24 24 25 24 23 23 20 20 20 20 19 17 15 14 14 10 12 12 15 15 14 15 16 14 12 12 13 10 10 12 12 12 12 13 12 12 15
28 28 28 26 26 25 25 23 22 24 23 22 20 20 19 18 17 16 15 14 12 12 15 14 12 14 14 15 13 12 8 8 12 14 12 16 19 21 19 18 19 13 16
23 25 29 24 24 26 24 23 23 22 20 19 20 19 18 16 13 14 13 13 13 14 14 16 14 12 13 13 13 13 14 15 16 19 19 22 24 23 25 22 18 20 18
21 20 21 20 24 25 25 20 20 17 16 14 15 18 17 14 10 11 11 11 12 13 16 16 14 14 17 24 22 22 20 20 22 25 25 25 27 27 27 26 26 26 25
21 21 23 21 27 28 25 21 17 17 17 17 17 19 18 16 12 12 15 15 19 21 22 22 20 23 27 21 24 24 23 23 26 28 27 27 27 27 27 27 27 27 27
20 19 20 23 25 27 27 23 16 23 24 27 24 22 17 19 17 16 18 25 20 22 26 26 26 24 27 28 28 24 24 26 27 28 28 28 28 27 27 27 27 28 28
22 23 22 21 23 20 20 30 36 38 31 23 21 22 22 22 21 21 21 23 25 27 30 28 29 26 24 24 25 24 28 29 29 28 27 28 28 27 28 28 28 27 28

GFSGL_700_spd_048.txt.gz
Wind_Speed
10 13 11 7 5 2 2 3 6 8 7 5 2 1 1 1 1 3 5 5 4 4 3 2 1 1 1 1 2 0 3 4 4 4 6 6 7 9 5 4 9 11 12
11 14 12 8 6 3 1 2 7 10 9 6 4 3 1 1 1 2 3 4 5 6 6 6 6 4 3 3 4 3 3 3 4 5 8 5 5 7 5 9 9 13 13
6 5 10 9 6 3 1 4 6 7 8 5 3 2 1 1 1 2 2 3 3 4 5 4 3 3 3 3 3 3 3 4 5 5 5 3 6 7 8 10 12 13 15
2 13 11 9 6 3 2 1 5 9 10 8 4 2 2 2 3 3 4 4 5 5 5 4 4 4 4 3 3 3 4 5 5 6 6 5 8 10 8 14 15 13 15
16 11 10 8 7 5 5 3 3 8 11 11 6 2 2 3 4 4 4 5 5 4 4 4 4 5 5 6 6 6 6 6 6 6 6 5 7 7 10 11 12 13 13
15 12 10 11 9 9 8 6 4 7 8 11 10 5 2 3 4 5 4 4 4 3 2 3 4 6 7 8 9 9 8 9 9 9 8 8 9 9 10 11 12 14 13
13 21 15 16 15 14 12 10 5 6 7 10 10 9 6 3 4 5 5 5 4 4 3 4 5 4 7 9 11 10 10 10 10 10 11 12 12 11 12 13 13 15 15
19 22 27 18 14 15 14 11 6 7 8 10 10 10 8 6 7 5 6 6 6 6 6 8 8 8 9 11 13 11 11 11 13 12 11 11 12 12 12 12 13 14 14
23 25 26 24 16 15 16 16 13 9 9 11 12 10 9 7 7 7 6 8 9 10 10 9 9 9 10 10 13 9 11 11 11 10 10 11 11 12 13 13 13 14 14
21 22 25 28 27 20 20 17 13 10 11 10 13 14 11 8 7 8 8 7 10 11 12 10 11 10 11 13 14 12 11 12 9 11 10 10 12 11 11 11 11 11 13
14 16 11 13 9 13 16 17 13 13 12 14 16 16 15 12 9 10 11 11 11 12 10 13 13 10 11 15 15 14 13 13 11 9 9 7 9 7 3 7 9 8 12
13 11 10 14 14 11 11 12 15 14 17 22 22 19 17 15 10 10 11 11 12 12 12 14 12 12 12 15 14 13 12 10 8 8 6 7 7 10 11 8 9 9 10
14 13 10 14 14 14 15 13 14 19 23 23 15 15 19 17 12 11 13 13 14 14 13 14 15 16 16 12 11 11 10 8 8 6 7 9 10 9 11 11 11 10 10
14 13 14 14 11 17 20 20 21 21 23 23 20 19 18 18 14 13 14 15 14 14 14 13 14 14 12 11 11 8 8 7 6 7 9 10 11 12 13 11 11 10 11
13 17 18 20 20 22 23 25 26 25 26 27 24 22 20 19 16 14 17 16 16 15 16 15 15 11 13 14 10 8 7 6 7 8 10 10 11 12 11 11 11 11 10
19 22 22 21 20 20 20 21 22 21 23 24 22 22 24 20 19 18 18 17 17 18 16 15 13 13 14 12 12 12 9 7 9 10 11 11 11 12 10 12 11 10 11
23 24 22 22 20 20 19 19 19 21 20 20 22 27 22 21 22 21 19 20 19 18 16 14 14 14 10 16 13 11 14 10 12 13 12 12 12 11 11 11 10 10 15
26 26 27 27 25 21 21 20 20 20 20 21 22 24 26 24 23 22 22 21 19 18 17 16 15 12 20 16 14 13 16 14 15 13 12 13 13 12 9 9 8 10 18
30 30 31 29 30 28 24 23 22 22 22 23 25 26 25 24 24 23 22 21 19 18 16 15 12 19 24 19 17 16 15 16 16 15 15 13 11 12 8 7 9 12 14
24 24 26 29 29 30 29 27 27 26 27 27 28 28 27 26 24 22 21 20 18 16 15 14 15 24 24 19 19 16 15 15 14 11 10 10 16 15 15 17 19 18 19
24 24 22 22 23 26 26 23 20 17 19 24 26 21 20 22 22 20 19 17 16 16 12 15 20 23 18 17 17 15 14 9 7 12 14 17 20 23 23 25 21 22 19
25 25 25 25 20 18 22 20 15 14 18 18 24 30 21 19 20 18 17 17 17 17 16 23 20 19 18 17 18 19 16 8 17 20 26 28 23 25 27 26 25 24 23
25 24 24 24 20 20 22 20 21 23 26 23 25 24 18 16 14 11 15 14 13 14 17 22 16 18 19 22 25 27 23 25 28 27 25 26 27 27 28 27 27 26 26
25 25 25 23 19 21 24 23 24 19 15 16 21 26 21 18 18 15 20 18 18 18 20 16 16 19 20 28 29 28 29 26 28 30 28 29 29 29 29 28 28 28 28
25 26 26 24 23 19 22 24 29 33 28 30 27 29 28 23 22 11 18 22 25 28 27 22 27 25 24 28 30 32 28 28 27 28 29 30 30 30 30 29 29 29 28
33 29 26 24 24 20 20 23 25 23 24 25 32 40 40 33 23 24 28 28 29 26 27 30 29 29 31 25 27 25 25 26 27 29 29 30 31 31 30 30 29 29 28

GFSGL_700_spd_051.txt.gz
Wind_Speed
10 8 6 2 4 2 2 6 7 6 5 2 0 1 2 1 2 2 3 5 7 7 6 4 2 0 0 1 2 1 2 4 4 4 4 2 3 2 5 1 6 9 10
11 6 8 7 5 2 1 3 5 5 5 3 1 2 3 2 1 1 1 3 4 5 4 4 3 2 1 1 0 1 2 2 3 4 6 6 7 6 4 8 9 10 13
10 2 6 12 8 6 2 2 4 6 7 5 3 1 2 2 1 1 1 1 3 3 4 4 3 3 3 3 3 2 1 1 2 4 5 4 6 7 9 10 9 14 16
3 9 11 10 8 6 5 2 2 6 7 6 3 2 1 4 3 3 1 2 3 3 3 3 3 3 3 3 3 2 2 2 3 3 5 4 8 14 15 16 14 12 10
1 2 7 6 8 9 7 3 2 5 6 7 5 1 3 3 2 2 2 2 2 1 2 2 2 2 2 1 2 2 2 2 3 3 4 6 7 7 8 9 10 10 11
4 7 7 11 12 12 10 7 4 6 5 8 7 2 1 1 2 3 2 2 2 1 1 1 1 1 2 3 4 5 4 4 4 5 4 5 6 7 8 9 10 11 12
9 12 13 13 18 17 15 11 8 6 5 5 6 4 4 3 1 3 4 3 3 3 2 2 3 3 5 6 7 6 3 4 5 7 7 7 7 7 8 9 10 10 10
11 16 19 22 24 24 20 14 10 9 4 4 6 5 3 2 3 2 3 4 4 5 6 5 5 5 6 7 9 9 7 8 8 8 7 7 8 8 8 10 11 12 13
13 18 23 27 26 30 25 20 14 13 8 5 2 6 6 4 4 3 2 4 5 7 7 8 8 8 9 9 9 8 7 8 10 9 9 10 10 9 10 12 11 12 12
8 19 14 16 23 19 23 18 20 18 12 8 2 5 7 6 5 5 4 4 5 7 8 10 9 8 9 12 10 11 10 11 12 11 11 10 11 11 10 10 10 10 11
10 13 15 13 16 12 13 16 23 9 10 8 8 9 11 9 7 8 6 6 6 6 9 10 9 10 10 10 11 11 10 11 10 10 12 12 9 4 7 9 10 11 11
9 9 12 12 13 15 14 17 7 13 9 9 12 12 10 9 10 10 10 9 8 7 8 10 11 10 11 13 14 14 13 13 12 12 12 10 6 7 6 7 10 11 12
9 10 9 11 11 12 13 13 9 12 12 14 15 14 11 12 13 13 13 12 10 9 9 10 12 13 15 14 14 13 13 12 12 11 10 9 8 9 10 12 12 11 12
11 12 13 14 14 15 15 16 19 22 22 19 21 20 18 15 17 15 15 14 13 12 12 12 13 14 15 14 12 12 11 11 11 11 10 9 10 12 11 11 11 11 12
14 15 13 14 17 17 19 20 20 20 21 22 24 25 25 22 16 16 16 17 15 16 16 14 15 16 15 13 12 10 11 11 10 10 10 11 12 12 11 11 10 10 11
17 20 22 23 23 20 19 19 19 19 19 21 21 22 25 21 18 17 19 19 17 17 17 16 16 16 16 15 13 13 12 8 10 11 11 12 13 12 12 11 10 10 9
19 21 24 27 27 24 23 22 21 20 21 20 19 19 20 18 23 26 22 19 19 19 18 17 17 17 17 17 14 12 11 11 12 12 12 12 13 12 11 11 10 9 10
23 26 29 32 32 30 27 25 25 23 22 21 20 21 18 27 26 23 24 24 23 20 19 19 19 17 19 19 12 14 16 15 13 13 14 14 14 12 11 10 7 9 10
27 24 24 25 27 28 30 29 28 28 26 23 22 22 22 20 24 30 30 24 24 22 20 20 19 19 20 16 17 19 19 18 15 17 17 14 14 12 9 10 10 12 14
23 21 22 22 23 25 24 25 28 28 28 27 25 23 24 29 31 29 25 29 23 21 20 19 20 20 20 18 20 20 21 19 18 17 15 15 11 9 14 12 15 17 19
17 21 24 23 22 23 23 22 20 18 20 19 19 20 24 20 20 23 23 23 21 19 20 19 21 21 21 19 23 19 17 17 15 18 12 9 15 17 21 22 24 25 22
23 24 27 26 24 21 22 19 15 19 22 22 20 19 23 23 25 21 20 21 19 18 20 22 23 20 18 24 24 20 18 15 16 15 17 18 20 25 28 29 28 27 25
29 28 28 27 24 24 20 15 24 16 19 23 24 28 26 30 23 20 19 23 17 14 19 23 18 23 29 31 27 24 22 22 20 19 21 24 27 31 31 31 30 28 27
30 25 24 24 24 25 23 18 23 26 24 26 32 28 21 21 19 19 22 25 19 16 18 20 18 20 23 29 30 28 27 29 28 25 30 32 33 36 35 33 31 29 29
29 28 25 28 23 25 25 21 19 25 24 30 31 31 28 28 31 30 29 28 30 26 22 24 25 23 22 23 24 25 25 29 31 31 35 37 35 35 34 33 31 29 28
31 27 27 26 28 23 22 24 20 23 27 25 27 26 33 34 35 36 35 30 24 26 31 33 35 34 36 33 27 28 29 30 28 30 32 31 32 32 32 31 31 30 29

GFSGL_700_spd_054.txt.gz
Wind_Speed
13 6 5 6 4 1 1 2 5 5 3 3 5 5 6 6 4 3 2 2 3 4 4 4 4 2 2 2 3 4 6 7 8 7 7 7 6 7 5 4 6 7 8
14 5 7 7 7 5 2 1 4 6 6 3 4 4 4 5 5 6 5 2 2 2 2 3 4 2 2 2 3 4 5 6 7 7 8 9 10 9 6 8 10 10 9
13 3 7 10 7 4 3 2 4 6 7 6 4 3 5 6 6 5 4 3 2 1 1 0 1 2 2 2 2 3 4 5 6 7 9 8 13 10 11 10 10 13 16
8 3 8 9 8 7 5 4 4 6 6 6 3 5 5 6 6 5 4 3 3 2 1 2 3 3 4 3 2 2 2 4 5 7 8 8 10 13 14 14 13 18 15
4 3 7 9 9 9 9 8 6 7 7 5 5 6 5 7 8 6 5 3 2 2 2 3 3 2 1 2 3 4 4 5 5 6 7 7 9 13 16 12 11 11 14
4 7 7 12 13 13 13 13 10 9 6 6 5 2 4 5 6 5 5 5 5 4 3 3 2 2 3 3 4 5 7 6 6 6 5 6 6 8 9 10 11 12 13
7 8 10 13 19 20 23 22 15 12 8 5 4 3 3 3 4 6 7 6 5 5 5 5 4 4 5 5 5 6 5 5 6 5 7 8 8 9 10 10 11 12 12
10 11 14 18 20 23 24 26 19 20 14 8 5 2 3 3 3 4 6 6 6 6 7 8 8 7 7 7 7 6 5 5 5 6 7 7 8 9 11 11 11 12 12
8 8 14 18 22 26 28 30 21 26 20 14 8 4 2 2 3 2 2 5 7 7 8 10 10 10 10 10 9 9 8 8 8 8 9 10 10 11 11 11 12 13 13
7 8 11 9 16 9 12 10 16 17 29 18 14 6 2 3 3 4 2 4 5 7 9 10 11 11 9 10 10 10 10 10 10 10 10 10 10 12 11 10 10 11 11
6 9 10 8 8 10 14 17 26 7 21 15 14 10 5 8 6 4 5 6 6 8 10 10 9 10 11 11 11 12 12 11 12 11 10 10 11 12 11 10 10 11 12
8 8 8 9 8 9 10 10 16 20 2 11 10 10 6 9 8 8 7 8 7 9 10 10 11 10 11 12 12 13 13 12 12 11 10 9 10 11 10 12 11 12 13
9 11 11 10 10 11 11 11 12 10 8 12 4 0 14 5 9 13 13 12 13 11 12 12 12 13 12 12 13 14 14 13 13 12 11 10 11 12 11 11 11 12 14
10 10 10 13 11 13 15 16 16 18 18 12 10 13 12 13 12 18 18 18 17 16 15 15 14 14 14 14 15 14 15 16 14 13 13 12 12 12 12 13 14 14 13
12 13 15 16 18 18 17 17 17 17 15 15 14 17 19 21 17 20 20 19 19 19 18 17 17 17 17 15 14 15 16 15 14 14 13 13 14 14 14 14 14 14 12
14 16 18 19 21 22 23 22 21 20 19 18 18 19 18 20 15 19 20 18 18 19 20 19 20 20 18 17 16 16 16 15 16 16 14 15 15 15 15 15 14 13 13
16 19 22 24 25 26 28 28 25 24 23 22 21 20 20 18 22 18 22 21 23 23 21 21 21 21 19 18 17 17 16 17 16 13 15 16 15 15 15 15 15 15 13
21 24 26 29 29 29 27 27 28 27 26 26 25 23 22 20 20 18 30 29 29 22 22 21 23 22 20 20 18 17 19 15 14 12 16 16 15 16 17 17 16 14 10
27 24 23 23 23 23 22 22 23 24 27 27 27 26 24 24 20 26 33 27 27 28 28 24 23 22 22 22 21 21 21 15 12 14 19 19 19 18 17 16 14 10 9
19 18 17 19 20 21 23 23 23 23 22 22 23 24 23 25 22 25 26 29 33 33 32 25 26 25 26 26 24 22 17 14 18 17 19 21 21 20 18 13 8 11 14
15 15 18 21 21 21 20 21 22 23 22 16 15 17 19 20 19 22 20 20 24 25 27 28 26 26 30 29 25 21 14 20 21 18 18 21 22 19 12 14 15 18 23
22 22 21 22 24 23 22 21 21 23 19 15 14 18 19 19 18 21 21 22 20 20 23 24 26 27 28 28 22 16 17 20 21 19 17 14 15 15 17 19 20 25 30
27 25 24 23 23 24 20 20 21 21 18 19 18 18 16 20 23 27 29 26 24 22 23 24 23 24 27 27 23 22 23 24 25 24 20 19 20 22 25 25 25 31 36
30 29 28 24 25 24 23 24 23 22 19 17 20 23 15 21 24 32 34 31 25 25 22 25 30 35 34 31 30 29 27 29 32 30 30 27 26 25 27 30 34 36 37
29 31 29 30 28 26 27 26 28 26 20 21 23 23 23 25 27 31 30 28 28 30 27 27 31 25 22 28 27 25 27 32 26 28 26 27 30 32 34 37 40 39 37
25 25 27 29 28 25 24 24 26 27 25 24 28 27 32 24 30 29 30 35 32 34 34 37 39 34 34 30 34 35 35 36 34 28 28 26 34 39 36 37 39 38 37

GFSGL_700_spd_057.txt.gz
Wind_Speed
15 15 5 5 4 4 2 3 3 5 5 5 3 5 7 8 7 6 5 4 3 2 3 4 7 6 5 5 6 8 7 8 8 7 8 11 10 12 11 10 8 6 8
15 11 3 7 6 5 3 5 6 6 6 5 3 4 7 9 9 8 5 3 2 2 3 3 4 5 6 6 7 6 6 8 8 8 9 10 13 13 12 7 11 12 11
11 10 2 7 8 7 5 6 6 7 8 6 4 5 8 9 9 8 7 5 5 5 5 6 7 6 7 6 7 7 8 9 10 10 11 13 12 12 10 10 15 10 10
7 6 4 6 8 10 9 9 8 7 7 7 6 6 7 9 10 9 9 9 8 7 6 7 7 7 8 8 8 8 9 9 10 11 12 13 12 11 10 11 17 15 16
6 7 5 7 11 14 13 12 11 10 9 9 9 9 8 9 11 11 10 10 9 8 7 7 7 6 6 6 6 6 7 9 10 11 12 13 13 14 19 17 17 17 14
7 8 10 10 11 16 18 18 14 11 11 11 9 8 7 9 11 11 10 10 9 8 8 7 7 6 6 6 6 7 8 9 10 10 10 10 10 13 12 13 15 13 14
8 8 8 11 15 16 19 23 27 21 16 12 11 8 7 8 10 11 11 11 11 10 9 9 8 7 8 7 7 6 7 7 8 9 9 9 11 11 12 13 13 13 13
11 10 9 11 12 15 18 23 31 18 27 21 14 10 8 8 8 9 13 13 12 11 12 11 11 10 9 9 9 9 7 7 8 8 8 9 10 10 11 13 13 13 13
12 11 6 8 10 10 10 13 18 20 16 26 22 16 10 9 9 8 8 11 12 12 13 13 12 12 11 12 12 11 10 9 9 9 9 9 10 11 13 13 14 14 14
11 10 10 6 7 7 7 10 19 19 22 17 27 20 13 8 6 8 9 8 10 12 13 13 13 13 13 12 12 12 10 10 11 10 9 9 10 11 12 14 14 14 14
11 10 10 10 10 9 12 13 17 20 16 20 24 19 16 10 9 8 10 10 8 9 10 10 12 12 12 13 14 13 11 12 12 11 10 10 11 11 12 12 12 13 13
11 10 11 11 12 11 13 15 16 13 15 13 12 16 19 14 8 8 8 11 10 10 11 11 12 13 12 13 13 14 15 15 14 13 12 12 12 11 11 13 14 14 15
11 10 9 12 14 15 14 14 16 16 13 10 11 7 18 6 6 6 10 11 12 14 14 15 15 15 14 13 15 15 16 17 15 14 13 12 12 12 13 14 16 16 16
10 11 11 12 13 14 15 14 15 15 14 13 11 8 6 12 19 22 21 20 18 18 18 18 19 18 17 17 16 16 16 16 16 16 15 14 14 15 16 16 15 15 15
12 13 15 16 17 18 19 20 19 17 17 16 14 16 19 18 20 24 22 23 25 25 23 22 21 20 20 20 19 19 18 18 18 17 16 16 17 17 17 17 17 16 17
14 16 17 17 19 20 22 24 25 25 24 22 21 20 19 21 23 19 25 24 24 24 22 21 22 22 23 23 22 21 19 19 18 19 18 19 19 19 18 19 19 19 19
16 18 20 23 25 27 29 30 31 31 31 28 27 25 24 22 21 20 26 28 25 29 26 23 22 24 24 24 24 23 21 20 21 19 19 20 20 19 20 20 20 21 20
20 23 26 27 26 27 28 27 26 25 23 23 26 28 27 27 25 22 25 26 27 30 31 27 22 22 24 25 25 25 22 22 21 19 19 21 20 19 20 20 21 23 21
25 31 30 28 22 20 21 21 20 20 20 21 21 22 26 28 28 25 24 29 27 32 27 23 25 23 24 26 27 27 25 25 23 23 19 20 20 20 22 22 22 21 19
26 24 23 20 19 20 21 20 19 19 17 16 18 20 21 22 24 26 26 24 30 31 28 29 30 27 34 25 27 30 28 26 25 22 18 19 20 22 23 22 21 19 17
21 18 18 18 19 22 22 21 20 19 19 15 13 12 14 16 16 20 22 25 28 30 31 32 34 31 30 33 32 36 31 28 28 22 21 20 21 23 21 20 16 18 18
23 20 22 22 22 22 24 24 24 21 18 15 14 14 16 15 16 19 20 20 23 27 28 25 30 32 34 37 35 33 34 30 25 31 18 20 21 19 16 17 17 16 16
27 28 29 26 25 24 26 24 25 24 24 20 16 18 21 19 20 19 19 21 24 26 26 26 28 28 28 29 28 30 32 33 34 34 24 25 25 23 22 22 22 26 29
27 26 29 28 28 27 26 25 25 25 24 23 23 23 20 20 20 23 22 24 25 24 23 20 22 21 22 22 25 32 34 38 38 36 28 31 28 27 31 31 30 29 30
24 24 24 23 21 25 25 28 28 27 23 24 21 22 23 25 28 27 25 26 25 26 27 28 26 24 21 27 30 33 37 41 38 41 36 30 27 30 34 35 34 33 35
19 19 17 17 17 16 21 23 25 24 21 24 27 23 24 24 26 32 34 31 27 30 25 27 29 34 32 36 41 42 34 35 34 35 36 38 36 42 42 44 37 36 36

GFSGL_700_spd_060.txt.gz
Wind_Speed
12 13 5 2 5 3 2 3 3 4 5 4 5 6 6 8 8 7 7 6 5 6 7 8 9 9 8 9 10 12 11 10 10 10 11 13 12 11 9 9 8 8 7
11 12 5 4 5 4 4 4 4 6 6 5 4 5 6 7 7 7 6 6 5 5 6 7 8 8 10 10 11 11 11 11 11 11 11 11 12 12 11 12 12 12 11
9 9 7 3 7 7 7 6 6 6 7 9 6 6 7 7 8 9 9 9 10 8 7 7 7 8 8 10 10 11 10 11 12 12 12 13 14 15 14 13 9 13 13
8 7 6 5 7 8 9 10 10 9 8 9 8 7 8 8 10 11 11 12 11 10 8 8 9 9 10 11 11 11 9 10 11 11 13 13 14 11 15 13 11 13 18
8 7 5 5 7 10 12 15 15 13 15 13 11 10 11 11 11 12 13 12 12 11 10 9 8 8 8 8 8 8 8 10 11 12 13 14 15 15 10 14 16 21 15
7 7 7 8 9 11 13 15 20 21 24 18 21 14 10 12 12 12 12 12 12 11 11 11 10 9 8 8 9 9 10 12 14 15 15 15 15 15 13 13 17 19 16
9 8 8 8 11 14 15 18 20 22 22 27 24 20 13 11 13 13 13 13 13 12 12 11 11 10 9 9 9 9 9 10 11 11 12 12 12 11 12 12 13 14 14
10 8 8 7 10 12 14 11 10 14 21 23 25 21 18 14 11 11 14 15 15 14 13 13 12 11 11 11 11 11 10 9 8 9 9 10 11 11 11 12 13 14 14
11 10 7 7 7 7 8 10 15 19 25 15 21 23 20 16 14 12 11 13 15 14 14 15 14 14 14 13 13 13 12 10 10 10 10 10 11 12 13 14 14 14 14
11 8 7 7 8 9 10 11 14 20 21 20 15 21 26 17 14 11 12 10 11 14 15 16 15 15 15 15 15 13 12 11 10 11 11 12 12 13 14 14 14 15 15
9 8 8 9 10 10 11 14 15 18 20 19 20 13 24 16 14 13 11 12 11 11 13 14 15 15 15 15 14 13 13 12 13 13 12 13 14 14 14 14 14 14 14
9 9 8 9 12 13 15 15 17 17 19 17 16 14 11 18 16 11 15 14 13 11 12 13 13 14 14 14 14 13 14 14 14 14 14 14 16 16 16 16 15 14 15
9 9 8 11 12 13 15 16 17 19 18 18 13 9 11 13 25 16 12 15 12 11 14 15 14 15 16 15 16 15 14 15 16 16 16 17 19 18 17 17 16 16 16
8 9 13 14 15 15 16 17 19 20 20 18 16 13 12 5 4 16 18 15 13 15 16 19 18 18 19 19 18 18 17 17 17 17 18 19 20 19 19 18 18 17 18
12 14 14 15 15 16 17 20 21 23 22 22 21 18 18 19 18 18 19 14 29 23 28 30 26 28 26 23 23 22 22 21 20 20 20 21 21 21 20 20 19 19 19
16 17 15 15 16 17 19 23 28 30 32 32 30 27 23 22 23 26 24 25 29 29 30 25 34 29 24 24 24 25 25 24 22 22 23 22 22 22 22 21 21 20 19
17 15 15 15 17 21 26 29 33 35 35 35 30 28 29 28 26 25 27 29 28 32 31 33 29 27 24 22 25 26 27 26 25 25 24 24 23 23 23 22 22 21 20
17 18 19 19 21 25 28 30 31 32 29 27 26 25 24 25 28 27 27 28 29 32 35 31 28 29 29 27 24 27 26 27 27 26 27 26 24 25 25 24 22 21 21
18 20 21 22 23 25 23 25 26 25 23 20 20 21 22 23 24 25 27 26 25 31 33 33 28 31 35 37 28 22 23 29 29 29 26 27 24 26 26 24 23 22 23
18 20 21 22 23 24 23 23 23 21 21 20 19 20 20 21 21 22 22 25 23 29 31 27 30 32 38 30 37 32 30 35 34 31 29 28 26 25 24 25 23 22 22
23 24 23 23 24 23 25 26 26 22 21 19 19 20 21 18 16 17 17 16 19 25 25 33 28 27 33 33 41 35 33 32 31 31 30 30 25 24 23 24 25 22 21
28 26 25 25 25 27 27 28 28 26 24 21 19 18 21 21 22 19 18 18 22 20 20 23 26 26 27 32 33 33 41 39 37 31 34 33 31 32 33 28 26 23 21
29 28 26 28 29 29 29 29 29 28 26 24 23 20 20 21 22 25 26 26 25 23 24 26 26 28 31 31 31 31 31 35 35 35 39 37 35 45 43 32 31 30 28
27 28 27 26 26 26 25 25 26 24 27 25 24 23 24 23 22 24 25 29 29 29 29 28 21 21 20 24 22 29 34 30 28 29 32 38 44 47 40 36 38 36 32
21 23 23 23 24 24 23 24 25 21 22 22 22 24 24 25 26 25 27 29 30 32 32 28 27 27 25 27 32 26 29 30 30 32 41 47 41 43 40 35 38 38 34
13 12 11 13 15 17 18 18 18 21 18 20 23 25 26 25 26 27 30 29 33 31 33 32 30 34 30 31 32 36 36 38 44 44 44 44 45 44 40 40 37 40 43

GFSGL_700_spd_066.txt.gz
Wind_Speed
6 7 4 2 6 6 4 3 2 4 5 5 5 6 9 12 14 15 17 16 14 13 13 14 14 14 15 16 14 16 16 14 14 12 8 11 11 10 10 9 10 10 10
6 7 4 1 4 5 5 5 5 6 7 6 6 5 6 10 13 14 16 15 14 14 11 10 11 13 13 14 13 14 14 15 15 12 10 10 10 10 12 12 11 11 11
8 6 6 2 3 5 5 7 8 9 9 10 10 10 8 8 10 14 16 16 15 13 12 12 10 10 11 13 12 13 14 15 13 11 13 9 12 13 13 13 14 13 15
9 7 7 6 4 5 6 9 11 12 13 12 12 11 12 13 13 13 15 16 16 15 15 13 11 11 12 11 11 12 14 14 16 14 15 14 14 13 15 15 14 13 17
11 9 7 8 7 5 7 10 12 14 13 13 17 20 21 17 14 13 16 16 17 17 16 14 13 12 12 12 13 13 14 14 14 15 16 16 16 16 14 17 15 14 16
14 12 9 9 8 7 8 11 13 13 12 11 17 24 21 18 15 15 14 17 17 17 15 15 14 13 12 12 12 13 13 13 13 13 14 14 18 15 19 18 17 17 17
15 12 11 9 9 8 6 6 3 2 4 8 16 17 16 20 16 18 15 15 17 17 16 15 15 14 14 13 13 12 13 13 13 14 16 17 17 17 19 20 16 17 23
16 13 12 11 10 9 5 4 5 5 7 11 16 20 16 19 20 22 19 14 16 17 17 16 16 15 14 14 13 12 12 13 14 15 15 16 15 16 14 20 17 13 18
16 15 15 13 11 11 8 8 9 9 8 11 15 18 22 12 21 19 19 14 15 17 18 17 16 16 16 15 15 15 14 15 15 16 16 15 15 16 16 18 18 20 20
14 17 16 14 14 12 12 13 11 10 11 12 13 14 19 19 11 17 21 17 16 15 17 18 18 17 17 17 17 17 17 17 17 17 17 18 18 17 18 19 20 20 18
15 16 17 18 17 16 15 13 12 11 12 13 13 13 14 16 14 12 18 16 14 15 12 15 18 18 18 18 18 18 18 17 17 17 17 17 17 18 19 19 21 21 22
25 25 20 20 20 20 18 15 15 11 11 12 14 12 13 14 13 10 5 16 18 19 14 12 12 13 15 17 17 16 16 16 16 18 19 19 19 20 20 21 21 23 24
28 32 35 24 22 23 21 18 17 14 13 14 14 15 15 15 14 10 7 9 19 20 14 13 15 14 16 15 16 16 16 16 18 18 20 22 22 23 23 21 23 23 24
27 28 36 23 23 24 22 20 20 18 17 16 16 17 19 19 17 14 12 9 6 16 23 26 23 20 19 17 16 14 16 16 18 20 21 24 26 25 23 23 24 25 25
31 27 37 35 26 23 23 22 22 19 18 19 19 22 21 21 22 19 17 20 18 16 19 22 27 32 31 27 28 29 30 29 26 24 26 28 29 31 26 25 28 28 27
24 28 27 30 34 26 24 22 21 19 19 21 20 23 24 19 19 19 18 20 23 24 28 26 26 27 29 32 37 33 33 32 30 33 31 29 30 32 32 30 29 29 29
25 23 27 30 24 23 23 21 20 20 20 22 21 21 20 17 15 15 16 17 18 23 27 27 28 34 29 31 31 35 40 35 36 38 33 27 34 34 35 32 32 31 30
25 27 27 23 21 18 19 19 19 20 21 23 20 19 16 14 13 11 11 12 15 18 21 25 28 34 32 30 31 34 34 39 35 34 36 36 37 41 36 31 29 31 31
21 17 12 12 13 13 16 19 20 18 18 19 20 19 15 14 13 13 13 12 12 12 13 16 21 24 26 28 31 33 31 28 29 33 32 40 44 34 39 32 34 35 32
10 12 11 9 13 15 16 16 13 13 13 12 14 11 19 16 17 15 16 15 15 15 15 15 16 17 19 21 24 29 29 28 31 32 30 29 29 34 36 34 37 38 34
8 10 11 14 17 20 20 18 14 14 14 15 18 19 21 19 18 17 16 17 17 18 19 18 18 19 21 22 23 24 25 26 29 30 31 31 28 32 34 36 41 41 36
16 18 18 18 19 18 19 19 17 16 17 17 18 20 21 22 22 20 19 19 19 19 20 19 19 20 23 25 28 29 29 31 31 31 27 27 28 29 29 36 37 47 49
13 14 15 16 18 18 17 17 13 10 13 12 14 18 23 19 20 19 20 20 20 21 22 22 22 24 26 27 31 32 32 33 36 35 35 34 34 32 31 30 35 39 39
12 13 14 16 17 17 17 13 12 15 18 19 17 15 15 16 17 17 18 21 24 24 23 22 25 27 30 31 31 33 33 33 39 43 42 40 40 38 41 38 33 38 39
9 10 10 10 10 10 11 12 14 13 11 13 12 13 13 15 18 21 22 24 26 26 26 27 25 25 25 24 24 27 30 32 33 29 32 30 32 37 37 37 39 39 38
4 3 2 1 1 2 3 5 7 8 9 8 10 11 15 15 14 17 17 15 14 14 14 17 18 19 19 22 21 20 21 23 24 24 24 25 28 30 31 34 36 37 36

GFSGL_700_spd_069.txt.gz
Wind_Speed
6 7 8 6 4 4 4 4 4 3 4 6 6 6 6 9 10 11 13 14 14 15 15 15 14 14 12 15 15 17 14 15 14 12 11 10 10 9 9 7 7 8 8
6 6 8 6 5 6 6 7 7 6 6 7 7 8 9 8 9 10 12 15 16 15 14 13 13 13 13 14 14 14 13 15 13 15 13 11 10 10 9 10 10 10 10
7 7 7 6 5 7 8 8 8 9 8 9 10 11 9 10 12 12 12 12 14 14 14 13 10 11 12 13 13 13 12 13 13 15 14 13 11 8 13 13 11 11 12
9 8 7 7 7 7 8 9 10 11 11 11 11 13 16 18 18 16 13 13 13 15 15 15 16 13 12 12 12 14 13 14 14 14 13 16 12 13 14 12 14 12 14
9 9 7 7 7 9 9 9 10 11 11 10 11 16 20 23 22 15 16 14 13 15 16 16 16 15 15 13 13 14 15 15 15 15 17 15 14 15 16 13 16 16 15
12 10 10 7 7 8 9 10 10 7 6 6 10 16 19 19 16 16 16 16 14 15 15 16 16 16 16 14 13 14 15 14 14 14 15 15 15 17 19 17 18 18 16
16 14 12 10 8 7 8 8 6 4 4 8 12 15 20 20 21 18 15 15 15 14 17 16 15 15 14 13 13 13 13 13 13 14 15 16 16 17 19 19 20 20 18
19 18 15 13 11 8 9 7 7 8 7 9 12 14 18 22 14 17 16 18 17 15 16 17 16 15 15 14 14 14 13 14 15 15 15 16 16 17 17 19 19 19 22
23 22 18 15 15 11 10 9 8 10 11 12 14 14 16 19 21 17 16 14 14 12 15 16 16 16 16 16 16 16 15 15 16 16 16 15 15 15 16 17 17 25 20
26 24 19 16 17 14 13 11 10 10 13 15 16 16 14 16 18 17 10 15 15 12 13 12 17 18 18 17 18 18 18 18 17 16 17 17 17 17 16 15 17 19 17
28 24 21 19 19 18 16 14 13 12 13 16 16 15 14 15 16 15 11 9 16 12 10 12 16 17 18 19 19 19 19 19 18 17 17 17 17 18 17 16 15 16 16
25 22 18 16 18 22 21 19 17 15 14 15 16 16 16 15 16 16 13 7 13 16 14 14 13 13 13 16 17 16 17 18 20 17 17 17 18 19 19 19 19 21 23
26 25 13 16 19 30 31 25 23 18 16 16 16 17 19 18 18 18 16 15 14 13 18 21 17 16 16 17 14 15 13 14 16 17 17 18 19 19 22 23 22 22 25
26 23 16 20 26 29 36 33 24 21 19 18 18 19 20 20 20 19 18 16 16 14 18 20 21 24 20 19 18 15 13 14 14 15 18 21 23 24 24 24 24 27 28
24 25 26 28 27 31 30 24 23 23 19 20 19 18 21 21 22 21 20 19 19 20 21 21 21 22 21 23 21 22 25 28 28 31 28 28 31 29 30 30 29 34 32
30 33 34 31 33 31 30 28 23 26 22 20 20 20 22 23 23 21 18 18 18 20 24 26 24 24 26 25 27 27 30 29 34 34 32 31 32 33 31 33 30 31 34
36 36 32 33 33 34 33 32 26 22 19 18 19 20 22 21 20 17 16 16 16 16 18 23 27 28 33 27 24 28 28 27 34 32 33 31 26 31 30 32 34 33 35
33 32 30 27 28 27 21 25 25 16 15 17 18 17 18 18 16 14 13 12 11 11 11 12 15 18 23 29 32 34 38 30 32 36 35 31 34 35 35 32 40 44 45
36 33 29 26 25 21 15 13 7 9 12 7 18 17 13 10 12 14 15 14 12 10 12 12 13 14 16 18 21 22 24 23 28 25 25 28 24 25 30 28 26 33 33
11 23 28 23 23 26 23 15 9 11 12 16 17 21 16 18 15 16 15 15 12 11 10 18 15 17 19 21 20 20 21 23 22 21 21 23 24 26 25 27 27 29 31
1 0 2 3 2 3 8 7 7 8 11 14 17 25 19 18 9 12 13 16 13 12 17 19 18 19 17 17 17 19 21 23 25 26 27 26 25 24 24 27 29 33 35
7 7 8 8 6 9 17 11 12 12 13 18 23 22 22 18 20 18 20 20 19 18 22 19 20 23 23 24 28 28 28 28 29 30 31 32 31 29 30 30 31 30 33
13 13 14 14 15 16 15 10 11 16 18 21 21 17 10 11 14 18 21 23 21 20 21 23 24 23 21 24 26 29 30 30 29 30 30 29 29 34 30 32 31 36 35
10 12 14 16 14 11 17 20 18 17 11 14 13 14 21 22 20 19 18 19 21 23 24 27 24 23 24 25 23 22 20 22 24 25 27 28 30 30 30 29 32 37 37
6 7 8 9 12 15 15 14 14 16 16 19 22 20 18 15 14 17 19 19 19 18 15 12 13 14 14 14 15 16 16 18 20 21 23 23 23 23 21 22 24 26 28
2 0 1 2 3 5 8 10 11 12 12 12 14 13 13 15 16 12 8 9 11 11 12 13 16 15 17 16 18 20 20 21 23 25 24 25 24 25 26 26 28 28 29

GFSGL_700_spd_072.txt.gz
Wind_Speed
8 8 7 6 4 2 3 4 4 3 3 4 5 6 8 8 8 9 10 10 10 10 10 9 10 12 13 15 15 14 15 15 17 12 6 6 6 7 6 9 9 8 7
7 7 5 4 4 3 4 3 4 6 7 6 7 6 7 7 8 8 9 12 12 11 10 10 10 10 10 13 13 14 14 13 16 11 9 8 8 7 8 10 10 9 9
6 9 7 4 3 2 3 5 6 7 9 9 8 8 9 11 12 13 12 11 11 12 11 10 10 10 9 10 11 12 13 10 12 9 11 10 10 10 9 9 11 9 11
7 9 10 7 5 3 3 3 6 8 8 9 7 7 11 14 16 16 15 13 13 13 12 11 11 10 11 10 10 11 11 9 9 16 13 12 11 12 12 10 14 10 12
10 12 11 8 9 5 4 4 5 5 6 5 3 6 11 17 19 13 12 12 13 12 14 14 12 11 11 11 11 11 13 12 12 14 14 12 11 16 15 14 15 13 14
19 14 16 13 10 9 6 6 5 4 4 2 4 9 12 18 21 15 16 16 13 11 12 13 12 13 13 12 12 13 14 13 13 13 14 16 15 18 17 18 16 17 15
25 20 20 15 13 11 10 8 6 5 5 4 4 7 12 16 18 18 12 15 17 13 12 11 15 13 14 13 12 12 12 11 11 12 12 13 14 15 16 16 17 15 18
30 26 26 20 16 14 12 11 8 8 7 7 6 7 11 13 15 19 20 13 15 17 14 10 11 12 11 11 12 12 12 12 12 12 12 13 13 15 16 17 16 20 20
34 31 32 22 19 18 15 13 10 8 10 11 9 9 11 12 14 17 20 15 12 11 11 5 9 12 10 11 13 12 13 12 12 13 14 14 14 14 16 15 17 19 20
40 33 36 27 22 20 18 15 13 11 13 11 11 10 10 12 13 16 18 18 9 10 10 7 10 11 9 11 12 13 14 14 13 15 16 17 16 16 16 15 16 16 16
41 38 38 30 23 20 17 16 16 14 13 12 13 10 11 12 14 15 18 17 15 8 12 12 13 11 18 14 13 15 17 17 17 15 17 17 18 17 14 14 14 15 15
39 43 44 38 23 18 16 14 16 16 15 15 15 12 14 12 14 15 17 18 15 9 10 13 12 11 11 12 14 13 14 16 17 16 16 16 14 14 15 14 14 15 17
41 64 39 27 15 12 13 14 18 19 19 20 17 16 15 14 12 17 18 20 18 13 13 12 11 13 14 12 13 13 14 14 15 14 12 11 14 14 13 14 13 15 18
41 41 8 4 10 13 22 27 19 21 23 20 18 18 18 15 14 14 18 20 21 18 15 12 11 10 13 15 16 16 15 15 16 12 11 15 21 26 26 26 25 23 24
31 21 24 17 24 21 21 20 21 23 19 15 15 17 18 16 14 17 19 19 18 20 17 17 17 16 18 17 16 15 18 18 21 23 26 26 25 30 34 32 30 30 31
24 27 25 19 20 19 16 21 21 19 19 20 25 24 16 14 15 17 17 16 14 16 16 16 20 21 19 21 19 22 23 22 24 24 26 31 29 29 30 33 34 34 30
24 26 27 26 25 25 23 24 23 22 19 15 21 19 15 15 14 14 12 10 10 11 12 12 16 20 22 22 22 25 25 28 30 27 30 30 27 34 27 31 26 35 37
27 23 21 25 25 19 19 17 17 16 15 19 18 11 14 16 11 9 8 9 10 10 10 9 11 12 14 16 18 19 18 19 21 21 24 24 30 29 31 33 35 31 35
34 25 33 30 30 26 21 18 20 14 13 10 8 7 10 6 7 8 10 11 10 10 12 10 12 14 15 16 17 18 18 16 15 15 17 19 22 25 26 25 27 25 26
2 17 21 18 26 31 28 26 26 25 16 17 8 12 13 13 13 16 18 15 10 12 11 15 16 18 15 18 16 15 15 16 16 16 17 19 21 22 23 23 24 24 25
3 5 2 1 18 18 15 6 4 10 9 19 12 20 9 16 25 17 16 19 23 19 18 14 20 24 22 22 21 23 23 23 25 26 27 29 23 20 25 27 26 27 28
6 3 1 5 3 6 3 2 5 2 5 9 15 18 21 28 23 23 17 16 18 27 17 24 26 27 26 26 26 25 25 26 28 29 30 30 27 30 27 29 32 31 31
6 9 9 7 10 10 9 12 18 14 19 17 15 16 12 21 23 19 13 21 21 23 21 19 21 22 26 24 23 24 26 25 22 21 21 21 23 24 25 25 27 29 32
7 7 8 9 10 8 12 13 15 20 23 23 23 18 21 16 16 22 24 23 18 19 17 18 18 17 13 13 14 15 16 15 16 19 20 21 21 22 22 23 23 25 25
7 6 7 10 8 11 17 17 18 18 19 16 12 16 20 22 24 19 16 17 16 14 13 13 12 12 10 11 12 14 16 18 19 20 22 21 22 23 24 25 26 26 28
2 2 3 5 6 8 11 9 12 14 12 15 17 18 19 17 14 13 13 11 14 13 12 14 13 15 15 15 15 15 16 17 19 21 22 25 26 27 29 31 31 32 33

GFSGL_700_spd_075.txt.gz
Wind_Speed
2 4 5 2 1 3 2 2 1 4 6 5 7 6 5 3 3 4 5 7 8 6 7 7 8 8 9 9 12 13 13 13 10 11 9 8 6 6 7 9 10 9 8
3 3 5 4 2 3 6 5 4 4 5 6 6 7 6 7 8 6 4 5 7 8 9 8 9 9 10 11 12 14 13 11 13 16 18 10 8 4 7 7 9 9 9
6 3 3 2 4 5 6 7 7 6 6 6 7 6 5 8 10 10 10 10 8 8 8 8 9 9 8 9 10 11 12 13 14 13 15 11 9 9 9 8 7 7 9
10 8 6 5 5 6 8 7 8 7 7 7 6 5 2 5 11 10 4 8 8 10 10 9 9 10 10 9 10 9 9 8 11 14 11 10 9 11 11 8 7 13 11
14 14 11 9 9 8 9 10 10 9 7 6 5 4 1 6 10 11 5 4 5 9 10 9 10 11 11 11 10 10 8 8 9 10 12 13 11 12 12 12 15 13 12
19 16 18 13 13 13 11 12 12 10 8 8 6 3 0 5 9 11 9 8 8 8 11 9 11 10 11 10 10 10 9 9 10 11 12 13 13 17 15 16 17 14 12
27 23 23 21 18 17 16 15 14 11 12 10 7 5 2 4 6 8 12 14 11 11 10 11 12 9 8 10 10 8 8 9 9 9 10 12 13 13 15 15 15 15 14
25 29 33 31 26 23 20 19 16 14 14 13 10 8 5 4 5 7 11 15 7 8 10 12 12 9 8 8 8 7 8 8 9 9 9 9 10 11 13 15 14 19 16
33 31 39 36 37 30 26 22 20 18 17 14 12 11 8 6 3 5 9 10 11 3 7 10 14 11 10 9 8 10 10 10 9 9 9 9 11 12 12 13 13 16 15
32 38 40 45 42 41 33 24 21 20 19 17 15 13 11 9 5 3 6 8 9 6 4 9 10 10 10 12 11 9 6 7 8 10 12 12 11 13 12 13 14 15 15
32 33 43 43 44 47 35 21 21 23 22 20 17 16 14 12 8 5 5 7 7 8 5 6 10 11 9 10 12 10 7 8 9 10 11 11 12 11 11 12 13 13 13
28 36 41 46 45 62 29 25 25 27 25 20 20 17 16 11 11 9 6 7 8 9 5 8 8 7 7 6 7 13 10 10 9 9 9 10 12 11 9 7 9 10 12
27 30 32 35 44 50 41 29 30 26 23 21 22 18 16 13 12 10 9 9 9 7 8 5 7 8 11 10 9 9 10 9 10 10 10 12 11 11 8 6 7 9 10
31 33 34 33 38 33 7 21 24 21 17 20 22 18 17 16 11 10 11 11 11 10 8 7 8 8 10 10 11 11 15 14 12 13 13 12 15 17 20 22 20 20 19
32 29 30 33 34 24 8 7 13 21 20 19 19 15 10 10 12 14 11 12 11 10 9 10 11 14 13 14 14 13 13 17 15 18 18 19 24 23 22 23 26 29 25
25 21 22 22 15 4 7 14 17 19 18 17 14 12 13 15 16 15 13 12 9 9 8 10 10 13 15 15 16 16 17 18 19 22 23 24 23 23 24 29 24 28 28
20 19 18 18 13 14 15 19 24 24 21 17 15 14 15 14 16 15 11 10 10 8 8 7 7 8 11 13 13 13 16 20 23 23 25 21 24 27 25 28 33 30 31
19 18 19 21 23 24 25 25 27 27 18 18 17 16 13 13 14 12 11 11 11 8 7 7 5 5 6 7 9 10 9 8 10 14 17 18 21 19 22 22 23 25 29
19 19 22 28 27 27 24 25 24 22 21 19 18 16 11 9 10 8 7 6 8 8 8 11 9 10 7 7 9 11 10 9 10 11 13 14 16 18 19 20 22 24 26
5 4 6 4 6 21 32 20 16 18 20 22 19 19 13 15 10 8 6 6 6 7 12 10 12 14 10 13 14 15 14 14 15 17 18 19 21 22 23 24 25 24 25
4 5 6 13 11 16 12 20 23 23 22 20 10 5 9 8 7 5 6 10 11 13 12 16 19 12 16 19 19 18 19 20 19 19 21 23 25 25 25 24 26 30 29
3 5 7 5 3 5 5 11 10 12 12 12 12 5 6 5 7 9 12 10 10 13 19 21 19 20 16 18 19 21 19 17 18 21 21 19 18 18 18 18 20 21 23
6 7 6 6 9 10 8 7 7 6 4 2 3 5 9 8 15 15 9 8 14 22 24 20 20 18 17 17 17 15 14 15 15 15 15 17 18 18 20 21 22 23 24
6 6 6 4 5 6 6 8 8 9 12 14 15 17 17 15 12 11 15 14 23 20 15 14 14 13 11 10 11 12 13 14 15 17 18 18 19 19 19 20 21 23 24
6 4 4 6 4 3 6 7 8 9 11 12 15 13 12 13 16 14 17 17 16 13 8 6 7 8 10 11 12 13 13 12 13 15 17 18 20 21 22 24 26 26 26
2 2 3 4 6 7 8 9 13 10 11 13 15 20 20 19 19 14 10 9 10 11 6 6 9 11 10 10 10 10 12 14 15 17 19 22 23 23 23 23 24 25 27

GFSGL_700_spd_078.txt.gz
Wind_Speed
5 4 4 3 5 6 8 8 7 7 6 6 6 5 4 3 4 6 9 11 11 9 9 7 9 11 14 18 19 18 15 14 13 12 15 16 12 9 9 11 10 11 10
7 5 6 5 5 6 8 9 9 9 8 8 6 6 6 6 8 10 11 10 10 11 15 15 15 14 13 14 15 16 16 15 16 15 14 13 12 12 10 8 12 13 13
6 6 8 8 6 6 8 10 11 12 11 10 10 9 9 9 9 11 13 15 14 12 13 13 15 14 14 14 14 13 14 15 15 15 20 19 19 18 11 8 9 13 13
8 8 10 10 9 9 10 11 12 13 15 13 12 11 11 9 8 9 11 13 13 14 13 12 14 15 15 14 14 12 12 13 14 16 21 12 21 14 14 11 11 10 14
12 13 14 13 12 11 12 12 13 14 14 14 13 11 9 9 10 8 6 9 11 12 12 12 14 15 15 16 15 13 12 13 12 9 8 13 12 10 14 13 12 16 9
18 19 19 20 17 15 14 15 16 17 16 14 13 11 9 9 8 7 6 5 11 14 14 12 12 13 14 15 16 15 14 13 13 12 12 13 16 16 15 15 15 16 12
20 13 15 21 22 21 20 19 19 20 18 17 16 14 12 11 9 7 9 10 10 13 14 10 11 13 13 14 16 16 15 14 14 14 13 13 13 15 18 15 17 14 16
17 21 21 24 25 27 25 24 24 24 24 21 20 19 15 13 9 9 8 10 10 7 12 14 12 12 13 14 14 15 14 13 12 10 9 9 10 10 10 13 14 17 19
19 25 24 31 34 43 33 34 30 22 31 26 25 23 17 14 12 9 10 11 9 8 8 11 12 14 14 13 11 13 12 11 10 11 11 10 11 11 11 12 12 13 18
22 23 26 31 36 45 40 40 45 45 32 27 28 25 20 16 13 12 10 9 10 6 5 10 13 11 12 11 12 14 13 12 13 13 13 13 12 12 12 12 13 13 14
20 24 28 33 34 38 44 40 36 35 30 30 33 28 23 18 15 14 12 10 8 9 5 6 9 14 13 12 11 13 13 14 16 16 14 14 14 13 13 13 12 12 12
22 26 26 28 29 30 32 34 36 46 29 37 34 29 24 20 18 16 14 12 9 9 9 9 12 14 14 15 14 14 16 12 14 15 15 15 14 14 14 14 13 13 13
27 29 30 30 29 29 30 29 31 26 39 39 33 27 24 22 19 18 15 14 12 11 11 11 13 13 15 15 15 13 14 14 13 13 14 16 15 13 10 9 8 9 9
32 35 35 34 31 29 30 21 14 6 26 38 35 25 27 24 22 18 16 16 14 13 12 13 15 14 16 19 19 20 18 17 17 17 17 17 17 15 13 13 14 16 18
33 35 32 31 28 23 17 10 2 16 15 18 13 20 22 21 19 19 18 18 18 17 17 17 15 17 17 21 20 19 19 18 20 21 20 19 17 18 18 21 22 21 22
26 24 24 22 23 19 16 13 13 11 13 18 18 16 19 23 21 19 18 17 18 18 18 17 15 18 21 21 22 23 20 23 21 23 23 23 24 23 24 22 21 25 23
17 19 17 16 15 11 17 20 21 16 15 16 17 20 21 19 18 18 18 18 18 17 15 14 12 11 13 16 19 20 21 21 24 27 25 26 21 27 28 29 31 30 26
11 14 23 14 14 14 17 20 24 20 21 21 23 21 20 20 20 18 15 14 12 11 9 8 8 8 6 6 7 8 8 9 11 13 15 16 18 17 18 20 20 23 26
13 9 9 14 15 19 21 18 23 24 32 26 26 23 22 22 20 18 14 9 8 8 6 7 9 9 8 8 8 8 8 9 11 12 13 14 16 16 17 18 19 21 23
8 5 1 4 2 2 7 6 11 16 24 29 21 22 26 22 18 14 11 9 8 7 4 5 7 6 9 10 13 12 14 15 16 18 18 19 21 22 22 24 25 26 27
11 11 8 3 7 9 3 7 5 8 9 7 21 24 22 11 21 18 5 3 5 7 6 8 10 13 14 15 17 16 15 15 18 19 20 20 21 20 18 18 18 18 19
9 9 4 6 9 10 5 3 4 4 11 16 19 13 6 15 7 5 1 2 2 5 7 13 16 15 14 14 15 16 17 18 16 15 14 14 14 14 15 15 16 17 19
7 8 5 4 4 3 4 7 5 4 6 9 10 10 6 6 3 4 2 3 7 10 13 17 15 14 15 14 13 11 11 12 12 13 13 14 15 16 17 18 17 18 19
4 5 3 5 5 7 9 8 8 9 5 5 3 1 1 2 1 3 7 10 14 13 14 13 14 12 10 10 10 11 11 12 13 14 13 13 14 14 16 18 19 21 22
3 1 3 5 6 6 7 5 5 4 0 2 5 7 2 5 10 10 12 11 12 11 10 9 10 9 10 11 12 13 12 12 12 14 15 15 16 16 18 20 21 22 23
1 1 3 4 4 5 4 6 6 2 4 7 7 8 13 16 14 15 12 5 3 4 6 9 10 10 10 11 10 10 11 12 12 13 14 15 16 17 18 20 21 22 24

GFSGL_700_spd_081.txt.gz
Wind_Speed
12 10 7 6 7 7 7 6 6 6 8 9 9 9 8 7 7 9 11 14 14 14 12 12 10 17 19 19 17 19 23 23 21 19 19 19 18 17 16 15 14 11 12
14 11 8 6 8 7 8 8 7 7 8 9 11 11 11 12 11 13 14 15 15 15 15 16 16 16 15 15 16 18 19 20 20 18 17 18 18 22 12 14 15 15 15
14 11 9 8 8 10 10 8 8 10 10 9 10 12 12 11 12 15 16 15 17 16 15 14 18 17 17 18 18 17 17 17 17 18 19 19 19 18 19 16 14 15 16
13 10 8 9 9 12 13 12 11 12 11 11 11 12 12 12 11 13 17 19 18 17 19 17 16 16 17 17 17 15 16 17 17 18 18 21 26 26 22 20 13 11 14
13 8 8 8 11 14 14 13 16 16 16 16 15 15 14 12 12 11 10 11 13 13 14 18 15 17 17 17 16 15 16 16 16 16 13 16 12 12 20 17 14 17 13
12 9 12 9 10 14 15 15 14 13 16 20 19 19 17 15 14 12 13 10 12 13 14 16 15 14 15 17 16 16 16 16 16 16 16 15 13 13 13 16 17 17 12
6 8 11 11 15 17 19 23 17 17 15 17 20 20 20 19 17 14 11 12 10 13 12 17 13 14 14 14 16 15 15 16 16 15 15 14 15 17 17 15 17 17 16
14 18 18 15 23 24 25 28 36 35 37 20 34 28 24 25 22 18 13 11 12 10 10 13 18 15 14 15 14 14 13 14 14 15 14 13 13 14 14 18 21 21 22
24 19 21 19 24 26 29 33 35 35 36 32 27 31 35 29 26 22 17 12 10 9 9 8 11 15 17 13 11 11 12 13 13 13 14 14 14 14 15 16 15 16 17
20 21 23 26 28 29 32 33 35 32 34 36 29 35 39 33 30 24 20 15 12 9 8 9 13 17 17 14 12 13 12 15 15 15 15 15 15 14 15 16 17 18 17
25 24 26 27 30 30 31 33 31 34 33 32 31 31 40 37 32 27 22 19 15 12 10 11 12 17 16 14 15 14 14 15 16 17 16 16 17 17 18 18 18 18 18
26 26 27 27 30 33 34 32 34 34 35 35 31 28 38 37 31 28 22 20 17 15 12 12 13 15 17 17 16 17 17 17 16 17 18 19 19 18 18 18 18 17 17
28 30 32 32 32 34 34 36 35 34 34 37 33 35 40 35 30 26 22 21 18 19 17 15 15 15 16 17 17 16 14 16 19 17 18 18 19 18 17 16 15 14 13
30 33 37 38 38 35 36 37 34 30 28 27 26 29 36 34 31 25 19 21 20 21 20 18 17 16 18 19 20 18 15 16 16 17 19 19 18 17 17 16 14 13 13
33 35 39 39 37 34 33 32 26 23 18 15 15 23 29 32 31 29 24 23 21 22 21 20 18 17 19 20 21 21 19 20 21 20 20 21 20 19 18 19 19 19 20
29 30 32 25 27 21 22 20 19 19 14 10 12 22 29 25 26 25 28 31 24 21 20 20 18 18 18 20 21 22 24 22 21 24 23 21 22 22 20 22 26 29 27
22 21 20 19 18 16 16 17 20 21 15 14 16 19 21 23 23 23 23 21 23 21 19 18 16 15 17 17 17 22 22 23 25 26 27 27 27 24 23 27 25 31 31
18 17 13 14 21 15 16 16 19 20 22 17 17 20 21 24 27 24 22 21 19 17 17 16 13 12 12 12 12 13 14 15 16 15 15 17 17 20 21 22 20 20 19
18 19 13 11 11 20 15 20 19 17 23 26 23 26 27 28 25 22 19 17 15 13 12 11 11 11 11 11 11 12 12 13 14 15 15 14 14 15 17 18 19 21 22
16 14 13 9 3 3 3 5 8 12 15 16 21 26 32 24 21 24 16 15 14 11 11 12 12 10 9 9 11 12 13 13 14 16 18 19 20 21 22 23 25 26 27
17 14 10 10 12 10 5 6 3 4 6 5 9 14 16 15 14 19 26 20 13 11 12 10 6 5 8 11 12 14 13 14 15 16 19 22 22 21 22 21 20 19 19
14 12 9 7 4 5 4 3 3 5 7 8 8 4 14 14 13 20 14 10 8 9 8 7 9 12 12 12 13 13 13 13 13 13 13 14 13 12 13 14 16 16 16
11 9 7 7 4 1 3 3 5 1 5 7 11 17 20 6 17 10 17 10 15 14 7 10 14 14 11 10 10 9 8 8 8 8 9 11 12 13 14 14 16 17 17
8 7 6 6 6 6 6 5 3 3 7 13 11 7 8 8 8 8 13 10 12 12 11 14 13 10 7 6 6 6 7 8 9 10 9 9 11 12 14 15 15 16 17
7 8 5 6 6 6 8 9 8 6 4 5 6 5 6 15 13 12 7 7 9 12 12 10 7 7 7 8 8 8 9 8 7 8 9 9 10 11 13 14 15 16 18
6 7 4 5 6 5 8 6 6 6 6 5 5 8 11 6 9 12 10 7 7 8 8 8 8 8 8 8 7 7 7 7 8 8 8 8 9 11 14 16 18 20 22

GFSGL_700_spd_084.txt.gz
Wind_Speed
19 17 12 9 8 7 8 8 8 8 7 6 5 6 7 7 8 8 10 12 14 15 15 15 14 12 13 18 18 16 18 19 22 27 25 24 21 20 19 20 16 17 14
19 18 13 9 7 7 8 8 9 10 9 9 7 9 9 9 9 9 10 12 15 15 16 15 16 16 14 15 17 16 16 17 17 18 18 22 23 15 18 19 14 14 14
20 18 12 8 8 6 8 8 8 10 11 11 11 12 13 12 11 11 11 12 14 15 15 16 17 18 18 19 18 17 16 16 14 13 11 15 13 15 15 15 19 12 15
20 15 9 6 9 7 7 8 9 10 11 12 13 14 15 15 15 13 12 12 12 11 12 14 16 16 17 18 18 18 18 17 15 14 14 15 16 17 18 23 19 19 13
25 20 15 11 10 12 13 10 8 10 14 15 17 19 19 18 16 16 15 12 8 7 11 14 17 16 15 16 17 18 18 17 16 14 13 14 15 12 11 17 20 13 14
30 26 23 26 15 14 13 11 8 13 24 23 28 24 27 23 20 21 17 16 14 10 10 14 19 17 16 15 16 17 16 16 17 15 13 12 13 14 12 12 15 16 16
32 32 33 30 14 12 12 12 13 15 20 21 20 25 37 30 25 25 22 19 15 12 11 12 17 19 18 14 14 16 17 16 16 15 15 15 16 15 15 14 14 14 15
25 33 54 17 13 20 16 17 16 21 24 26 25 21 20 29 34 27 27 23 19 16 13 12 12 17 17 14 16 15 16 15 14 13 14 14 14 16 17 18 18 17 17
29 20 9 16 16 22 23 22 21 25 25 26 27 25 27 28 29 31 32 28 24 19 15 11 12 13 19 17 13 16 15 13 12 12 13 13 13 14 16 16 18 20 21
16 18 18 20 23 24 27 27 28 27 28 27 30 28 33 28 29 28 36 35 28 22 17 14 12 15 18 15 15 16 17 15 13 12 13 13 13 13 15 17 18 18 18
19 21 26 27 29 29 30 32 34 33 32 30 33 34 35 36 38 38 40 38 29 25 19 16 13 14 17 18 15 17 17 14 13 13 14 14 14 14 15 16 17 17 18
22 27 30 33 33 34 35 35 35 35 34 36 38 37 40 41 39 39 43 38 29 26 21 19 16 14 15 18 18 17 16 15 16 14 14 14 16 17 18 17 17 16 16
28 32 34 39 41 40 40 39 38 38 38 39 40 39 45 40 34 32 38 33 30 27 25 23 19 14 14 16 19 19 18 17 16 16 17 15 15 15 15 16 16 15 14
31 33 36 39 42 44 44 44 42 41 39 36 35 38 41 38 33 32 35 33 30 27 26 23 20 16 15 16 17 18 18 17 15 14 17 17 15 15 15 15 15 15 14
33 35 38 41 43 45 44 42 38 35 32 28 29 32 29 20 32 36 37 34 28 26 25 23 20 18 16 15 17 18 18 19 17 19 15 17 18 18 18 17 17 17 18
27 29 30 31 32 30 31 28 23 21 21 20 23 23 15 13 22 30 34 36 29 24 20 19 18 17 16 16 17 18 18 18 19 20 19 19 21 21 20 23 22 21 24
18 18 17 17 20 23 20 20 17 19 20 16 17 18 15 17 25 22 34 39 30 29 22 17 18 18 16 17 17 15 16 18 21 22 18 15 23 18 23 23 21 23 25
13 15 18 15 20 16 19 17 18 16 18 19 19 18 20 21 21 21 31 25 26 28 25 21 18 16 15 16 15 14 14 14 16 17 18 17 16 16 19 23 22 25 24
12 15 15 15 16 13 12 21 18 20 18 18 16 18 21 18 28 26 29 24 24 21 19 17 15 15 13 11 10 10 11 12 13 13 14 14 14 13 14 14 16 17 18
14 14 16 13 10 10 10 8 9 9 9 13 16 13 14 17 26 32 31 28 22 15 16 14 13 12 12 9 9 11 13 14 14 14 14 15 16 17 18 19 20 21 22
12 11 13 12 9 8 5 4 6 4 4 6 4 6 14 17 29 32 19 23 23 17 18 15 13 10 7 8 12 14 15 14 14 14 15 16 17 17 17 17 17 15 15
11 9 9 10 7 2 6 3 2 2 5 6 7 6 3 10 12 6 5 6 11 12 15 11 8 7 6 9 12 13 13 12 12 12 12 11 10 10 10 11 13 13 14
10 8 8 9 7 4 2 5 6 3 3 2 2 6 9 8 14 12 9 11 12 10 8 7 6 9 11 11 11 9 7 6 6 6 6 7 8 9 9 9 10 11 13
9 8 7 7 7 7 8 6 4 4 5 10 15 13 11 9 9 10 13 12 9 12 13 9 11 12 11 8 6 5 5 6 7 8 8 7 7 8 9 9 10 11 12
7 6 7 6 6 7 7 7 4 0 2 2 2 9 7 8 8 9 14 10 5 9 13 13 12 10 7 6 6 7 7 7 6 6 6 7 7 8 8 8 10 12 14
5 4 2 1 3 2 3 4 5 4 5 5 6 8 8 14 12 15 10 8 9 11 11 8 7 6 7 7 7 6 6 6 7 7 8 8 8 9 11 14 16 16 17

GFSGL_700_spd_087.txt.gz
Wind_Speed
18 18 16 14 12 12 12 12 12 11 10 9 9 8 8 8 8 7 6 6 6 7 8 11 13 14 14 14 15 15 16 17 15 19 23 22 23 21 21 23 20 19 17
19 19 16 15 13 12 13 11 12 12 9 9 10 10 9 9 10 10 10 9 9 10 13 13 14 15 15 16 15 14 14 15 16 17 17 13 15 22 23 20 21 19 19
16 19 15 15 13 12 14 13 13 14 12 10 10 10 11 12 12 13 12 12 12 13 14 13 14 16 15 16 17 16 15 14 12 11 11 11 14 15 14 14 11 9 12
22 20 18 18 18 16 17 16 13 11 9 8 10 12 14 15 15 14 16 15 14 12 13 13 13 14 16 17 18 17 16 15 14 12 12 12 11 13 13 15 15 16 16
28 26 24 24 22 19 19 10 9 8 9 9 6 11 16 16 17 19 19 18 16 15 14 13 14 13 14 17 17 19 16 15 14 14 13 13 12 13 16 15 15 19 19
22 23 25 28 27 21 18 16 13 11 9 9 9 13 17 20 21 25 23 20 21 18 19 15 14 15 15 16 16 17 18 17 15 15 15 14 13 14 14 15 16 16 21
17 24 26 27 29 26 24 32 19 15 18 16 19 19 19 23 21 16 18 24 24 23 22 20 17 16 14 17 17 17 15 15 15 15 16 17 16 15 14 13 14 12 16
27 29 25 30 26 31 35 39 18 17 14 19 20 22 25 26 24 22 22 24 25 25 23 23 21 16 16 15 17 17 15 14 14 14 15 16 15 15 16 16 18 17 17
19 27 34 30 31 24 11 13 16 20 19 24 27 27 28 27 28 27 28 23 24 25 25 25 23 20 19 15 17 16 17 15 14 13 13 14 14 15 16 17 19 19 20
13 13 20 20 15 20 17 21 21 23 25 30 31 30 30 31 29 31 31 30 25 29 27 26 24 23 21 16 14 17 15 14 14 13 12 13 13 13 14 14 14 14 15
7 14 17 20 21 21 23 26 28 27 29 32 33 34 34 32 30 34 33 36 32 32 30 30 28 26 23 19 17 17 16 15 15 14 14 14 13 12 12 13 13 14 14
15 18 21 24 25 28 30 31 32 31 34 36 36 36 35 34 35 37 37 38 37 36 34 35 32 27 23 20 18 18 17 14 13 15 15 14 13 12 11 12 13 14 15
19 23 25 29 32 34 37 39 38 36 37 39 39 39 38 37 38 40 39 40 40 37 32 36 31 28 23 20 17 18 17 16 15 15 14 15 14 13 12 12 13 13 13
25 28 31 34 36 39 41 43 42 42 43 43 43 44 42 39 39 36 39 39 37 39 38 37 32 27 23 20 18 17 17 18 17 16 14 14 15 14 12 12 12 13 13
25 28 30 33 36 38 39 40 40 38 37 38 38 39 36 32 31 31 30 29 28 33 36 33 27 25 23 20 18 18 17 19 19 17 16 17 15 15 15 15 16 15 15
18 21 20 19 20 23 24 24 26 24 25 25 26 25 23 20 19 20 23 27 32 38 38 38 23 24 23 22 20 18 19 20 20 19 22 18 17 19 17 16 18 20 21
15 15 15 15 16 17 18 19 17 16 15 19 21 22 19 14 13 12 9 12 28 37 37 37 26 22 20 22 21 20 21 20 19 18 21 19 18 20 21 21 19 12 16
16 14 15 16 16 13 12 13 13 15 16 17 16 19 20 15 13 13 16 22 29 33 34 32 32 32 25 21 18 20 19 17 17 18 18 18 19 22 23 20 20 20 22
16 15 15 15 15 14 13 13 9 12 16 14 16 18 17 16 16 15 19 17 26 34 39 36 34 25 23 26 21 18 16 15 13 12 12 13 15 15 14 12 12 14 14
15 14 14 14 12 11 12 14 11 11 11 12 14 17 18 18 14 18 19 19 30 31 25 26 27 24 20 17 16 15 14 13 13 13 13 14 14 13 13 14 15 17 19
15 14 13 14 12 10 10 8 7 7 6 6 5 2 4 5 18 23 22 29 27 23 19 17 20 20 20 17 13 12 13 14 14 15 16 17 17 17 16 16 16 15 13
13 13 12 12 11 10 6 6 6 6 6 5 4 3 7 9 13 12 12 15 24 13 20 25 22 20 16 14 10 12 14 14 13 14 14 14 14 14 13 11 10 10 11
12 11 11 11 9 9 8 7 7 6 4 3 0 5 7 8 10 10 11 13 14 20 14 11 9 8 4 4 9 12 11 12 12 11 11 10 9 9 9 9 8 9 9
10 10 10 10 10 9 10 7 8 6 3 3 6 12 7 5 9 7 12 11 17 13 17 5 7 7 9 9 9 8 8 8 9 9 9 8 8 7 7 7 6 7 7
7 7 6 7 8 9 7 6 5 2 1 1 7 2 7 7 8 9 11 13 9 6 7 9 9 8 7 6 7 6 7 8 8 7 6 6 5 6 6 7 6 8 10
7 5 4 3 5 5 5 4 5 4 4 4 7 9 8 7 6 10 13 12 6 7 9 9 8 7 7 7 6 7 8 7 7 6 5 5 6 6 7 9 12 14 15

GFSGL_700_spd_090.txt.gz
Wind_Speed
31 28 28 24 17 14 13 13 11 11 12 11 10 8 9 10 11 11 10 10 11 10 10 10 12 14 14 15 16 14 17 16 18 17 15 17 21 19 22 21 23 21 22
33 30 28 25 20 16 14 14 14 13 14 13 9 8 8 8 10 11 12 12 13 13 13 12 13 15 15 16 16 15 13 13 13 14 16 17 16 17 18 20 20 17 18
40 33 29 27 21 17 16 17 15 14 15 13 11 9 8 8 9 11 13 13 13 14 16 16 16 17 16 16 17 17 16 16 14 13 13 13 13 13 15 16 19 18 10
22 17 21 22 19 20 19 19 16 15 14 11 11 9 5 7 9 11 13 15 16 16 15 14 14 16 18 18 16 17 17 15 16 15 14 14 13 13 12 13 13 13 12
39 61 27 22 19 19 18 19 17 16 15 14 12 11 6 3 6 9 11 15 19 19 19 16 13 16 18 20 21 19 18 16 16 17 16 15 14 14 15 17 18 17 17
34 10 14 18 19 19 18 16 15 16 18 18 16 11 9 7 9 8 13 17 15 16 19 21 18 13 17 20 23 22 20 17 16 16 16 16 16 15 16 18 18 14 17
29 25 19 24 24 23 21 20 19 17 18 19 15 16 14 13 15 15 14 12 15 19 23 23 21 19 15 18 21 20 19 17 16 16 16 16 17 17 16 17 17 17 16
12 22 26 26 35 33 24 22 26 26 26 24 26 23 20 19 20 21 23 21 21 22 22 21 21 23 19 19 18 20 18 15 15 14 15 15 15 16 16 17 16 16 17
12 22 22 26 30 36 32 26 24 35 38 37 31 28 25 24 24 24 27 27 25 22 21 23 23 23 22 19 20 19 19 16 15 15 15 15 15 15 16 16 16 18 20
11 15 14 19 23 24 26 46 39 38 45 36 31 30 28 27 29 27 30 32 29 26 25 25 26 26 25 22 20 19 21 18 17 13 14 14 13 13 12 12 13 13 16
5 8 9 10 12 14 17 17 18 19 29 29 29 30 31 31 31 32 32 32 35 32 29 28 30 30 28 25 22 21 22 19 17 16 15 14 12 12 12 10 11 11 11
4 10 14 16 18 21 25 25 28 29 31 33 34 34 34 33 34 34 32 33 36 37 33 33 33 35 31 29 27 23 23 22 18 17 15 13 12 13 14 13 12 12 13
9 16 18 19 21 24 27 28 29 32 33 34 36 36 36 36 35 35 34 35 37 40 35 37 38 38 35 35 30 26 23 24 21 19 17 16 14 14 15 15 15 15 15
19 21 23 26 28 29 31 34 37 39 38 39 38 38 38 38 38 39 40 36 38 39 39 40 41 40 37 34 29 28 23 23 22 20 17 17 16 16 14 14 13 13 14
19 20 22 24 26 28 31 33 34 32 32 32 31 33 33 34 34 33 33 33 32 34 33 33 36 41 40 33 30 28 26 24 23 21 20 19 16 15 17 16 15 15 16
15 16 15 16 17 18 19 22 24 26 28 29 29 28 28 26 24 22 23 26 25 26 28 30 37 39 35 30 30 28 26 24 24 21 20 21 21 20 20 18 18 17 16
13 14 15 14 14 15 16 17 17 20 21 22 21 20 20 19 18 20 18 16 14 14 18 24 30 31 32 31 28 29 27 26 24 25 25 24 24 24 20 21 20 19 20
14 15 15 16 17 16 16 17 16 14 15 17 18 19 18 18 19 18 16 15 15 15 16 28 34 37 32 29 28 27 26 21 24 26 24 24 27 23 19 19 21 21 19
14 15 16 17 18 18 17 17 16 17 16 16 19 18 16 15 17 20 19 19 13 13 20 30 39 39 38 34 28 26 26 28 23 22 23 22 23 23 24 24 23 21 21
15 14 15 16 16 17 17 15 17 14 15 19 19 17 16 17 19 19 19 14 18 13 28 31 32 32 33 34 36 36 28 17 18 18 17 17 16 17 18 17 16 15 15
15 13 14 15 14 16 14 12 16 14 14 17 15 11 7 9 17 17 18 24 18 16 28 34 28 32 37 27 24 23 22 23 19 17 15 16 17 17 16 16 17 17 16
15 13 13 14 14 12 12 11 13 14 12 13 14 13 13 11 10 13 10 11 15 25 29 29 28 28 28 24 20 17 18 19 16 12 12 16 18 17 16 16 16 14 13
13 13 12 11 12 13 12 12 13 12 12 10 7 7 2 3 8 10 7 14 16 17 14 21 18 11 13 16 16 15 14 10 9 15 16 15 15 13 12 12 12 11 11
12 10 12 9 9 13 14 13 13 12 11 7 7 7 5 7 5 3 6 9 7 13 12 11 13 12 8 6 7 7 10 11 12 13 13 12 11 11 11 11 11 11 11
11 9 9 7 10 11 11 11 9 9 8 6 9 4 3 12 6 8 6 15 13 10 6 6 7 7 7 8 9 10 11 11 12 11 11 10 10 11 11 11 10 10 10
13 11 11 11 9 8 8 5 7 6 6 5 7 7 7 7 8 5 12 17 7 7 7 11 11 9 9 10 10 10 10 10 10 10 10 10 11 11 11 10 11 12 13

GFSGL_700_spd_093.txt.gz
Wind_Speed
42 38 32 30 26 23 20 15 15 16 15 13 11 11 9 7 6 5 5 5 7 8 8 9 11 12 12 11 12 13 15 16 17 16 19 17 18 21 22 23 23 21 20
38 42 40 34 30 25 20 17 17 16 16 15 13 13 13 11 10 7 4 4 5 7 8 9 11 12 13 15 15 16 15 15 14 14 14 14 17 19 18 19 21 21 17
42 44 40 24 28 22 20 20 20 17 17 16 16 14 13 12 12 10 7 6 5 8 9 9 11 11 11 15 16 18 16 18 17 16 15 14 14 14 15 15 16 17 17
40 43 42 59 11 19 20 22 19 19 18 18 18 16 14 14 14 14 10 8 7 7 9 10 11 11 10 11 14 16 18 17 18 17 17 18 16 15 15 13 11 13 14
32 20 25 26 41 21 20 25 20 21 18 18 18 18 17 14 15 15 12 11 10 12 13 12 12 13 13 13 16 14 17 19 18 17 18 18 20 18 16 16 15 14 15
13 29 35 39 43 32 24 25 22 18 18 20 21 20 21 19 14 11 12 13 14 9 11 11 14 16 16 15 15 15 16 19 18 16 17 19 19 19 19 18 17 18 20
18 15 40 24 13 31 26 25 22 21 20 19 20 21 21 19 17 15 14 17 15 15 15 17 18 20 20 15 14 16 15 17 17 17 17 17 20 19 20 20 18 16 15
12 13 17 21 26 32 32 31 26 24 23 19 18 22 22 24 23 23 21 24 21 20 22 19 17 17 20 18 18 16 14 15 18 19 19 18 18 18 18 19 19 19 18
1 13 25 23 29 31 30 31 28 23 24 26 24 24 25 28 28 27 29 28 27 24 25 24 20 17 20 22 21 20 18 16 18 18 21 20 19 18 17 18 19 20 19
8 9 15 13 18 27 28 34 33 27 33 32 28 26 25 28 28 34 33 31 31 27 27 26 24 23 21 23 26 24 22 19 19 19 20 22 20 17 16 18 18 19 19
2 4 9 11 16 16 20 20 22 20 25 47 47 36 41 35 37 38 32 32 33 33 33 31 27 26 27 25 26 29 26 22 21 20 20 20 20 19 17 16 17 16 16
3 3 4 7 11 12 14 17 24 21 21 24 27 28 35 37 42 39 36 36 36 37 35 36 35 33 28 29 30 30 30 25 24 24 23 20 19 19 17 16 15 14 15
7 8 14 11 15 16 18 21 23 26 28 28 29 32 38 40 40 41 42 42 40 40 39 38 38 41 38 34 35 35 32 29 26 27 25 21 20 19 19 16 16 16 16
14 14 15 19 22 26 26 25 26 27 30 32 34 36 39 41 43 45 46 45 43 42 41 40 39 42 42 39 39 39 36 34 30 25 26 25 23 20 19 18 17 16 16
14 15 16 17 18 20 22 23 25 28 29 31 31 31 33 33 37 36 36 37 37 33 35 37 40 40 41 44 44 43 37 32 30 29 29 26 23 20 19 18 17 17 18
13 14 13 13 14 18 18 19 21 22 25 26 28 29 29 30 29 31 31 28 26 27 30 32 33 35 37 40 40 40 37 32 27 28 30 27 23 23 21 20 20 19 20
14 15 15 15 16 17 18 18 18 19 19 21 24 25 23 21 26 25 24 23 23 24 25 26 28 28 29 34 37 34 34 29 30 35 32 29 24 23 24 21 20 20 19
15 15 16 17 17 17 18 17 18 18 18 21 19 20 21 20 22 23 24 23 20 22 22 22 21 22 24 30 31 36 34 32 32 31 27 26 26 23 22 23 23 23 23
15 16 16 16 16 17 19 19 18 17 19 17 18 19 20 20 21 22 25 24 24 23 24 21 19 17 22 24 33 34 34 31 30 29 30 28 26 25 28 27 22 20 25
16 17 14 16 15 13 14 22 18 19 21 20 20 19 17 16 19 22 24 25 25 23 22 19 18 20 27 30 29 30 28 30 31 32 26 25 30 25 24 23 25 23 21
13 13 17 13 12 12 14 20 19 15 21 23 21 19 17 16 17 16 21 21 21 20 23 10 26 27 31 31 33 32 32 32 37 40 41 36 21 17 13 11 13 19 19
13 9 8 7 10 12 16 20 18 16 18 19 20 21 17 14 16 13 16 17 14 24 26 22 22 31 34 34 34 30 23 24 22 25 25 27 25 25 20 19 23 22 20
14 12 7 3 11 13 6 17 14 16 19 19 17 15 15 14 10 6 6 11 12 11 9 16 22 22 20 22 25 26 30 29 21 19 19 19 16 15 18 21 21 19 17
13 10 9 10 13 10 13 14 16 15 16 16 15 14 14 11 7 8 8 3 5 6 7 6 13 22 8 6 7 9 11 12 14 15 14 16 18 17 17 16 15 15 14
14 12 10 10 11 14 13 15 15 12 12 12 9 10 13 11 6 5 4 6 13 13 10 6 8 6 5 5 8 11 13 15 13 12 14 13 13 14 14 14 14 13 14
15 12 11 14 11 12 11 10 10 10 10 11 10 10 11 9 9 5 9 13 7 10 10 8 6 6 8 9 10 10 10 10 10 11 11 11 12 13 14 14 13 13 12

GFSGL_700_spd_096.txt.gz
Wind_Speed
38 37 43 40 37 32 27 20 19 17 19 12 10 10 10 11 10 9 9 10 9 9 9 9 9 11 12 12 11 11 11 11 12 14 16 17 16 18 17 20 21 23 21
32 29 34 47 45 37 38 22 18 18 19 18 14 14 13 12 11 10 11 10 10 10 10 9 9 9 10 11 11 11 13 13 14 13 13 14 15 15 17 20 21 19 18
23 29 36 49 37 10 24 19 14 17 20 19 18 17 14 13 13 12 13 10 7 8 9 10 10 10 8 10 11 12 12 12 13 14 15 16 16 14 14 16 16 17 17
34 31 35 44 48 49 31 19 13 17 17 17 18 17 17 16 16 15 13 12 10 9 10 12 14 12 10 10 11 13 13 13 13 14 15 16 19 15 15 15 16 14 13
35 31 35 37 40 32 34 26 30 25 18 16 19 20 17 19 18 16 14 14 11 10 12 16 17 15 12 12 11 13 13 15 16 16 16 18 17 17 15 19 17 16 15
16 17 23 29 33 35 12 17 29 33 32 19 20 21 19 19 19 16 11 12 11 10 12 13 12 13 16 16 16 14 13 14 16 17 17 18 17 17 18 18 19 18 17
14 23 26 19 15 12 15 36 34 26 24 22 21 20 20 21 22 21 14 13 14 14 17 17 16 18 19 21 20 17 15 16 16 16 16 17 20 19 17 20 20 20 18
13 15 11 11 9 14 26 28 35 37 31 24 22 22 23 27 22 21 16 16 17 19 21 21 20 19 20 20 13 16 17 16 17 17 17 17 19 19 18 20 20 21 21
7 6 8 8 7 10 21 30 27 29 31 30 24 22 22 24 24 24 24 21 20 21 24 28 24 22 21 20 19 18 20 18 18 18 17 18 19 19 20 19 20 20 19
6 6 9 14 14 13 18 16 18 24 25 21 23 26 25 24 23 23 22 21 25 25 26 26 28 27 23 23 24 23 23 22 22 20 19 19 20 21 21 19 20 20 20
4 5 8 11 14 14 14 17 20 27 29 26 28 27 30 30 27 26 26 26 28 30 32 32 31 29 28 27 27 27 26 23 25 24 21 22 22 20 21 21 19 20 19
4 2 2 4 8 9 9 11 11 7 9 20 20 17 28 35 36 48 39 37 33 37 36 37 36 37 36 31 30 27 29 30 28 29 26 25 25 22 21 22 21 18 18
8 8 9 7 10 8 8 10 15 17 20 23 28 31 33 32 31 31 48 43 41 42 40 40 40 40 40 40 35 32 31 34 33 32 30 27 26 24 24 21 21 20 18
10 12 13 13 14 12 18 19 18 24 28 28 31 33 31 30 32 34 38 42 45 46 46 45 43 42 44 44 41 39 39 36 35 35 33 30 28 28 26 22 21 20 18
10 12 11 11 14 15 19 22 24 28 25 26 28 30 32 32 35 38 41 41 43 44 45 42 41 40 42 44 44 43 39 39 37 35 35 36 30 27 27 24 22 21 22
13 13 13 12 13 15 14 13 14 17 18 17 18 21 23 28 30 32 35 38 39 40 42 40 34 32 33 34 39 41 41 36 39 36 38 38 31 21 26 25 24 21 20
12 13 12 13 15 16 15 12 20 16 17 18 17 19 19 20 24 26 28 31 33 33 32 27 25 26 28 29 33 31 33 31 38 40 39 41 33 31 29 26 24 23 22
12 13 15 16 15 15 16 18 21 19 18 18 20 17 19 23 21 22 25 26 26 26 25 24 25 26 26 26 28 29 31 30 34 37 40 36 39 33 30 27 25 22 21
15 14 15 16 15 15 14 16 18 19 18 18 20 22 19 21 21 22 25 25 24 25 27 28 25 26 24 26 24 26 30 32 33 42 38 32 30 27 26 24 23 23 22
15 14 12 11 11 15 16 16 18 21 15 20 22 22 21 21 22 21 21 21 24 26 26 28 28 24 22 21 15 18 28 25 36 27 26 36 36 28 26 27 25 23 23
13 11 14 7 4 12 14 18 21 24 22 18 23 23 22 20 20 18 21 21 17 21 25 26 24 24 23 25 20 20 26 35 32 32 30 41 35 36 38 40 37 31 28
12 12 11 13 13 18 21 19 24 23 20 19 22 23 22 20 18 15 19 16 16 18 16 23 24 22 19 19 26 29 32 33 36 33 33 30 32 36 26 32 37 27 19
14 12 13 13 13 14 15 20 14 20 18 19 20 21 21 19 18 16 13 15 18 16 8 5 10 12 14 19 25 28 30 27 21 20 20 25 27 31 33 28 27 22 24
15 15 20 18 18 16 17 14 15 17 18 16 16 17 15 16 14 14 14 11 6 5 7 14 13 18 18 17 21 23 20 19 22 22 16 19 19 18 17 17 17 19 21
9 14 22 16 19 14 18 14 14 14 14 13 12 12 13 14 9 11 11 6 3 6 6 7 6 3 9 9 9 9 12 18 18 13 15 18 18 18 19 19 20 19 14
1 15 13 18 22 15 13 20 17 15 13 12 14 13 13 13 11 12 9 9 10 8 8 7 5 2 3 3 4 3 5 7 13 14 16 15 17 16 15 15 15 14 13

GFSGL_700_spd_099.txt.gz
Wind_Speed
21 18 20 38 39 38 33 31 26 24 20 14 11 15 14 14 14 13 14 13 12 14 13 11 11 11 10 10 10 9 7 5 4 6 9 13 15 17 20 19 21 21 21
28 28 27 27 37 42 36 40 37 27 24 14 15 16 16 16 16 15 14 13 12 11 12 10 10 10 10 10 9 9 10 10 9 10 11 12 12 13 16 18 20 19 18
32 35 26 18 19 36 45 27 44 27 23 15 17 20 19 17 18 17 16 14 12 11 12 11 11 10 10 10 9 9 9 11 9 10 13 13 13 13 15 14 14 14 14
28 27 27 28 24 32 34 38 40 21 21 18 20 21 20 19 20 20 17 15 15 11 9 9 11 12 13 12 10 10 10 10 12 11 11 13 14 13 15 15 15 14 14
25 27 26 23 29 28 32 23 27 20 27 22 22 22 21 22 21 21 15 17 16 11 10 7 9 10 11 13 14 13 11 11 12 13 12 14 14 13 12 17 16 15 15
21 16 12 13 12 14 20 26 25 28 33 30 27 24 22 23 20 21 17 18 17 12 10 7 6 6 8 12 15 16 18 15 13 14 14 14 16 14 13 14 17 18 17
15 21 20 15 18 13 10 15 27 35 36 32 27 24 22 23 20 20 18 18 15 13 13 9 8 9 10 12 14 15 16 18 15 13 12 16 17 14 14 14 16 18 17
18 15 14 15 14 14 17 19 26 30 25 25 26 24 24 23 21 21 21 21 20 17 15 14 12 12 13 15 15 14 13 15 16 16 14 16 18 17 15 16 16 15 17
8 5 6 6 5 3 2 16 25 28 26 25 25 26 28 25 27 27 24 26 29 22 19 17 15 15 18 16 17 17 15 14 19 19 18 15 17 19 18 17 16 18 18
3 6 5 7 8 8 5 9 20 27 28 27 25 24 26 27 30 37 37 31 34 35 26 21 20 19 20 20 20 22 21 17 18 20 21 19 20 21 19 18 19 19 19
1 4 5 5 6 5 6 7 12 13 22 28 26 33 36 32 24 20 25 29 30 31 21 23 22 22 26 25 25 26 26 25 25 22 22 22 22 22 19 18 18 19 18
2 2 2 2 5 8 5 4 6 6 3 14 19 15 11 15 33 36 30 30 28 35 34 31 31 31 31 31 31 30 30 30 31 30 27 25 23 23 21 21 20 20 19
7 7 8 10 6 8 6 6 6 8 11 15 18 21 27 28 24 24 32 39 47 48 45 38 37 39 38 39 38 37 34 32 32 34 31 29 26 25 25 25 23 22 21
10 11 12 13 13 14 11 13 10 10 14 17 21 23 27 30 31 32 33 35 38 38 34 42 45 43 41 41 42 43 39 37 35 34 34 31 30 30 28 27 24 23 22
12 12 11 10 9 12 16 18 23 23 22 25 27 26 28 31 31 33 35 38 38 37 37 41 44 44 45 43 41 41 42 42 43 38 34 31 30 32 32 28 27 27 27
10 11 11 11 14 13 13 13 16 18 20 19 21 22 24 25 26 28 30 33 35 37 38 39 40 40 37 33 33 33 37 40 39 38 36 35 32 32 32 32 29 31 28
9 10 12 13 11 11 12 16 16 15 14 14 15 16 16 18 20 22 22 24 27 31 33 33 34 33 30 28 28 28 31 31 31 33 33 35 36 34 34 35 31 33 29
10 10 10 9 9 9 10 13 15 15 16 17 18 17 14 17 19 20 21 23 24 27 27 28 29 29 28 28 28 27 26 28 29 31 30 34 39 31 37 39 33 31 29
9 9 9 7 1 2 3 6 11 15 13 15 18 17 17 18 20 21 22 22 23 24 26 28 28 27 28 27 27 28 29 30 30 31 33 33 35 36 41 41 33 28 25
8 10 9 8 11 13 12 15 17 16 16 22 22 21 20 21 21 23 23 23 22 24 25 26 28 27 29 30 29 29 28 30 29 31 35 32 35 41 40 38 38 32 27
12 14 14 12 14 14 11 12 16 21 23 19 21 20 21 23 23 22 21 21 22 23 23 23 24 28 27 28 28 28 28 21 18 27 29 34 40 32 24 32 32 34 35
12 15 13 13 13 16 20 20 23 25 25 25 23 22 22 21 22 21 20 22 20 18 19 20 22 21 24 25 25 24 29 28 19 22 27 29 27 33 31 36 35 31 32
12 13 12 11 16 18 20 22 19 16 17 22 22 22 21 21 19 17 15 17 24 21 16 13 12 14 16 24 25 23 26 29 30 29 30 36 29 32 28 30 32 34 34
12 15 14 18 19 20 23 19 18 16 18 17 18 18 16 16 17 16 14 11 16 15 11 8 7 7 5 10 13 14 15 22 23 27 25 16 17 20 20 19 23 26 28
14 16 14 16 22 25 23 20 18 17 16 18 16 15 17 17 15 14 13 18 11 9 8 4 6 5 17 14 16 12 24 21 15 13 20 16 12 11 11 14 16 16 17
14 12 8 10 18 24 20 22 24 18 20 24 23 20 19 20 20 18 15 15 12 14 13 10 5 3 4 7 7 5 4 9 10 9 6 11 14 13 15 17 18 18 16

GFSGL_700_spd_102.txt.gz
Wind_Speed
31 31 30 31 38 41 40 37 35 32 29 24 21 19 24 22 21 19 18 18 17 17 15 14 14 15 15 15 15 15 15 13 10 7 12 13 15 12 14 17 20 18 18
30 29 37 45 43 40 44 44 41 38 35 31 25 21 22 22 21 20 19 18 17 16 17 16 14 14 13 14 14 13 12 12 11 12 11 11 10 11 13 14 16 16 17
37 33 41 30 19 24 21 47 37 38 39 37 30 25 22 21 20 21 19 18 18 15 14 15 13 12 12 13 14 14 12 12 12 12 15 15 15 14 14 15 14 13 14
23 32 35 30 25 19 22 10 19 23 38 58 46 28 27 26 24 24 22 19 17 16 14 15 15 13 12 13 14 13 14 13 12 13 15 14 14 15 15 14 14 15 15
21 16 23 19 25 29 19 12 21 15 3 17 36 28 28 26 27 25 22 19 18 18 16 16 16 15 13 12 13 12 13 14 16 15 15 16 15 15 15 15 14 14 14
18 18 18 13 11 6 7 14 27 21 23 18 38 29 25 26 24 24 24 22 20 20 19 18 15 14 13 9 9 13 14 15 17 18 18 16 16 17 17 16 16 15 15
10 8 10 16 12 9 10 11 17 25 30 32 42 29 26 25 25 24 22 24 23 23 22 20 16 12 13 14 12 12 13 15 17 19 18 17 19 18 17 15 16 16 16
10 12 12 10 9 10 15 19 20 26 33 32 39 32 31 32 27 28 26 23 24 23 24 22 21 17 16 17 17 14 13 13 14 17 18 17 17 16 16 17 18 18 16
10 7 5 7 8 7 5 6 12 23 29 30 33 30 32 36 29 26 26 26 24 25 26 26 26 22 19 20 20 18 17 15 16 18 21 20 19 19 17 18 18 19 17
4 5 7 6 5 5 4 1 6 13 19 29 28 26 25 27 36 30 34 30 31 24 25 32 30 27 26 26 23 22 21 18 19 21 21 21 23 23 21 19 19 19 19
0 3 5 4 3 2 2 6 9 12 13 22 26 26 20 17 27 30 34 39 46 40 35 32 37 34 31 27 28 27 25 23 25 25 27 26 24 23 24 22 20 20 21
2 4 5 6 7 6 4 6 5 7 12 15 14 13 18 25 25 33 36 34 36 40 42 47 50 44 46 32 31 32 31 30 30 29 28 28 27 25 23 23 25 26 24
6 5 6 8 10 11 9 7 7 10 11 9 7 11 16 18 17 18 20 34 44 39 37 38 38 42 37 39 34 37 41 35 33 32 33 31 29 27 29 28 27 27 25
8 9 10 9 10 12 14 13 13 12 13 14 14 16 19 21 24 26 28 30 34 34 39 42 44 42 42 44 45 45 44 42 35 38 36 35 33 33 33 31 31 30 28
10 9 9 9 11 11 12 13 14 17 20 19 19 20 19 20 22 24 27 30 34 37 40 43 44 41 39 41 44 44 41 41 42 43 42 39 38 36 36 34 32 33 32
6 7 8 8 8 7 8 11 12 14 16 19 20 19 18 18 20 22 25 26 26 29 34 36 36 37 38 40 40 41 41 42 41 44 42 43 42 41 39 36 34 35 34
6 6 6 7 10 10 9 10 9 9 12 12 13 14 17 19 19 21 22 23 24 25 27 29 30 30 31 34 35 36 37 37 38 38 38 38 39 42 44 42 38 36 36
8 9 10 11 12 14 14 13 12 12 12 13 13 14 16 17 20 21 22 22 23 24 26 25 26 28 28 30 32 32 33 33 33 34 34 33 35 37 41 44 42 37 37
8 10 10 12 13 12 12 12 13 16 17 12 12 15 18 19 21 22 21 21 23 24 24 25 26 26 27 30 30 30 30 30 32 33 34 33 33 35 42 46 44 40 39
9 8 8 12 13 13 15 11 10 12 13 18 18 19 20 21 20 23 25 26 27 26 25 26 27 27 26 29 31 30 31 33 32 33 32 32 31 35 38 42 46 47 38
10 10 11 13 13 14 16 16 17 18 19 20 18 19 20 22 24 25 27 27 27 27 28 29 27 26 26 26 30 32 32 31 31 33 31 29 31 34 38 38 38 36 36
12 12 10 13 13 13 13 15 17 20 23 24 23 21 21 23 23 23 24 26 25 24 25 24 27 27 26 27 27 31 34 31 29 29 27 26 28 30 33 39 40 45 38
15 13 11 13 14 13 14 17 15 17 16 18 18 18 19 19 20 20 19 22 22 20 19 16 15 14 15 17 19 23 26 29 31 25 25 30 28 26 26 29 27 24 30
19 18 17 18 17 17 15 18 15 16 14 14 16 19 18 17 18 19 19 19 18 17 16 12 9 10 16 14 13 7 19 22 24 18 22 27 26 23 32 36 37 36 43
20 20 20 19 18 17 16 17 20 20 18 19 19 17 15 18 21 21 21 19 17 16 13 17 15 17 16 10 16 18 14 8 18 23 26 29 28 27 21 22 19 14 18
20 21 19 19 20 17 20 18 23 25 25 20 21 21 19 20 21 20 20 20 19 18 18 18 19 14 16 10 10 11 10 12 15 29 21 24 25 12 11 17 19 15 14

GFSGL_700_spd_105.txt.gz
Wind_Speed
50 59 64 41 41 39 39 39 36 34 32 32 30 28 24 24 25 25 23 24 23 21 21 18 19 21 21 19 17 18 19 21 20 18 17 16 15 17 19 20 17 19 24
44 51 70 43 46 41 42 41 41 39 36 35 35 34 30 26 27 24 23 23 21 20 18 18 18 20 19 17 16 15 15 16 16 16 16 12 11 14 15 16 16 15 16
17 13 33 35 22 18 33 32 38 39 40 40 39 37 35 31 30 25 23 23 22 20 19 17 18 18 18 19 18 14 13 14 14 16 18 18 16 15 15 15 15 15 14
9 7 12 17 17 10 10 18 39 32 38 51 42 39 38 34 30 26 23 24 22 20 19 19 19 17 16 19 20 16 15 13 14 15 18 20 18 17 16 15 15 16 16
12 13 6 8 6 9 9 14 13 13 30 44 49 51 44 41 39 31 26 24 23 21 21 19 19 17 16 17 19 20 19 16 15 16 16 18 18 18 18 19 18 18 18
7 12 14 13 11 14 10 13 19 20 21 26 23 25 34 42 44 40 29 25 25 24 25 23 20 19 17 15 13 14 17 17 15 17 18 18 18 18 19 20 20 19 17
15 15 12 11 12 10 11 13 13 18 26 27 25 16 25 42 35 33 28 27 26 27 27 27 24 23 20 17 16 16 17 16 15 15 17 17 17 18 19 19 19 20 19
11 10 9 10 9 6 5 8 14 17 20 26 24 28 29 31 32 31 31 28 27 28 29 28 27 27 25 22 21 20 17 17 17 14 15 15 18 18 17 17 20 21 21
2 3 3 2 5 7 8 7 9 14 20 22 22 26 37 34 30 38 37 34 35 29 29 29 30 29 27 26 24 23 22 18 20 18 16 17 19 20 21 20 19 22 21
6 3 0 2 4 6 7 5 4 3 7 13 15 21 28 37 31 35 35 42 39 32 29 29 30 31 29 26 27 26 25 23 22 22 20 21 22 22 22 23 22 22 22
6 5 4 4 3 3 4 4 3 3 4 9 14 18 21 25 29 35 32 41 38 38 33 34 33 33 32 30 31 30 30 29 28 26 25 25 25 25 23 22 24 25 23
3 3 3 3 3 6 5 3 5 7 8 12 17 23 28 28 24 16 21 29 34 34 39 36 47 42 40 39 34 33 34 37 34 32 30 29 28 27 24 25 27 28 26
3 3 3 5 5 5 6 5 3 5 10 11 11 14 20 21 23 16 14 20 19 34 36 36 40 50 58 54 51 46 41 41 46 41 34 33 32 31 29 29 31 31 30
5 6 6 6 7 6 7 10 8 9 11 14 17 17 16 16 17 17 21 26 27 28 30 32 34 36 38 42 39 45 45 48 44 42 43 38 38 37 36 34 34 33 34
6 7 7 7 8 9 8 8 8 10 13 16 18 17 18 21 20 22 25 28 30 30 32 34 36 39 42 44 44 44 41 42 47 54 53 49 45 40 40 40 39 36 37
6 6 6 7 8 8 9 9 8 9 11 12 13 16 19 21 20 20 20 22 22 23 24 26 29 32 33 36 38 38 40 41 42 40 46 51 49 46 45 45 44 44 40
8 8 8 8 9 9 10 11 12 12 13 12 13 15 16 17 19 21 21 21 21 22 24 26 27 28 28 29 31 33 34 36 39 43 47 47 46 45 43 44 45 46 46
9 9 8 8 8 9 10 11 11 13 15 13 14 16 17 18 19 21 22 22 23 24 25 26 27 29 30 29 28 32 33 32 34 37 38 38 38 38 37 38 39 44 47
10 9 9 9 9 11 13 13 15 16 17 17 15 16 18 18 19 20 21 23 24 25 27 27 28 28 29 30 30 30 32 34 34 34 34 34 33 35 37 37 38 40 42
10 8 8 10 12 13 13 13 14 15 18 17 16 15 16 18 20 21 22 22 23 24 27 30 32 31 31 31 31 33 32 33 34 33 33 33 33 33 35 36 37 40 40
10 10 11 12 13 13 14 15 15 16 18 20 21 21 19 21 20 20 21 24 25 27 28 28 29 32 33 32 32 32 32 32 33 35 33 35 37 37 34 32 36 35 37
11 12 14 16 17 16 15 17 19 18 17 18 19 20 19 19 20 21 22 21 20 21 24 27 24 23 26 24 20 22 29 33 31 30 32 34 35 32 33 32 35 37 40
16 17 17 19 21 20 18 18 20 18 16 17 18 18 19 20 21 21 21 21 21 21 21 24 21 17 16 18 22 22 22 20 24 27 29 32 30 32 31 31 32 37 43
18 21 23 23 23 23 21 21 19 20 17 16 17 17 17 17 19 21 24 24 22 22 23 23 19 15 16 19 20 18 23 21 20 20 27 31 32 33 31 35 36 33 40
23 25 26 27 25 26 26 23 25 22 22 20 21 24 22 22 22 22 24 24 24 23 23 23 23 20 23 24 15 13 14 16 15 18 22 15 19 22 32 33 30 30 37
26 24 23 26 26 28 30 28 26 26 25 25 25 25 23 26 27 24 25 22 22 22 23 23 23 18 20 21 21 19 14 14 18 20 15 20 18 19 15 12 14 15 18

GFSGL_700_spd_108.txt.gz
Wind_Speed
33 33 35 39 29 51 44 52 43 38 33 33 33 32 30 28 27 27 28 26 26 24 24 25 25 24 24 24 22 23 22 23 22 20 20 20 20 20 16 14 18 20 24
34 36 34 37 46 43 44 56 51 47 41 38 39 37 35 33 28 26 24 25 25 25 23 23 23 22 23 20 19 21 21 22 21 18 17 17 16 13 12 13 16 14 15
30 31 32 29 48 57 49 64 72 72 46 46 44 44 40 36 34 28 26 26 25 26 23 21 22 23 22 20 19 20 19 20 20 18 16 16 15 15 14 13 13 14 17
17 6 1 10 18 27 33 39 39 83 63 45 44 45 45 40 36 31 30 30 28 25 23 23 23 23 22 22 20 19 19 18 19 20 18 17 16 15 16 16 17 18 18
23 12 9 10 17 11 1 4 11 21 42 51 63 50 51 45 42 39 38 32 30 24 24 24 24 23 22 23 22 19 19 19 17 19 20 19 18 16 17 18 18 18 17
18 14 14 8 11 13 12 15 16 22 21 32 52 59 39 45 47 42 43 37 32 30 29 27 26 25 23 23 21 19 19 20 16 15 17 19 19 19 18 19 20 19 17
23 19 14 11 10 9 9 13 16 19 27 23 21 35 53 41 40 48 48 51 49 35 27 28 27 27 26 25 23 22 20 19 17 18 15 16 19 19 19 17 17 19 18
9 10 8 6 6 6 8 11 13 16 19 25 24 26 30 34 29 30 45 49 36 33 34 31 29 30 30 26 26 26 24 22 19 18 19 16 17 19 17 16 16 16 17
3 3 2 2 3 4 5 6 8 10 17 21 23 33 24 21 18 27 26 31 40 41 34 30 30 31 28 28 30 28 26 23 22 20 20 20 18 19 18 19 18 19 17
6 3 3 3 3 3 3 3 3 5 6 12 17 18 19 22 20 23 26 27 33 39 38 33 31 33 30 30 31 31 30 26 24 23 23 24 24 24 23 20 19 21 22
3 2 2 3 4 3 3 2 2 0 2 2 5 7 10 16 23 28 30 28 33 36 42 43 39 35 32 29 32 30 30 28 28 28 28 27 27 28 27 24 23 25 24
1 1 2 1 3 4 5 5 3 2 2 3 5 5 7 11 12 13 18 27 19 27 37 41 39 46 48 37 32 34 39 31 34 29 27 29 31 31 31 30 27 28 29
1 2 3 4 6 6 4 3 3 4 4 5 6 5 7 10 11 15 16 15 15 15 18 29 32 33 40 45 52 44 50 43 41 41 46 36 34 36 39 35 34 31 31
4 4 5 7 7 7 7 8 9 9 8 6 9 10 10 9 8 9 11 13 13 13 17 22 25 26 29 33 36 43 50 57 58 53 52 47 45 49 51 44 35 37 37
5 5 7 8 7 6 7 8 9 10 11 11 13 14 13 12 13 15 18 16 15 18 23 26 27 28 31 33 35 37 37 40 40 43 44 47 52 49 45 52 49 41 41
6 6 5 5 5 6 6 5 7 8 9 10 10 10 13 16 17 17 19 19 18 18 20 22 24 26 27 29 31 33 35 39 43 45 47 48 49 47 49 55 48 50 49
7 7 7 7 8 7 5 6 8 8 9 10 11 12 13 14 15 18 19 19 19 21 22 23 24 25 26 27 29 31 31 32 35 38 41 43 46 49 49 41 39 54 54
7 6 6 6 6 6 7 6 6 8 10 12 13 15 16 17 17 18 19 19 20 21 23 24 26 27 28 28 30 31 32 33 33 34 36 37 39 42 44 45 46 49 49
6 6 7 7 8 9 10 10 11 12 13 14 15 15 14 15 16 17 18 18 17 18 20 21 24 26 28 30 32 32 33 33 34 35 35 37 37 37 38 40 41 41 36
7 7 8 9 11 12 13 12 13 15 15 15 16 17 17 18 19 20 20 19 19 19 20 22 24 26 28 29 31 33 35 35 35 36 35 35 37 38 38 37 36 34 37
10 10 9 9 9 10 12 14 14 15 16 16 17 17 18 18 19 19 19 20 20 21 22 23 24 25 26 26 27 30 32 31 33 35 35 34 32 35 37 39 36 35 40
11 12 13 14 15 15 17 19 19 19 19 19 20 19 18 18 19 21 22 22 22 23 24 24 25 26 25 24 24 22 22 24 24 24 25 28 32 32 37 35 36 38 42
17 17 18 20 22 23 22 22 23 23 22 20 20 20 21 20 19 19 20 21 22 24 25 26 26 26 24 21 20 22 25 24 23 24 24 23 27 31 33 36 35 37 36
21 20 19 20 21 22 23 25 26 26 24 23 22 22 23 24 24 22 22 23 24 25 25 27 27 27 26 24 23 21 19 19 19 17 19 24 25 26 31 35 40 36 37
23 23 22 22 21 21 21 22 26 25 25 25 25 24 24 26 26 24 24 24 25 26 26 28 28 28 28 29 25 22 22 21 21 20 20 23 20 24 23 26 26 35 39
21 21 23 25 26 28 30 28 25 25 26 26 30 31 29 28 26 27 28 27 26 24 24 25 26 27 29 28 23 27 21 23 21 21 21 19 19 18 16 14 17 15 16

GFSGL_700_spd_111.txt.gz
Wind_Speed
26 32 34 43 40 38 38 30 35 36 33 33 32 36 33 32 31 30 30 30 32 32 30 29 27 28 29 29 29 27 26 26 26 21 21 24 23 23 22 22 22 19 19
30 31 31 36 32 39 40 43 40 43 45 36 36 39 40 35 34 33 29 29 31 29 26 28 27 27 27 27 26 26 25 25 24 20 19 22 21 20 17 14 14 16 16
34 33 29 29 33 34 34 45 45 42 49 43 39 44 47 42 39 36 33 30 27 27 26 28 26 27 26 27 25 25 24 23 22 19 19 20 19 19 18 15 16 12 12
22 21 23 18 23 32 41 45 47 46 47 35 39 47 51 50 46 42 41 38 31 30 29 29 27 27 26 27 25 25 24 23 21 19 20 19 18 18 19 18 16 15 15
18 17 18 14 11 19 19 17 25 36 42 43 42 49 52 58 49 43 44 39 36 35 33 29 28 28 25 26 26 26 25 23 21 21 21 19 17 17 18 20 18 18 17
17 22 11 8 15 16 23 21 18 17 23 44 51 49 57 61 55 44 43 38 39 40 34 33 31 31 28 26 27 25 26 24 22 22 21 20 19 17 17 19 21 19 18
12 27 18 9 15 18 17 19 24 21 20 23 23 32 41 58 56 51 39 42 48 46 40 40 33 32 28 27 28 26 26 26 22 21 19 16 18 19 19 17 19 20 18
7 22 23 26 13 14 18 17 16 18 19 18 21 29 23 35 49 56 45 41 47 47 49 50 40 32 30 29 29 26 26 26 23 23 19 16 18 18 18 19 18 19 19
3 6 4 5 7 7 6 7 9 10 13 16 14 19 20 18 18 31 48 54 47 49 51 53 53 36 33 33 31 28 28 27 24 24 22 20 19 18 19 19 18 21 21
8 7 5 2 1 2 4 5 5 5 7 11 16 18 25 24 20 30 33 34 32 37 34 29 36 30 34 37 32 28 30 27 27 27 26 24 23 22 22 21 20 20 22
7 6 6 5 4 3 3 3 3 3 5 3 5 12 15 16 18 15 15 19 24 23 22 23 34 36 34 36 44 36 31 29 32 31 28 26 26 25 24 24 23 23 24
6 5 5 5 3 3 3 3 4 3 4 5 5 7 8 8 7 12 22 25 26 25 24 27 36 43 42 52 53 49 33 32 40 43 33 33 28 30 27 27 26 27 27
1 0 1 1 0 1 2 2 2 1 1 2 1 4 4 3 7 10 14 15 13 13 19 23 23 17 21 22 36 39 53 40 33 36 45 42 34 43 36 33 34 34 32
3 4 5 5 4 3 4 4 4 5 5 5 4 5 5 6 5 5 7 8 8 9 15 14 15 14 19 21 21 19 21 27 30 45 54 49 50 47 47 42 44 45 42
1 2 3 4 5 5 5 4 4 4 5 6 7 8 9 9 9 10 12 13 13 14 15 20 22 23 22 23 23 23 25 29 32 34 36 36 36 37 43 45 42 47 51
2 2 2 2 2 4 5 6 5 5 5 6 6 7 8 8 9 10 13 14 15 15 16 19 20 20 21 21 22 23 25 27 28 30 33 35 39 42 43 46 49 49 50
3 3 3 3 2 3 4 5 6 6 7 8 8 10 11 11 13 13 14 14 15 17 18 20 21 22 22 24 24 24 26 28 30 31 32 33 34 36 37 38 41 42 46
2 2 2 2 3 3 4 4 5 7 8 9 10 12 13 15 16 16 17 17 17 18 19 20 21 22 23 25 26 27 28 29 30 31 32 33 34 35 36 37 37 39 41
4 3 3 3 3 4 5 6 7 7 8 10 12 12 13 13 13 15 16 17 17 18 20 21 21 22 24 25 26 27 28 29 30 32 34 35 35 36 37 38 39 37 37
6 6 6 7 8 8 8 8 9 10 11 12 13 15 16 17 17 17 18 18 18 18 19 21 21 21 21 22 22 23 25 26 28 29 30 32 35 37 37 37 38 40 39
8 8 9 9 10 11 12 12 12 12 12 13 14 15 16 17 18 19 19 20 20 21 22 22 23 23 24 23 22 22 22 21 21 22 25 27 27 28 34 33 33 35 40
10 11 11 11 12 13 14 16 16 17 18 18 17 18 18 17 18 19 19 20 20 22 24 25 27 28 28 29 27 26 27 26 24 23 23 24 25 27 28 30 33 36 35
14 15 15 15 16 17 17 17 18 20 20 20 19 19 19 19 19 19 19 20 21 23 24 25 26 28 30 32 31 29 26 27 27 26 24 21 22 23 27 26 28 31 40
21 19 18 18 18 18 18 18 17 20 21 20 21 21 20 21 20 22 23 23 22 23 25 26 25 25 28 30 31 30 28 26 27 25 25 23 24 25 25 26 26 26 31
22 21 20 18 18 19 20 21 22 23 24 24 22 23 22 23 24 24 27 26 26 26 26 27 27 26 25 26 27 28 29 30 30 26 26 23 22 23 24 26 24 25 28
19 21 23 25 26 27 28 27 26 24 23 23 24 24 26 28 30 32 32 32 32 33 32 29 27 27 27 25 23 25 28 29 27 26 24 24 23 23 22 22 21 26 23

GFSGL_700_spd_114.txt.gz
Wind_Speed
22 28 29 34 34 29 42 37 38 38 40 40 29 29 30 30 29 29 29 28 27 28 27 27 28 29 29 29 28 28 29 29 28 27 26 25 24 23 23 23 21 21 23
26 27 29 36 38 44 39 36 36 37 37 38 36 36 33 33 34 34 32 32 30 30 28 27 28 30 30 28 27 27 27 28 28 27 24 23 23 21 20 20 19 18 17
27 28 30 33 41 41 36 36 37 35 39 41 43 39 37 36 38 38 37 36 35 32 31 30 27 27 28 28 26 27 28 27 27 25 22 21 23 19 17 19 17 20 18
28 27 28 28 36 39 37 37 39 41 40 46 47 42 42 41 40 41 40 39 38 34 33 29 28 28 25 27 27 28 28 26 27 25 21 22 23 21 17 19 18 18 18
27 23 25 27 32 38 38 37 40 44 45 43 45 43 44 43 44 43 40 38 40 39 34 31 30 29 27 27 28 28 29 27 26 25 23 23 23 23 19 21 19 17 16
21 20 21 22 23 24 26 28 30 36 35 32 36 42 45 41 39 48 45 44 43 46 41 35 33 33 32 31 31 33 29 29 26 26 24 24 23 23 21 20 20 20 19
12 15 23 25 22 20 19 21 23 22 20 21 21 28 43 44 43 38 41 45 46 44 38 36 36 36 35 38 35 32 30 28 27 26 25 23 22 20 19 17 17 18 18
12 14 26 20 17 15 15 15 17 19 23 26 23 21 21 27 31 30 38 45 41 39 37 36 38 42 40 42 47 42 29 25 26 28 26 24 21 20 20 19 18 18 18
4 1 18 18 14 16 8 11 12 15 16 20 22 23 22 20 19 22 20 40 44 41 36 37 35 35 43 56 51 40 41 38 28 27 26 25 24 24 21 21 20 19 19
9 11 10 10 6 7 6 6 8 9 11 10 11 16 12 14 15 17 19 17 28 38 35 38 38 45 52 43 38 38 32 26 29 33 31 27 26 27 25 25 23 21 20
10 12 11 9 7 5 4 2 2 3 2 3 5 9 11 13 14 17 16 18 20 23 28 29 31 20 21 29 33 26 28 27 32 32 29 29 30 28 29 28 27 25 23
9 9 9 8 6 5 5 4 4 3 2 1 1 1 2 4 7 9 14 12 12 16 20 19 17 13 16 16 30 34 31 32 39 41 37 36 34 33 31 31 34 30 28
3 3 3 4 4 4 4 3 2 2 1 1 2 2 2 4 6 7 6 6 11 16 17 22 21 19 18 15 19 29 44 50 50 47 51 52 40 39 37 35 41 43 27
1 1 0 3 1 1 1 1 2 2 3 4 3 2 3 3 4 4 6 8 8 9 11 14 15 14 11 12 14 17 18 18 26 34 36 32 45 45 44 53 52 59 47
3 2 1 2 1 1 1 2 2 3 2 4 4 5 6 7 7 6 8 9 9 11 12 13 13 14 17 18 21 22 22 22 24 27 28 28 29 35 39 38 34 39 46
1 2 1 1 1 0 0 1 2 3 3 4 3 4 5 6 7 8 10 11 13 14 14 15 16 18 20 20 20 20 21 21 22 24 25 27 29 32 33 35 39 42 44
1 2 3 2 0 1 1 1 1 2 4 4 5 6 6 6 7 9 10 11 12 13 14 16 17 18 20 21 22 23 23 23 23 24 25 27 29 30 32 33 34 36 38
1 1 1 1 0 1 0 1 2 2 3 4 5 6 8 9 10 11 11 12 13 14 15 17 17 18 18 19 20 21 22 23 24 25 26 28 29 31 33 34 34 36 37
3 2 1 1 1 2 2 3 3 3 5 6 7 7 8 9 10 11 12 14 15 15 17 17 17 18 20 21 22 22 23 23 24 25 25 26 28 30 31 32 34 36 37
3 3 3 3 3 3 3 4 5 5 6 7 8 10 12 12 12 13 13 13 15 16 17 18 20 21 22 22 23 24 24 24 25 26 27 26 27 28 28 28 30 33 35
5 6 6 6 7 8 9 10 10 11 11 11 12 14 13 14 15 15 15 15 15 16 17 18 20 22 22 23 24 24 24 23 24 24 24 24 24 25 26 27 27 28 31
8 10 10 11 11 12 12 12 13 14 15 16 15 15 18 17 17 16 16 17 18 18 18 19 20 22 23 24 25 26 27 27 27 26 26 27 27 27 28 29 30 29 31
8 10 10 10 12 13 13 13 14 16 16 16 17 18 16 17 19 20 18 17 17 18 20 22 22 23 26 26 27 28 29 29 29 29 29 29 30 30 30 30 33 33 32
9 12 13 12 13 14 13 15 16 18 20 21 20 21 20 20 18 19 22 21 22 21 22 24 24 25 25 27 27 28 29 27 24 25 29 31 31 31 31 30 33 31 32
14 16 16 16 17 17 19 19 20 20 20 21 23 25 25 25 27 25 24 25 23 24 25 26 26 27 26 25 27 27 25 27 29 32 33 33 30 26 25 27 30 31 28
20 21 22 25 26 25 24 25 26 26 25 25 26 27 28 28 30 32 33 33 34 35 35 32 32 33 36 34 32 30 30 27 26 27 29 29 29 25 24 25 29 28 23

GFSGL_700_spd_117.txt.gz
Wind_Speed
30 29 25 27 34 37 43 42 43 45 43 43 50 41 31 27 28 29 27 27 27 27 28 26 26 25 27 27 26 26 25 26 26 22 26 25 29 27 25 24 23 23 21
37 35 34 29 31 37 36 42 42 47 43 43 48 38 42 27 30 32 29 28 28 28 29 29 28 26 25 25 25 26 25 23 24 24 23 25 29 26 24 20 20 20 19
34 32 35 35 32 34 37 42 40 42 41 43 42 47 24 35 44 38 34 31 30 31 31 32 30 27 25 25 25 26 26 24 24 25 25 26 25 27 21 18 19 19 19
36 32 31 33 33 35 38 40 45 43 46 41 43 34 24 32 41 42 38 35 33 33 34 33 29 29 28 27 26 24 24 24 24 24 25 25 26 24 22 20 20 20 18
28 29 30 29 31 33 34 40 44 45 44 46 45 40 34 41 30 37 37 36 35 35 36 34 32 31 29 28 29 27 26 24 24 22 24 28 28 22 23 22 22 22 20
25 27 28 29 31 29 29 31 37 41 42 43 42 39 40 40 44 46 40 36 36 35 35 36 37 33 32 31 32 30 30 29 26 26 23 29 30 24 23 23 23 21 20
23 22 23 25 27 24 23 25 27 28 28 29 29 32 33 37 44 46 44 42 41 42 41 39 39 39 38 37 35 34 35 34 33 32 27 26 33 27 23 22 19 18 16
15 16 13 18 24 23 21 22 22 21 21 20 19 20 20 22 27 39 43 45 42 38 38 43 45 42 40 36 37 36 36 38 38 40 39 31 39 28 27 22 20 20 19
24 34 21 20 7 17 16 12 11 12 15 17 18 19 20 21 21 22 33 41 37 34 38 41 42 42 40 38 37 36 37 39 40 46 48 43 44 29 29 27 24 23 21
2 7 2 11 11 14 11 4 5 10 11 11 12 13 17 18 19 19 21 24 24 25 25 38 41 41 42 38 35 33 34 38 46 46 36 40 42 29 27 29 27 25 23
4 3 2 10 9 12 9 6 6 6 4 5 6 8 8 11 13 13 18 18 19 15 13 21 27 37 34 31 32 32 28 37 33 31 30 25 28 28 26 28 29 28 28
5 8 8 6 7 8 7 5 4 8 7 3 3 4 3 5 7 10 10 10 10 9 10 12 12 11 14 14 15 14 22 26 21 26 27 28 28 29 27 25 27 30 29
2 3 3 3 3 2 5 6 5 2 3 1 2 2 3 4 5 5 4 4 8 11 12 11 11 17 20 17 17 9 10 16 25 31 32 32 35 38 43 45 33 34 40
1 0 2 2 1 0 2 3 5 5 5 6 4 0 4 4 3 2 2 4 6 6 5 6 7 10 14 14 12 14 10 11 14 17 20 22 27 29 32 29 30 39 49
3 3 1 1 2 2 2 2 1 1 1 2 4 4 6 3 4 3 4 4 5 5 7 8 9 12 13 13 16 17 16 17 17 19 21 23 25 25 24 24 30 36 34
1 3 3 6 5 2 2 2 2 2 2 3 3 2 2 3 3 4 6 7 8 9 10 12 13 15 17 17 18 18 18 18 19 20 20 21 22 24 27 30 33 35 36
2 2 4 3 4 3 3 5 8 3 3 3 4 4 4 4 4 5 7 7 8 9 11 12 11 12 14 14 15 17 18 19 19 20 21 22 23 23 25 25 28 29 31
2 1 3 1 1 2 2 3 3 1 7 7 5 6 6 6 7 7 7 6 7 9 10 13 13 15 13 13 14 16 18 18 19 19 20 21 22 23 24 24 26 28 29
2 1 1 2 1 1 0 2 2 3 3 4 7 6 7 8 9 11 12 12 11 12 13 13 17 15 16 16 16 17 18 18 19 19 19 20 20 21 21 22 23 24 25
2 3 3 2 6 5 4 4 5 5 4 5 6 12 9 9 11 13 12 13 14 14 14 16 18 20 18 20 21 22 23 23 23 24 25 25 25 25 25 26 27 28 27
5 7 5 6 7 7 7 7 8 9 8 8 10 10 16 16 14 10 11 12 13 12 14 16 15 15 20 19 23 24 24 24 26 26 27 27 28 25 26 27 28 27 28
3 2 7 5 8 11 13 9 9 11 12 10 9 11 17 19 14 14 15 14 14 19 18 21 20 20 21 24 24 24 24 25 26 25 27 26 28 28 28 27 29 27 28
4 4 5 10 7 8 9 6 9 10 12 12 12 12 11 14 12 13 15 17 16 20 22 26 28 23 23 24 24 24 24 24 26 26 25 24 25 27 29 29 29 30 31
12 12 9 10 14 15 12 11 11 12 16 13 13 14 15 14 13 16 17 23 28 28 27 20 25 25 27 30 35 29 28 24 21 22 24 24 28 28 29 29 29 29 27
9 14 13 10 11 12 14 14 14 14 14 22 26 28 25 24 25 27 31 31 34 35 33 34 31 35 31 26 23 28 31 34 30 28 28 26 27 29 31 27 27 27 26
11 14 15 13 15 18 18 18 19 17 17 26 29 27 27 28 32 31 35 34 38 36 34 36 40 38 44 43 42 35 32 37 34 30 33 34 32 31 30 28 28 26 28

GFSGL_700_spd_120.txt.gz
Wind_Speed
38 40 35 32 32 32 35 38 41 44 47 51 51 48 43 39 33 28 28 30 31 31 30 29 27 25 25 26 25 23 23 25 26 20 22 21 24 24 24 22 20 21 20
40 41 41 36 37 38 36 35 40 42 46 49 55 71 54 51 42 32 29 32 34 34 32 31 30 26 26 26 26 24 22 22 23 21 20 20 21 22 23 20 19 20 20
41 41 37 37 36 38 40 36 38 43 43 48 52 56 63 50 33 39 36 36 36 36 34 32 29 27 27 26 27 24 22 21 21 22 20 20 21 22 25 20 16 18 21
36 40 37 37 33 32 36 40 37 40 42 44 48 29 25 32 33 27 54 54 43 39 39 34 33 30 28 27 28 28 25 24 22 22 21 20 20 21 21 17 19 20 21
31 32 32 32 32 32 33 36 36 37 37 38 42 38 34 32 33 31 33 49 54 43 42 37 34 33 30 28 29 30 27 27 26 26 24 22 22 21 16 15 20 23 23
25 26 26 27 30 31 32 34 34 35 33 30 34 40 39 39 38 33 37 27 49 63 44 36 32 34 33 33 31 32 29 29 29 30 28 26 24 23 18 19 22 23 24
19 23 25 27 27 29 30 31 30 30 30 28 27 33 34 35 37 36 36 35 35 31 34 30 33 33 32 35 35 36 33 33 33 32 31 30 29 29 25 25 23 27 24
18 17 19 23 22 22 25 24 24 24 21 21 22 23 25 26 31 34 36 37 39 41 40 38 38 37 36 36 37 38 38 38 36 33 31 31 33 34 36 39 37 39 30
24 24 26 25 23 21 25 20 17 18 16 17 18 20 20 22 22 23 25 27 34 40 44 43 41 37 39 39 40 38 38 35 35 35 33 30 32 36 42 45 41 34 29
6 9 10 14 25 41 31 20 19 15 15 15 16 18 19 20 21 22 21 20 21 28 33 32 32 36 37 38 39 37 34 35 35 35 30 33 36 39 43 42 34 29 29
11 11 13 5 21 9 21 23 18 18 17 14 13 13 13 16 17 17 16 18 16 16 20 25 24 30 35 33 33 30 32 29 36 35 33 32 35 31 29 35 38 34 35
10 13 14 17 21 17 20 5 10 15 15 8 7 6 7 8 10 11 14 16 15 17 19 16 15 13 23 18 26 27 23 23 24 30 31 30 28 26 22 18 27 36 20
6 6 8 9 9 11 11 10 9 15 13 11 8 4 4 6 8 8 9 14 13 12 13 11 8 10 13 13 16 14 13 10 12 18 18 18 22 23 25 26 24 30 36
6 5 8 12 7 4 4 4 5 3 3 5 3 2 2 2 3 3 6 6 4 6 7 9 9 12 13 13 16 14 14 11 9 10 12 13 16 18 20 22 22 25 28
1 8 13 16 15 7 6 7 6 3 2 1 5 3 1 1 1 1 3 4 4 4 5 4 6 8 10 12 13 14 14 13 13 14 15 15 16 19 20 21 22 21 20
5 8 11 8 5 12 11 10 8 5 3 1 0 0 0 1 2 3 3 3 4 5 6 7 8 8 10 11 12 14 15 15 16 16 16 15 17 18 20 21 23 24 25
5 6 2 4 8 6 6 11 11 11 7 4 3 2 3 3 3 3 3 3 4 6 6 7 8 10 11 13 14 14 16 16 17 17 17 18 18 19 21 21 22 24 25
1 2 2 3 3 2 9 8 5 6 8 7 5 4 4 5 4 4 4 4 4 5 5 7 9 12 11 10 13 13 15 14 16 16 17 18 18 18 19 20 21 22 23
6 6 6 7 10 5 2 2 2 1 1 9 12 10 8 7 7 8 8 7 6 7 8 9 13 12 9 13 13 14 15 15 15 16 17 18 19 19 19 20 21 22 23
9 10 9 8 5 8 5 5 5 5 3 1 1 11 14 9 12 11 12 13 11 10 8 9 12 16 16 14 16 16 17 17 19 20 20 22 22 20 18 21 23 25 26
4 4 2 9 7 12 11 14 8 13 15 12 8 5 13 15 13 10 11 17 18 16 15 16 15 19 22 22 20 18 20 21 21 20 23 22 23 26 28 25 27 27 29
3 6 5 4 7 7 9 4 6 5 8 8 13 12 12 12 10 8 12 16 15 14 17 20 22 22 21 24 24 21 19 19 20 23 23 26 24 26 27 26 26 28 28
3 5 6 7 11 11 11 14 8 9 11 11 10 8 11 12 10 12 14 15 19 19 18 16 12 24 22 18 22 25 24 23 21 21 23 23 22 22 23 23 25 28 28
6 8 8 1 6 9 10 8 5 9 8 13 20 23 21 23 25 26 26 27 28 25 28 30 35 37 30 29 26 26 35 28 28 21 23 24 25 24 25 27 29 29 31
10 16 14 11 16 19 21 19 18 18 16 17 24 30 22 24 30 29 31 34 33 33 34 35 35 37 38 39 38 39 37 32 27 20 29 30 27 28 27 28 28 28 27
15 20 18 16 20 19 19 19 18 15 17 23 27 31 32 30 30 27 30 35 33 32 35 39 39 39 43 48 48 44 44 47 50 44 43 45 43 44 39 31 29 28 27